<?xml version="1.0" encoding="UTF-8" standalone="no" ?>
<gpx xmlns="http://www.topografix.com/GPX/1/1" xmlns:xsi="http://www.w3.org/2001/XMLSchema-instance" xsi:schemaLocation="http://www.topografix.com/GPX/1/1 http://www.topografix.com/GPX/1/1/gpx.xsd" version="1.1" creator="VisuGPX - https://www.visugpx.com">
  <metadata>
    <name>Tour Bussang</name>
  </metadata>
  <trk>
    <name><![CDATA[VTTAnnecat Électrifiée]]></name>
    <trkseg>
      <trkpt lat="47.88538" lon="6.8535">
        <ele>616.8</ele>
        <time>2020-08-06T08:10:28Z</time>
      </trkpt>
      <trkpt lat="47.88494" lon="6.85299">
        <ele>616.8</ele>
        <time>2020-08-06T08:10:51Z</time>
      </trkpt>
      <trkpt lat="47.88469" lon="6.85258">
        <ele>617.8</ele>
        <time>2020-08-06T08:11:03Z</time>
      </trkpt>
      <trkpt lat="47.88454" lon="6.85217">
        <ele>618.8</ele>
        <time>2020-08-06T08:11:13Z</time>
      </trkpt>
      <trkpt lat="47.88453" lon="6.8519">
        <ele>620</ele>
        <time>2020-08-06T08:11:19Z</time>
      </trkpt>
      <trkpt lat="47.88455" lon="6.85153">
        <ele>621</ele>
        <time>2020-08-06T08:11:27Z</time>
      </trkpt>
      <trkpt lat="47.88456" lon="6.85128">
        <ele>622</ele>
        <time>2020-08-06T08:11:33Z</time>
      </trkpt>
      <trkpt lat="47.88459" lon="6.85094">
        <ele>623</ele>
        <time>2020-08-06T08:11:42Z</time>
      </trkpt>
      <trkpt lat="47.8846" lon="6.8507">
        <ele>624.2</ele>
        <time>2020-08-06T08:11:49Z</time>
      </trkpt>
      <trkpt lat="47.88463" lon="6.85049">
        <ele>625.2</ele>
        <time>2020-08-06T08:11:56Z</time>
      </trkpt>
      <trkpt lat="47.88465" lon="6.85025">
        <ele>626.4</ele>
        <time>2020-08-06T08:12:03Z</time>
      </trkpt>
      <trkpt lat="47.88462" lon="6.84999">
        <ele>627.2</ele>
        <time>2020-08-06T08:12:10Z</time>
      </trkpt>
      <trkpt lat="47.88461" lon="6.84995">
        <ele>627.6</ele>
        <time>2020-08-06T08:12:11Z</time>
      </trkpt>
      <trkpt lat="47.88454" lon="6.8498">
        <ele>628.6</ele>
        <time>2020-08-06T08:12:16Z</time>
      </trkpt>
      <trkpt lat="47.88442" lon="6.84964">
        <ele>629.8</ele>
        <time>2020-08-06T08:12:22Z</time>
      </trkpt>
      <trkpt lat="47.88427" lon="6.84947">
        <ele>630.8</ele>
        <time>2020-08-06T08:12:28Z</time>
      </trkpt>
      <trkpt lat="47.88405" lon="6.84927">
        <ele>632.2</ele>
        <time>2020-08-06T08:12:37Z</time>
      </trkpt>
      <trkpt lat="47.88357" lon="6.84887">
        <ele>632.4</ele>
        <time>2020-08-06T08:12:54Z</time>
      </trkpt>
      <trkpt lat="47.88309" lon="6.8485">
        <ele>632.8</ele>
        <time>2020-08-06T08:13:11Z</time>
      </trkpt>
      <trkpt lat="47.88262" lon="6.84806">
        <ele>633.2</ele>
        <time>2020-08-06T08:13:28Z</time>
      </trkpt>
      <trkpt lat="47.88249" lon="6.84792">
        <ele>633.6</ele>
        <time>2020-08-06T08:13:33Z</time>
      </trkpt>
      <trkpt lat="47.88249" lon="6.84747">
        <ele>634.8</ele>
        <time>2020-08-06T08:13:47Z</time>
      </trkpt>
      <trkpt lat="47.88254" lon="6.84736">
        <ele>635.8</ele>
        <time>2020-08-06T08:13:51Z</time>
      </trkpt>
      <trkpt lat="47.8826" lon="6.84728">
        <ele>637.2</ele>
        <time>2020-08-06T08:13:55Z</time>
      </trkpt>
      <trkpt lat="47.88264" lon="6.84722">
        <ele>638.2</ele>
        <time>2020-08-06T08:13:58Z</time>
      </trkpt>
      <trkpt lat="47.88271" lon="6.84717">
        <ele>639.2</ele>
        <time>2020-08-06T08:14:02Z</time>
      </trkpt>
      <trkpt lat="47.88277" lon="6.84713">
        <ele>640.8</ele>
        <time>2020-08-06T08:14:06Z</time>
      </trkpt>
      <trkpt lat="47.88283" lon="6.84712">
        <ele>642</ele>
        <time>2020-08-06T08:14:09Z</time>
      </trkpt>
      <trkpt lat="47.88288" lon="6.84712">
        <ele>643</ele>
        <time>2020-08-06T08:14:12Z</time>
      </trkpt>
      <trkpt lat="47.88294" lon="6.84714">
        <ele>644.2</ele>
        <time>2020-08-06T08:14:16Z</time>
      </trkpt>
      <trkpt lat="47.88299" lon="6.84714">
        <ele>645.4</ele>
        <time>2020-08-06T08:14:19Z</time>
      </trkpt>
      <trkpt lat="47.88306" lon="6.84717">
        <ele>646.6</ele>
        <time>2020-08-06T08:14:23Z</time>
      </trkpt>
      <trkpt lat="47.88312" lon="6.84718">
        <ele>647.6</ele>
        <time>2020-08-06T08:14:26Z</time>
      </trkpt>
      <trkpt lat="47.88319" lon="6.84719">
        <ele>648.8</ele>
        <time>2020-08-06T08:14:30Z</time>
      </trkpt>
      <trkpt lat="47.88329" lon="6.8472">
        <ele>650.2</ele>
        <time>2020-08-06T08:14:35Z</time>
      </trkpt>
      <trkpt lat="47.88336" lon="6.8472">
        <ele>651.4</ele>
        <time>2020-08-06T08:14:39Z</time>
      </trkpt>
      <trkpt lat="47.88341" lon="6.84722">
        <ele>652.6</ele>
        <time>2020-08-06T08:14:42Z</time>
      </trkpt>
      <trkpt lat="47.88347" lon="6.84724">
        <ele>653.8</ele>
        <time>2020-08-06T08:14:46Z</time>
      </trkpt>
      <trkpt lat="47.88359" lon="6.84722">
        <ele>654.8</ele>
        <time>2020-08-06T08:14:51Z</time>
      </trkpt>
      <trkpt lat="47.88368" lon="6.84721">
        <ele>656.4</ele>
        <time>2020-08-06T08:14:56Z</time>
      </trkpt>
      <trkpt lat="47.88377" lon="6.84721">
        <ele>657.6</ele>
        <time>2020-08-06T08:15:01Z</time>
      </trkpt>
      <trkpt lat="47.88383" lon="6.84719">
        <ele>658.6</ele>
        <time>2020-08-06T08:15:05Z</time>
      </trkpt>
      <trkpt lat="47.88393" lon="6.84718">
        <ele>659.8</ele>
        <time>2020-08-06T08:15:10Z</time>
      </trkpt>
      <trkpt lat="47.88402" lon="6.84719">
        <ele>661</ele>
        <time>2020-08-06T08:15:14Z</time>
      </trkpt>
      <trkpt lat="47.8841" lon="6.8472">
        <ele>662.4</ele>
        <time>2020-08-06T08:15:18Z</time>
      </trkpt>
      <trkpt lat="47.88421" lon="6.8472">
        <ele>663.4</ele>
        <time>2020-08-06T08:15:23Z</time>
      </trkpt>
      <trkpt lat="47.88433" lon="6.84721">
        <ele>664.6</ele>
        <time>2020-08-06T08:15:29Z</time>
      </trkpt>
      <trkpt lat="47.88443" lon="6.84722">
        <ele>666</ele>
        <time>2020-08-06T08:15:34Z</time>
      </trkpt>
      <trkpt lat="47.88456" lon="6.8472">
        <ele>667.2</ele>
        <time>2020-08-06T08:15:40Z</time>
      </trkpt>
      <trkpt lat="47.8847" lon="6.84716">
        <ele>668.2</ele>
        <time>2020-08-06T08:15:46Z</time>
      </trkpt>
      <trkpt lat="47.88482" lon="6.84711">
        <ele>669.4</ele>
        <time>2020-08-06T08:15:51Z</time>
      </trkpt>
      <trkpt lat="47.88496" lon="6.84697">
        <ele>670.6</ele>
        <time>2020-08-06T08:15:58Z</time>
      </trkpt>
      <trkpt lat="47.885" lon="6.84685">
        <ele>672</ele>
        <time>2020-08-06T08:16:03Z</time>
      </trkpt>
      <trkpt lat="47.88501" lon="6.84673">
        <ele>673</ele>
        <time>2020-08-06T08:16:08Z</time>
      </trkpt>
      <trkpt lat="47.88498" lon="6.84665">
        <ele>674.4</ele>
        <time>2020-08-06T08:16:12Z</time>
      </trkpt>
      <trkpt lat="47.88496" lon="6.84664">
        <ele>674.8</ele>
        <time>2020-08-06T08:16:13Z</time>
      </trkpt>
      <trkpt lat="47.88491" lon="6.84664">
        <ele>675.6</ele>
        <time>2020-08-06T08:16:16Z</time>
      </trkpt>
      <trkpt lat="47.88486" lon="6.84662">
        <ele>677</ele>
        <time>2020-08-06T08:16:20Z</time>
      </trkpt>
      <trkpt lat="47.8848" lon="6.84665">
        <ele>678.2</ele>
        <time>2020-08-06T08:16:24Z</time>
      </trkpt>
      <trkpt lat="47.88475" lon="6.84665">
        <ele>679.4</ele>
        <time>2020-08-06T08:16:27Z</time>
      </trkpt>
      <trkpt lat="47.88469" lon="6.84665">
        <ele>680.4</ele>
        <time>2020-08-06T08:16:31Z</time>
      </trkpt>
      <trkpt lat="47.88463" lon="6.84664">
        <ele>681.6</ele>
        <time>2020-08-06T08:16:35Z</time>
      </trkpt>
      <trkpt lat="47.88457" lon="6.84658">
        <ele>682.8</ele>
        <time>2020-08-06T08:16:40Z</time>
      </trkpt>
      <trkpt lat="47.88453" lon="6.84653">
        <ele>684</ele>
        <time>2020-08-06T08:16:44Z</time>
      </trkpt>
      <trkpt lat="47.88448" lon="6.84649">
        <ele>685.2</ele>
        <time>2020-08-06T08:16:48Z</time>
      </trkpt>
      <trkpt lat="47.88445" lon="6.84646">
        <ele>686.2</ele>
        <time>2020-08-06T08:16:52Z</time>
      </trkpt>
      <trkpt lat="47.88445" lon="6.84646">
        <ele>687.4</ele>
        <time>2020-08-06T08:16:56Z</time>
      </trkpt>
      <trkpt lat="47.88445" lon="6.84646">
        <ele>688.2</ele>
        <time>2020-08-06T08:17:25Z</time>
      </trkpt>
      <trkpt lat="47.88443" lon="6.84642">
        <ele>688.2</ele>
        <time>2020-08-06T08:17:27Z</time>
      </trkpt>
      <trkpt lat="47.88438" lon="6.84638">
        <ele>688.2</ele>
        <time>2020-08-06T08:17:31Z</time>
      </trkpt>
      <trkpt lat="47.88432" lon="6.84633">
        <ele>688.8</ele>
        <time>2020-08-06T08:17:35Z</time>
      </trkpt>
      <trkpt lat="47.88425" lon="6.84628">
        <ele>690</ele>
        <time>2020-08-06T08:17:40Z</time>
      </trkpt>
      <trkpt lat="47.88421" lon="6.84624">
        <ele>691.2</ele>
        <time>2020-08-06T08:17:43Z</time>
      </trkpt>
      <trkpt lat="47.88415" lon="6.8462">
        <ele>692.4</ele>
        <time>2020-08-06T08:17:47Z</time>
      </trkpt>
      <trkpt lat="47.8841" lon="6.84617">
        <ele>693.4</ele>
        <time>2020-08-06T08:17:51Z</time>
      </trkpt>
      <trkpt lat="47.88404" lon="6.84613">
        <ele>694.6</ele>
        <time>2020-08-06T08:17:55Z</time>
      </trkpt>
      <trkpt lat="47.884" lon="6.84608">
        <ele>695.8</ele>
        <time>2020-08-06T08:17:59Z</time>
      </trkpt>
      <trkpt lat="47.88395" lon="6.84603">
        <ele>696.8</ele>
        <time>2020-08-06T08:18:03Z</time>
      </trkpt>
      <trkpt lat="47.8839" lon="6.84598">
        <ele>698</ele>
        <time>2020-08-06T08:18:07Z</time>
      </trkpt>
      <trkpt lat="47.88387" lon="6.84594">
        <ele>699.2</ele>
        <time>2020-08-06T08:18:10Z</time>
      </trkpt>
      <trkpt lat="47.88381" lon="6.84591">
        <ele>700.4</ele>
        <time>2020-08-06T08:18:14Z</time>
      </trkpt>
      <trkpt lat="47.88375" lon="6.84586">
        <ele>701.6</ele>
        <time>2020-08-06T08:18:18Z</time>
      </trkpt>
      <trkpt lat="47.88372" lon="6.84582">
        <ele>702.6</ele>
        <time>2020-08-06T08:18:21Z</time>
      </trkpt>
      <trkpt lat="47.88367" lon="6.84577">
        <ele>703.8</ele>
        <time>2020-08-06T08:18:25Z</time>
      </trkpt>
      <trkpt lat="47.88362" lon="6.84572">
        <ele>705</ele>
        <time>2020-08-06T08:18:29Z</time>
      </trkpt>
      <trkpt lat="47.88357" lon="6.84566">
        <ele>706.4</ele>
        <time>2020-08-06T08:18:33Z</time>
      </trkpt>
      <trkpt lat="47.8835" lon="6.84558">
        <ele>707.6</ele>
        <time>2020-08-06T08:18:38Z</time>
      </trkpt>
      <trkpt lat="47.88345" lon="6.84551">
        <ele>708.8</ele>
        <time>2020-08-06T08:18:42Z</time>
      </trkpt>
      <trkpt lat="47.88341" lon="6.84546">
        <ele>710</ele>
        <time>2020-08-06T08:18:45Z</time>
      </trkpt>
      <trkpt lat="47.88335" lon="6.84537">
        <ele>711</ele>
        <time>2020-08-06T08:18:50Z</time>
      </trkpt>
      <trkpt lat="47.88329" lon="6.84528">
        <ele>712.4</ele>
        <time>2020-08-06T08:18:55Z</time>
      </trkpt>
      <trkpt lat="47.88323" lon="6.84519">
        <ele>713.4</ele>
        <time>2020-08-06T08:19:00Z</time>
      </trkpt>
      <trkpt lat="47.88316" lon="6.84508">
        <ele>714.4</ele>
        <time>2020-08-06T08:19:06Z</time>
      </trkpt>
      <trkpt lat="47.88312" lon="6.84499">
        <ele>715.6</ele>
        <time>2020-08-06T08:19:10Z</time>
      </trkpt>
      <trkpt lat="47.88306" lon="6.84486">
        <ele>716.6</ele>
        <time>2020-08-06T08:19:15Z</time>
      </trkpt>
      <trkpt lat="47.88297" lon="6.84469">
        <ele>717.8</ele>
        <time>2020-08-06T08:19:22Z</time>
      </trkpt>
      <trkpt lat="47.88289" lon="6.84452">
        <ele>719</ele>
        <time>2020-08-06T08:19:28Z</time>
      </trkpt>
      <trkpt lat="47.88285" lon="6.84442">
        <ele>720.2</ele>
        <time>2020-08-06T08:19:32Z</time>
      </trkpt>
      <trkpt lat="47.88284" lon="6.84439">
        <ele>720.4</ele>
        <time>2020-08-06T08:19:33Z</time>
      </trkpt>
      <trkpt lat="47.88281" lon="6.84428">
        <ele>721.4</ele>
        <time>2020-08-06T08:19:37Z</time>
      </trkpt>
      <trkpt lat="47.88276" lon="6.8441">
        <ele>722.6</ele>
        <time>2020-08-06T08:19:43Z</time>
      </trkpt>
      <trkpt lat="47.88273" lon="6.84394">
        <ele>723.6</ele>
        <time>2020-08-06T08:19:48Z</time>
      </trkpt>
      <trkpt lat="47.8827" lon="6.84377">
        <ele>724.8</ele>
        <time>2020-08-06T08:19:53Z</time>
      </trkpt>
      <trkpt lat="47.88267" lon="6.84359">
        <ele>726</ele>
        <time>2020-08-06T08:19:58Z</time>
      </trkpt>
      <trkpt lat="47.88264" lon="6.84342">
        <ele>727.2</ele>
        <time>2020-08-06T08:20:03Z</time>
      </trkpt>
      <trkpt lat="47.88261" lon="6.84323">
        <ele>728.2</ele>
        <time>2020-08-06T08:20:08Z</time>
      </trkpt>
      <trkpt lat="47.88258" lon="6.84309">
        <ele>729.2</ele>
        <time>2020-08-06T08:20:12Z</time>
      </trkpt>
      <trkpt lat="47.88253" lon="6.84289">
        <ele>730.4</ele>
        <time>2020-08-06T08:20:18Z</time>
      </trkpt>
      <trkpt lat="47.8825" lon="6.84275">
        <ele>731.4</ele>
        <time>2020-08-06T08:20:22Z</time>
      </trkpt>
      <trkpt lat="47.88247" lon="6.84261">
        <ele>732.6</ele>
        <time>2020-08-06T08:20:27Z</time>
      </trkpt>
      <trkpt lat="47.88241" lon="6.84239">
        <ele>733.6</ele>
        <time>2020-08-06T08:20:34Z</time>
      </trkpt>
      <trkpt lat="47.88236" lon="6.84216">
        <ele>735</ele>
        <time>2020-08-06T08:20:41Z</time>
      </trkpt>
      <trkpt lat="47.88232" lon="6.84189">
        <ele>736</ele>
        <time>2020-08-06T08:20:49Z</time>
      </trkpt>
      <trkpt lat="47.88228" lon="6.84171">
        <ele>737.2</ele>
        <time>2020-08-06T08:20:54Z</time>
      </trkpt>
      <trkpt lat="47.88223" lon="6.84153">
        <ele>738.2</ele>
        <time>2020-08-06T08:20:59Z</time>
      </trkpt>
      <trkpt lat="47.88216" lon="6.84128">
        <ele>739.4</ele>
        <time>2020-08-06T08:21:06Z</time>
      </trkpt>
      <trkpt lat="47.88207" lon="6.84095">
        <ele>740.6</ele>
        <time>2020-08-06T08:21:16Z</time>
      </trkpt>
      <trkpt lat="47.88201" lon="6.8408">
        <ele>741.8</ele>
        <time>2020-08-06T08:21:21Z</time>
      </trkpt>
      <trkpt lat="47.88191" lon="6.84063">
        <ele>743</ele>
        <time>2020-08-06T08:21:28Z</time>
      </trkpt>
      <trkpt lat="47.88185" lon="6.84047">
        <ele>744.2</ele>
        <time>2020-08-06T08:21:33Z</time>
      </trkpt>
      <trkpt lat="47.88182" lon="6.84037">
        <ele>745.2</ele>
        <time>2020-08-06T08:21:36Z</time>
      </trkpt>
      <trkpt lat="47.88176" lon="6.84016">
        <ele>746.2</ele>
        <time>2020-08-06T08:21:42Z</time>
      </trkpt>
      <trkpt lat="47.88174" lon="6.83995">
        <ele>747.4</ele>
        <time>2020-08-06T08:21:48Z</time>
      </trkpt>
      <trkpt lat="47.88175" lon="6.83978">
        <ele>748.6</ele>
        <time>2020-08-06T08:21:53Z</time>
      </trkpt>
      <trkpt lat="47.88175" lon="6.83963">
        <ele>749.8</ele>
        <time>2020-08-06T08:21:58Z</time>
      </trkpt>
      <trkpt lat="47.88174" lon="6.8395">
        <ele>751</ele>
        <time>2020-08-06T08:22:02Z</time>
      </trkpt>
      <trkpt lat="47.88173" lon="6.83936">
        <ele>752.2</ele>
        <time>2020-08-06T08:22:06Z</time>
      </trkpt>
      <trkpt lat="47.88173" lon="6.83919">
        <ele>753.4</ele>
        <time>2020-08-06T08:22:11Z</time>
      </trkpt>
      <trkpt lat="47.88173" lon="6.839">
        <ele>754.8</ele>
        <time>2020-08-06T08:22:17Z</time>
      </trkpt>
      <trkpt lat="47.88174" lon="6.8388">
        <ele>756.2</ele>
        <time>2020-08-06T08:22:23Z</time>
      </trkpt>
      <trkpt lat="47.88176" lon="6.83868">
        <ele>757.2</ele>
        <time>2020-08-06T08:22:27Z</time>
      </trkpt>
      <trkpt lat="47.88185" lon="6.83863">
        <ele>758.4</ele>
        <time>2020-08-06T08:22:32Z</time>
      </trkpt>
      <trkpt lat="47.88187" lon="6.83863">
        <ele>759.8</ele>
        <time>2020-08-06T08:22:36Z</time>
      </trkpt>
      <trkpt lat="47.88187" lon="6.83863">
        <ele>760.8</ele>
        <time>2020-08-06T08:22:41Z</time>
      </trkpt>
      <trkpt lat="47.88187" lon="6.8386">
        <ele>761.4</ele>
        <time>2020-08-06T08:23:24Z</time>
      </trkpt>
      <trkpt lat="47.88188" lon="6.83859">
        <ele>760.4</ele>
        <time>2020-08-06T08:25:25Z</time>
      </trkpt>
      <trkpt lat="47.88189" lon="6.83862">
        <ele>760.6</ele>
        <time>2020-08-06T08:25:45Z</time>
      </trkpt>
      <trkpt lat="47.88192" lon="6.83894">
        <ele>761.6</ele>
        <time>2020-08-06T08:25:59Z</time>
      </trkpt>
      <trkpt lat="47.88194" lon="6.83909">
        <ele>762.8</ele>
        <time>2020-08-06T08:26:04Z</time>
      </trkpt>
      <trkpt lat="47.88198" lon="6.83927">
        <ele>764</ele>
        <time>2020-08-06T08:26:10Z</time>
      </trkpt>
      <trkpt lat="47.88208" lon="6.83954">
        <ele>765</ele>
        <time>2020-08-06T08:26:18Z</time>
      </trkpt>
      <trkpt lat="47.88215" lon="6.83972">
        <ele>766.2</ele>
        <time>2020-08-06T08:26:24Z</time>
      </trkpt>
      <trkpt lat="47.88227" lon="6.83987">
        <ele>767.2</ele>
        <time>2020-08-06T08:26:32Z</time>
      </trkpt>
      <trkpt lat="47.88232" lon="6.83982">
        <ele>767.6</ele>
        <time>2020-08-06T08:26:35Z</time>
      </trkpt>
      <trkpt lat="47.88233" lon="6.83973">
        <ele>768.6</ele>
        <time>2020-08-06T08:26:38Z</time>
      </trkpt>
      <trkpt lat="47.88233" lon="6.8397">
        <ele>768.8</ele>
        <time>2020-08-06T08:26:39Z</time>
      </trkpt>
      <trkpt lat="47.88231" lon="6.83953">
        <ele>770</ele>
        <time>2020-08-06T08:26:44Z</time>
      </trkpt>
      <trkpt lat="47.88229" lon="6.83937">
        <ele>771.2</ele>
        <time>2020-08-06T08:26:48Z</time>
      </trkpt>
      <trkpt lat="47.88229" lon="6.83926">
        <ele>772.4</ele>
        <time>2020-08-06T08:26:51Z</time>
      </trkpt>
      <trkpt lat="47.88228" lon="6.83896">
        <ele>773.4</ele>
        <time>2020-08-06T08:26:59Z</time>
      </trkpt>
      <trkpt lat="47.88219" lon="6.83852">
        <ele>774.4</ele>
        <time>2020-08-06T08:27:11Z</time>
      </trkpt>
      <trkpt lat="47.88215" lon="6.83821">
        <ele>775.8</ele>
        <time>2020-08-06T08:27:19Z</time>
      </trkpt>
      <trkpt lat="47.88213" lon="6.83785">
        <ele>776.8</ele>
        <time>2020-08-06T08:27:29Z</time>
      </trkpt>
      <trkpt lat="47.88214" lon="6.83763">
        <ele>778</ele>
        <time>2020-08-06T08:27:35Z</time>
      </trkpt>
      <trkpt lat="47.88215" lon="6.83745">
        <ele>779</ele>
        <time>2020-08-06T08:27:40Z</time>
      </trkpt>
      <trkpt lat="47.88218" lon="6.83723">
        <ele>780.4</ele>
        <time>2020-08-06T08:27:46Z</time>
      </trkpt>
      <trkpt lat="47.88219" lon="6.83713">
        <ele>781.4</ele>
        <time>2020-08-06T08:27:49Z</time>
      </trkpt>
      <trkpt lat="47.88222" lon="6.83697">
        <ele>782.4</ele>
        <time>2020-08-06T08:27:54Z</time>
      </trkpt>
      <trkpt lat="47.88225" lon="6.83684">
        <ele>783.6</ele>
        <time>2020-08-06T08:27:58Z</time>
      </trkpt>
      <trkpt lat="47.88229" lon="6.83663">
        <ele>784.8</ele>
        <time>2020-08-06T08:28:04Z</time>
      </trkpt>
      <trkpt lat="47.88237" lon="6.8364">
        <ele>785.8</ele>
        <time>2020-08-06T08:28:11Z</time>
      </trkpt>
      <trkpt lat="47.88239" lon="6.83613">
        <ele>787</ele>
        <time>2020-08-06T08:28:18Z</time>
      </trkpt>
      <trkpt lat="47.88227" lon="6.83539">
        <ele>788</ele>
        <time>2020-08-06T08:28:36Z</time>
      </trkpt>
      <trkpt lat="47.88212" lon="6.83508">
        <ele>788.2</ele>
        <time>2020-08-06T08:28:43Z</time>
      </trkpt>
      <trkpt lat="47.88176" lon="6.83446">
        <ele>788.4</ele>
        <time>2020-08-06T08:28:57Z</time>
      </trkpt>
      <trkpt lat="47.88162" lon="6.83412">
        <ele>789.6</ele>
        <time>2020-08-06T08:29:05Z</time>
      </trkpt>
      <trkpt lat="47.88116" lon="6.83367">
        <ele>790.4</ele>
        <time>2020-08-06T08:29:22Z</time>
      </trkpt>
      <trkpt lat="47.88112" lon="6.83365">
        <ele>791</ele>
        <time>2020-08-06T08:29:24Z</time>
      </trkpt>
      <trkpt lat="47.88105" lon="6.8336">
        <ele>792.2</ele>
        <time>2020-08-06T08:29:29Z</time>
      </trkpt>
      <trkpt lat="47.88098" lon="6.83358">
        <ele>793.2</ele>
        <time>2020-08-06T08:29:34Z</time>
      </trkpt>
      <trkpt lat="47.88092" lon="6.83358">
        <ele>794.4</ele>
        <time>2020-08-06T08:29:38Z</time>
      </trkpt>
      <trkpt lat="47.88088" lon="6.83358">
        <ele>795.8</ele>
        <time>2020-08-06T08:29:42Z</time>
      </trkpt>
      <trkpt lat="47.88084" lon="6.83359">
        <ele>796.8</ele>
        <time>2020-08-06T08:29:45Z</time>
      </trkpt>
      <trkpt lat="47.8808" lon="6.8336">
        <ele>798</ele>
        <time>2020-08-06T08:29:49Z</time>
      </trkpt>
      <trkpt lat="47.88075" lon="6.8336">
        <ele>799.2</ele>
        <time>2020-08-06T08:29:53Z</time>
      </trkpt>
      <trkpt lat="47.88072" lon="6.83359">
        <ele>800.4</ele>
        <time>2020-08-06T08:29:56Z</time>
      </trkpt>
      <trkpt lat="47.88065" lon="6.83358">
        <ele>801.6</ele>
        <time>2020-08-06T08:30:01Z</time>
      </trkpt>
      <trkpt lat="47.88064" lon="6.83358">
        <ele>802.6</ele>
        <time>2020-08-06T08:30:05Z</time>
      </trkpt>
      <trkpt lat="47.88062" lon="6.83357">
        <ele>803.8</ele>
        <time>2020-08-06T08:30:11Z</time>
      </trkpt>
      <trkpt lat="47.88053" lon="6.83354">
        <ele>805</ele>
        <time>2020-08-06T08:30:53Z</time>
      </trkpt>
      <trkpt lat="47.88051" lon="6.83352">
        <ele>806</ele>
        <time>2020-08-06T08:31:01Z</time>
      </trkpt>
      <trkpt lat="47.8804" lon="6.83346">
        <ele>807.2</ele>
        <time>2020-08-06T08:31:18Z</time>
      </trkpt>
      <trkpt lat="47.88035" lon="6.83341">
        <ele>808.2</ele>
        <time>2020-08-06T08:31:24Z</time>
      </trkpt>
      <trkpt lat="47.88035" lon="6.83341">
        <ele>809.4</ele>
        <time>2020-08-06T08:31:29Z</time>
      </trkpt>
      <trkpt lat="47.88034" lon="6.83341">
        <ele>809.6</ele>
        <time>2020-08-06T08:31:39Z</time>
      </trkpt>
      <trkpt lat="47.88025" lon="6.83323">
        <ele>810.4</ele>
        <time>2020-08-06T08:31:51Z</time>
      </trkpt>
      <trkpt lat="47.88021" lon="6.83315">
        <ele>811.8</ele>
        <time>2020-08-06T08:31:56Z</time>
      </trkpt>
      <trkpt lat="47.88017" lon="6.83307">
        <ele>813</ele>
        <time>2020-08-06T08:32:01Z</time>
      </trkpt>
      <trkpt lat="47.88016" lon="6.83303">
        <ele>814.2</ele>
        <time>2020-08-06T08:32:05Z</time>
      </trkpt>
      <trkpt lat="47.88016" lon="6.83303">
        <ele>815.4</ele>
        <time>2020-08-06T08:32:10Z</time>
      </trkpt>
      <trkpt lat="47.88009" lon="6.83285">
        <ele>816.6</ele>
        <time>2020-08-06T08:32:22Z</time>
      </trkpt>
      <trkpt lat="47.88004" lon="6.83268">
        <ele>817.6</ele>
        <time>2020-08-06T08:32:29Z</time>
      </trkpt>
      <trkpt lat="47.88002" lon="6.83259">
        <ele>818.8</ele>
        <time>2020-08-06T08:32:33Z</time>
      </trkpt>
      <trkpt lat="47.88001" lon="6.83253">
        <ele>820</ele>
        <time>2020-08-06T08:32:36Z</time>
      </trkpt>
      <trkpt lat="47.88" lon="6.83249">
        <ele>821</ele>
        <time>2020-08-06T08:32:38Z</time>
      </trkpt>
      <trkpt lat="47.87999" lon="6.83242">
        <ele>822.2</ele>
        <time>2020-08-06T08:32:42Z</time>
      </trkpt>
      <trkpt lat="47.87998" lon="6.83235">
        <ele>823.6</ele>
        <time>2020-08-06T08:32:46Z</time>
      </trkpt>
      <trkpt lat="47.87996" lon="6.83226">
        <ele>824.8</ele>
        <time>2020-08-06T08:32:51Z</time>
      </trkpt>
      <trkpt lat="47.87995" lon="6.83218">
        <ele>826.2</ele>
        <time>2020-08-06T08:32:55Z</time>
      </trkpt>
      <trkpt lat="47.87995" lon="6.83213">
        <ele>827.2</ele>
        <time>2020-08-06T08:32:59Z</time>
      </trkpt>
      <trkpt lat="47.87993" lon="6.83204">
        <ele>828.4</ele>
        <time>2020-08-06T08:33:04Z</time>
      </trkpt>
      <trkpt lat="47.87992" lon="6.83197">
        <ele>829.6</ele>
        <time>2020-08-06T08:33:08Z</time>
      </trkpt>
      <trkpt lat="47.87991" lon="6.83191">
        <ele>830.6</ele>
        <time>2020-08-06T08:33:12Z</time>
      </trkpt>
      <trkpt lat="47.8799" lon="6.83183">
        <ele>831.8</ele>
        <time>2020-08-06T08:33:17Z</time>
      </trkpt>
      <trkpt lat="47.87989" lon="6.83175">
        <ele>833</ele>
        <time>2020-08-06T08:33:22Z</time>
      </trkpt>
      <trkpt lat="47.87987" lon="6.83166">
        <ele>834</ele>
        <time>2020-08-06T08:33:27Z</time>
      </trkpt>
      <trkpt lat="47.87986" lon="6.83154">
        <ele>835.2</ele>
        <time>2020-08-06T08:33:32Z</time>
      </trkpt>
      <trkpt lat="47.87985" lon="6.83146">
        <ele>836.2</ele>
        <time>2020-08-06T08:33:36Z</time>
      </trkpt>
      <trkpt lat="47.87985" lon="6.83135">
        <ele>837.4</ele>
        <time>2020-08-06T08:33:41Z</time>
      </trkpt>
      <trkpt lat="47.87984" lon="6.83127">
        <ele>838.6</ele>
        <time>2020-08-06T08:33:45Z</time>
      </trkpt>
      <trkpt lat="47.87984" lon="6.83119">
        <ele>839.8</ele>
        <time>2020-08-06T08:33:48Z</time>
      </trkpt>
      <trkpt lat="47.87984" lon="6.83106">
        <ele>841</ele>
        <time>2020-08-06T08:33:53Z</time>
      </trkpt>
      <trkpt lat="47.87984" lon="6.83096">
        <ele>842.2</ele>
        <time>2020-08-06T08:33:57Z</time>
      </trkpt>
      <trkpt lat="47.87983" lon="6.83084">
        <ele>843.2</ele>
        <time>2020-08-06T08:34:02Z</time>
      </trkpt>
      <trkpt lat="47.87983" lon="6.83073">
        <ele>844.4</ele>
        <time>2020-08-06T08:34:07Z</time>
      </trkpt>
      <trkpt lat="47.87983" lon="6.83069">
        <ele>844.8</ele>
        <time>2020-08-06T08:34:09Z</time>
      </trkpt>
      <trkpt lat="47.87983" lon="6.83064">
        <ele>845.2</ele>
        <time>2020-08-06T08:34:11Z</time>
      </trkpt>
      <trkpt lat="47.87982" lon="6.83056">
        <ele>846.2</ele>
        <time>2020-08-06T08:34:14Z</time>
      </trkpt>
      <trkpt lat="47.87981" lon="6.83051">
        <ele>846.6</ele>
        <time>2020-08-06T08:34:16Z</time>
      </trkpt>
      <trkpt lat="47.8798" lon="6.83039">
        <ele>847.8</ele>
        <time>2020-08-06T08:34:21Z</time>
      </trkpt>
      <trkpt lat="47.87981" lon="6.8303">
        <ele>848.8</ele>
        <time>2020-08-06T08:34:25Z</time>
      </trkpt>
      <trkpt lat="47.87981" lon="6.83019">
        <ele>849.8</ele>
        <time>2020-08-06T08:34:30Z</time>
      </trkpt>
      <trkpt lat="47.87981" lon="6.83009">
        <ele>851</ele>
        <time>2020-08-06T08:34:35Z</time>
      </trkpt>
      <trkpt lat="47.87981" lon="6.82999">
        <ele>852</ele>
        <time>2020-08-06T08:34:40Z</time>
      </trkpt>
      <trkpt lat="47.8798" lon="6.82989">
        <ele>853.2</ele>
        <time>2020-08-06T08:34:45Z</time>
      </trkpt>
      <trkpt lat="47.87979" lon="6.82978">
        <ele>854.4</ele>
        <time>2020-08-06T08:34:51Z</time>
      </trkpt>
      <trkpt lat="47.87978" lon="6.82967">
        <ele>855.8</ele>
        <time>2020-08-06T08:34:56Z</time>
      </trkpt>
      <trkpt lat="47.87976" lon="6.82959">
        <ele>857</ele>
        <time>2020-08-06T08:35:00Z</time>
      </trkpt>
      <trkpt lat="47.87975" lon="6.82951">
        <ele>858</ele>
        <time>2020-08-06T08:35:04Z</time>
      </trkpt>
      <trkpt lat="47.87973" lon="6.82941">
        <ele>859.2</ele>
        <time>2020-08-06T08:35:09Z</time>
      </trkpt>
      <trkpt lat="47.8797" lon="6.82929">
        <ele>860.2</ele>
        <time>2020-08-06T08:35:14Z</time>
      </trkpt>
      <trkpt lat="47.87966" lon="6.82914">
        <ele>861.4</ele>
        <time>2020-08-06T08:35:20Z</time>
      </trkpt>
      <trkpt lat="47.87963" lon="6.82903">
        <ele>862.4</ele>
        <time>2020-08-06T08:35:24Z</time>
      </trkpt>
      <trkpt lat="47.87959" lon="6.82892">
        <ele>863.6</ele>
        <time>2020-08-06T08:35:29Z</time>
      </trkpt>
      <trkpt lat="47.87952" lon="6.82877">
        <ele>864.6</ele>
        <time>2020-08-06T08:35:35Z</time>
      </trkpt>
      <trkpt lat="47.87949" lon="6.82868">
        <ele>865.6</ele>
        <time>2020-08-06T08:35:39Z</time>
      </trkpt>
      <trkpt lat="47.87947" lon="6.8286">
        <ele>866.6</ele>
        <time>2020-08-06T08:35:43Z</time>
      </trkpt>
      <trkpt lat="47.87943" lon="6.82853">
        <ele>867.6</ele>
        <time>2020-08-06T08:35:47Z</time>
      </trkpt>
      <trkpt lat="47.8794" lon="6.82845">
        <ele>868.8</ele>
        <time>2020-08-06T08:35:51Z</time>
      </trkpt>
      <trkpt lat="47.87937" lon="6.82836">
        <ele>870</ele>
        <time>2020-08-06T08:35:55Z</time>
      </trkpt>
      <trkpt lat="47.87937" lon="6.82831">
        <ele>870.4</ele>
        <time>2020-08-06T08:35:57Z</time>
      </trkpt>
      <trkpt lat="47.87938" lon="6.82825">
        <ele>871</ele>
        <time>2020-08-06T08:36:00Z</time>
      </trkpt>
      <trkpt lat="47.87938" lon="6.8282">
        <ele>872</ele>
        <time>2020-08-06T08:36:05Z</time>
      </trkpt>
      <trkpt lat="47.87938" lon="6.82818">
        <ele>873</ele>
        <time>2020-08-06T08:36:18Z</time>
      </trkpt>
      <trkpt lat="47.8794" lon="6.82816">
        <ele>873.2</ele>
        <time>2020-08-06T08:36:52Z</time>
      </trkpt>
      <trkpt lat="47.87945" lon="6.82822">
        <ele>873</ele>
        <time>2020-08-06T08:38:18Z</time>
      </trkpt>
      <trkpt lat="47.87949" lon="6.82826">
        <ele>873.2</ele>
        <time>2020-08-06T08:38:22Z</time>
      </trkpt>
      <trkpt lat="47.87982" lon="6.82873">
        <ele>873.2</ele>
        <time>2020-08-06T08:38:43Z</time>
      </trkpt>
      <trkpt lat="47.88023" lon="6.82929">
        <ele>874</ele>
        <time>2020-08-06T08:39:02Z</time>
      </trkpt>
      <trkpt lat="47.88025" lon="6.82932">
        <ele>874.2</ele>
        <time>2020-08-06T08:39:03Z</time>
      </trkpt>
      <trkpt lat="47.88036" lon="6.82949">
        <ele>875.2</ele>
        <time>2020-08-06T08:39:09Z</time>
      </trkpt>
      <trkpt lat="47.88042" lon="6.82957">
        <ele>875.8</ele>
        <time>2020-08-06T08:39:13Z</time>
      </trkpt>
      <trkpt lat="47.88058" lon="6.82981">
        <ele>876</ele>
        <time>2020-08-06T08:39:22Z</time>
      </trkpt>
      <trkpt lat="47.8807" lon="6.8299">
        <ele>876.2</ele>
        <time>2020-08-06T08:39:30Z</time>
      </trkpt>
      <trkpt lat="47.88071" lon="6.82991">
        <ele>877.2</ele>
        <time>2020-08-06T08:39:36Z</time>
      </trkpt>
      <trkpt lat="47.88072" lon="6.82991">
        <ele>877.6</ele>
        <time>2020-08-06T08:39:42Z</time>
      </trkpt>
      <trkpt lat="47.88089" lon="6.83008">
        <ele>877.8</ele>
        <time>2020-08-06T08:40:08Z</time>
      </trkpt>
      <trkpt lat="47.881" lon="6.8302">
        <ele>879</ele>
        <time>2020-08-06T08:40:14Z</time>
      </trkpt>
      <trkpt lat="47.88114" lon="6.83038">
        <ele>879.8</ele>
        <time>2020-08-06T08:40:20Z</time>
      </trkpt>
      <trkpt lat="47.8813" lon="6.83061">
        <ele>880.8</ele>
        <time>2020-08-06T08:40:26Z</time>
      </trkpt>
      <trkpt lat="47.88152" lon="6.83082">
        <ele>878.8</ele>
        <time>2020-08-06T08:40:33Z</time>
      </trkpt>
      <trkpt lat="47.88163" lon="6.83092">
        <ele>883</ele>
        <time>2020-08-06T08:40:37Z</time>
      </trkpt>
      <trkpt lat="47.88181" lon="6.83107">
        <ele>884</ele>
        <time>2020-08-06T08:40:43Z</time>
      </trkpt>
      <trkpt lat="47.88214" lon="6.83128">
        <ele>885</ele>
        <time>2020-08-06T08:40:54Z</time>
      </trkpt>
      <trkpt lat="47.88226" lon="6.83137">
        <ele>886</ele>
        <time>2020-08-06T08:40:59Z</time>
      </trkpt>
      <trkpt lat="47.88248" lon="6.83163">
        <ele>887</ele>
        <time>2020-08-06T08:41:08Z</time>
      </trkpt>
      <trkpt lat="47.88295" lon="6.83211">
        <ele>887.6</ele>
        <time>2020-08-06T08:41:26Z</time>
      </trkpt>
      <trkpt lat="47.8834" lon="6.83257">
        <ele>887.2</ele>
        <time>2020-08-06T08:41:41Z</time>
      </trkpt>
      <trkpt lat="47.88376" lon="6.83325">
        <ele>886.4</ele>
        <time>2020-08-06T08:41:54Z</time>
      </trkpt>
      <trkpt lat="47.88405" lon="6.83396">
        <ele>886.2</ele>
        <time>2020-08-06T08:42:08Z</time>
      </trkpt>
      <trkpt lat="47.88428" lon="6.83436">
        <ele>888</ele>
        <time>2020-08-06T08:42:21Z</time>
      </trkpt>
      <trkpt lat="47.88431" lon="6.83442">
        <ele>889.2</ele>
        <time>2020-08-06T08:42:23Z</time>
      </trkpt>
      <trkpt lat="47.88437" lon="6.83453">
        <ele>890.4</ele>
        <time>2020-08-06T08:42:27Z</time>
      </trkpt>
      <trkpt lat="47.88444" lon="6.83463">
        <ele>891.4</ele>
        <time>2020-08-06T08:42:31Z</time>
      </trkpt>
      <trkpt lat="47.88455" lon="6.83473">
        <ele>892.4</ele>
        <time>2020-08-06T08:42:37Z</time>
      </trkpt>
      <trkpt lat="47.88465" lon="6.83479">
        <ele>893.4</ele>
        <time>2020-08-06T08:42:42Z</time>
      </trkpt>
      <trkpt lat="47.88507" lon="6.83507">
        <ele>894.4</ele>
        <time>2020-08-06T08:42:58Z</time>
      </trkpt>
      <trkpt lat="47.88541" lon="6.83531">
        <ele>895.4</ele>
        <time>2020-08-06T08:43:11Z</time>
      </trkpt>
      <trkpt lat="47.88544" lon="6.83533">
        <ele>895.6</ele>
        <time>2020-08-06T08:43:12Z</time>
      </trkpt>
      <trkpt lat="47.88557" lon="6.83547">
        <ele>896.2</ele>
        <time>2020-08-06T08:43:17Z</time>
      </trkpt>
      <trkpt lat="47.88569" lon="6.8356">
        <ele>897.2</ele>
        <time>2020-08-06T08:43:22Z</time>
      </trkpt>
      <trkpt lat="47.88584" lon="6.83579">
        <ele>898.4</ele>
        <time>2020-08-06T08:43:29Z</time>
      </trkpt>
      <trkpt lat="47.88602" lon="6.83598">
        <ele>899.2</ele>
        <time>2020-08-06T08:43:39Z</time>
      </trkpt>
      <trkpt lat="47.88614" lon="6.83618">
        <ele>900.4</ele>
        <time>2020-08-06T08:43:45Z</time>
      </trkpt>
      <trkpt lat="47.88647" lon="6.83663">
        <ele>901.4</ele>
        <time>2020-08-06T08:44:01Z</time>
      </trkpt>
      <trkpt lat="47.88662" lon="6.83674">
        <ele>902.4</ele>
        <time>2020-08-06T08:44:08Z</time>
      </trkpt>
      <trkpt lat="47.88673" lon="6.83685">
        <ele>903.6</ele>
        <time>2020-08-06T08:44:13Z</time>
      </trkpt>
      <trkpt lat="47.88688" lon="6.83698">
        <ele>904.6</ele>
        <time>2020-08-06T08:44:19Z</time>
      </trkpt>
      <trkpt lat="47.88698" lon="6.83703">
        <ele>905.6</ele>
        <time>2020-08-06T08:44:30Z</time>
      </trkpt>
      <trkpt lat="47.88698" lon="6.83703">
        <ele>906</ele>
        <time>2020-08-06T08:45:01Z</time>
      </trkpt>
      <trkpt lat="47.88699" lon="6.83702">
        <ele>906</ele>
        <time>2020-08-06T08:45:50Z</time>
      </trkpt>
      <trkpt lat="47.887" lon="6.83702">
        <ele>906</ele>
        <time>2020-08-06T08:46:08Z</time>
      </trkpt>
      <trkpt lat="47.8875" lon="6.83734">
        <ele>905.4</ele>
        <time>2020-08-06T08:46:29Z</time>
      </trkpt>
      <trkpt lat="47.88774" lon="6.83748">
        <ele>904.6</ele>
        <time>2020-08-06T08:46:36Z</time>
      </trkpt>
      <trkpt lat="47.88805" lon="6.83771">
        <ele>903.6</ele>
        <time>2020-08-06T08:46:45Z</time>
      </trkpt>
      <trkpt lat="47.8882" lon="6.83785">
        <ele>902.4</ele>
        <time>2020-08-06T08:46:49Z</time>
      </trkpt>
      <trkpt lat="47.88842" lon="6.83812">
        <ele>901</ele>
        <time>2020-08-06T08:46:55Z</time>
      </trkpt>
      <trkpt lat="47.88862" lon="6.8384">
        <ele>899.8</ele>
        <time>2020-08-06T08:47:00Z</time>
      </trkpt>
      <trkpt lat="47.88877" lon="6.83861">
        <ele>898.6</ele>
        <time>2020-08-06T08:47:04Z</time>
      </trkpt>
      <trkpt lat="47.88888" lon="6.83874">
        <ele>897.4</ele>
        <time>2020-08-06T08:47:07Z</time>
      </trkpt>
      <trkpt lat="47.88898" lon="6.83888">
        <ele>896.2</ele>
        <time>2020-08-06T08:47:10Z</time>
      </trkpt>
      <trkpt lat="47.88907" lon="6.83901">
        <ele>895</ele>
        <time>2020-08-06T08:47:13Z</time>
      </trkpt>
      <trkpt lat="47.88912" lon="6.83913">
        <ele>894.6</ele>
        <time>2020-08-06T08:47:15Z</time>
      </trkpt>
      <trkpt lat="47.8892" lon="6.83933">
        <ele>894</ele>
        <time>2020-08-06T08:47:18Z</time>
      </trkpt>
      <trkpt lat="47.88934" lon="6.83969">
        <ele>893</ele>
        <time>2020-08-06T08:47:23Z</time>
      </trkpt>
      <trkpt lat="47.88943" lon="6.83989">
        <ele>892</ele>
        <time>2020-08-06T08:47:26Z</time>
      </trkpt>
      <trkpt lat="47.88946" lon="6.83995">
        <ele>891.6</ele>
        <time>2020-08-06T08:47:27Z</time>
      </trkpt>
      <trkpt lat="47.88952" lon="6.84006">
        <ele>891.2</ele>
        <time>2020-08-06T08:47:29Z</time>
      </trkpt>
      <trkpt lat="47.88959" lon="6.84016">
        <ele>890.6</ele>
        <time>2020-08-06T08:47:31Z</time>
      </trkpt>
      <trkpt lat="47.88968" lon="6.84031">
        <ele>889.2</ele>
        <time>2020-08-06T08:47:35Z</time>
      </trkpt>
      <trkpt lat="47.88969" lon="6.84031">
        <ele>887.8</ele>
        <time>2020-08-06T08:47:39Z</time>
      </trkpt>
      <trkpt lat="47.88969" lon="6.84031">
        <ele>886.8</ele>
        <time>2020-08-06T08:47:42Z</time>
      </trkpt>
      <trkpt lat="47.88971" lon="6.8403">
        <ele>886.6</ele>
        <time>2020-08-06T08:48:12Z</time>
      </trkpt>
      <trkpt lat="47.88977" lon="6.8403">
        <ele>886.6</ele>
        <time>2020-08-06T08:48:16Z</time>
      </trkpt>
      <trkpt lat="47.89016" lon="6.84048">
        <ele>888</ele>
        <time>2020-08-06T08:48:33Z</time>
      </trkpt>
      <trkpt lat="47.89037" lon="6.84062">
        <ele>889</ele>
        <time>2020-08-06T08:48:42Z</time>
      </trkpt>
      <trkpt lat="47.89052" lon="6.84065">
        <ele>890.2</ele>
        <time>2020-08-06T08:48:47Z</time>
      </trkpt>
      <trkpt lat="47.89069" lon="6.84071">
        <ele>891.2</ele>
        <time>2020-08-06T08:48:54Z</time>
      </trkpt>
      <trkpt lat="47.8908" lon="6.84076">
        <ele>892.4</ele>
        <time>2020-08-06T08:48:59Z</time>
      </trkpt>
      <trkpt lat="47.89093" lon="6.84082">
        <ele>893.4</ele>
        <time>2020-08-06T08:49:05Z</time>
      </trkpt>
      <trkpt lat="47.89109" lon="6.8409">
        <ele>894.6</ele>
        <time>2020-08-06T08:49:12Z</time>
      </trkpt>
      <trkpt lat="47.89118" lon="6.84098">
        <ele>895.8</ele>
        <time>2020-08-06T08:49:16Z</time>
      </trkpt>
      <trkpt lat="47.89125" lon="6.84105">
        <ele>897</ele>
        <time>2020-08-06T08:49:19Z</time>
      </trkpt>
      <trkpt lat="47.89135" lon="6.84114">
        <ele>898</ele>
        <time>2020-08-06T08:49:24Z</time>
      </trkpt>
      <trkpt lat="47.89147" lon="6.84124">
        <ele>899</ele>
        <time>2020-08-06T08:49:30Z</time>
      </trkpt>
      <trkpt lat="47.89155" lon="6.84134">
        <ele>900.2</ele>
        <time>2020-08-06T08:49:34Z</time>
      </trkpt>
      <trkpt lat="47.89161" lon="6.84146">
        <ele>901.6</ele>
        <time>2020-08-06T08:49:38Z</time>
      </trkpt>
      <trkpt lat="47.89167" lon="6.84159">
        <ele>902.6</ele>
        <time>2020-08-06T08:49:42Z</time>
      </trkpt>
      <trkpt lat="47.89176" lon="6.84173">
        <ele>903.8</ele>
        <time>2020-08-06T08:49:47Z</time>
      </trkpt>
      <trkpt lat="47.89188" lon="6.84183">
        <ele>905</ele>
        <time>2020-08-06T08:49:52Z</time>
      </trkpt>
      <trkpt lat="47.89198" lon="6.84194">
        <ele>906</ele>
        <time>2020-08-06T08:49:57Z</time>
      </trkpt>
      <trkpt lat="47.89206" lon="6.84205">
        <ele>907.4</ele>
        <time>2020-08-06T08:50:02Z</time>
      </trkpt>
      <trkpt lat="47.89213" lon="6.84215">
        <ele>908.6</ele>
        <time>2020-08-06T08:50:06Z</time>
      </trkpt>
      <trkpt lat="47.89223" lon="6.84226">
        <ele>909.8</ele>
        <time>2020-08-06T08:50:11Z</time>
      </trkpt>
      <trkpt lat="47.89233" lon="6.84235">
        <ele>911</ele>
        <time>2020-08-06T08:50:17Z</time>
      </trkpt>
      <trkpt lat="47.8924" lon="6.84242">
        <ele>912</ele>
        <time>2020-08-06T08:50:21Z</time>
      </trkpt>
      <trkpt lat="47.8925" lon="6.84252">
        <ele>913.4</ele>
        <time>2020-08-06T08:50:26Z</time>
      </trkpt>
      <trkpt lat="47.89257" lon="6.84262">
        <ele>914.4</ele>
        <time>2020-08-06T08:50:30Z</time>
      </trkpt>
      <trkpt lat="47.89264" lon="6.84271">
        <ele>915.4</ele>
        <time>2020-08-06T08:50:34Z</time>
      </trkpt>
      <trkpt lat="47.89274" lon="6.84283">
        <ele>916.4</ele>
        <time>2020-08-06T08:50:40Z</time>
      </trkpt>
      <trkpt lat="47.89286" lon="6.84295">
        <ele>917.8</ele>
        <time>2020-08-06T08:50:46Z</time>
      </trkpt>
      <trkpt lat="47.89293" lon="6.84305">
        <ele>918.8</ele>
        <time>2020-08-06T08:50:51Z</time>
      </trkpt>
      <trkpt lat="47.89303" lon="6.84314">
        <ele>919.8</ele>
        <time>2020-08-06T08:50:56Z</time>
      </trkpt>
      <trkpt lat="47.8931" lon="6.84324">
        <ele>921.2</ele>
        <time>2020-08-06T08:51:01Z</time>
      </trkpt>
      <trkpt lat="47.89319" lon="6.84336">
        <ele>922.2</ele>
        <time>2020-08-06T08:51:06Z</time>
      </trkpt>
      <trkpt lat="47.89328" lon="6.84348">
        <ele>923.4</ele>
        <time>2020-08-06T08:51:12Z</time>
      </trkpt>
      <trkpt lat="47.89337" lon="6.8436">
        <ele>924.6</ele>
        <time>2020-08-06T08:51:18Z</time>
      </trkpt>
      <trkpt lat="47.89346" lon="6.84366">
        <ele>925.6</ele>
        <time>2020-08-06T08:51:22Z</time>
      </trkpt>
      <trkpt lat="47.89355" lon="6.84379">
        <ele>926.8</ele>
        <time>2020-08-06T08:51:28Z</time>
      </trkpt>
      <trkpt lat="47.89362" lon="6.84388">
        <ele>927.8</ele>
        <time>2020-08-06T08:51:33Z</time>
      </trkpt>
      <trkpt lat="47.89368" lon="6.84395">
        <ele>929.2</ele>
        <time>2020-08-06T08:51:37Z</time>
      </trkpt>
      <trkpt lat="47.89375" lon="6.84402">
        <ele>930</ele>
        <time>2020-08-06T08:51:41Z</time>
      </trkpt>
      <trkpt lat="47.89377" lon="6.84405">
        <ele>930.4</ele>
        <time>2020-08-06T08:51:42Z</time>
      </trkpt>
      <trkpt lat="47.89385" lon="6.84415">
        <ele>931.4</ele>
        <time>2020-08-06T08:51:47Z</time>
      </trkpt>
      <trkpt lat="47.89393" lon="6.84423">
        <ele>932.6</ele>
        <time>2020-08-06T08:51:51Z</time>
      </trkpt>
      <trkpt lat="47.894" lon="6.84432">
        <ele>933.6</ele>
        <time>2020-08-06T08:51:55Z</time>
      </trkpt>
      <trkpt lat="47.89411" lon="6.84446">
        <ele>934.8</ele>
        <time>2020-08-06T08:52:01Z</time>
      </trkpt>
      <trkpt lat="47.89418" lon="6.84454">
        <ele>935.6</ele>
        <time>2020-08-06T08:52:05Z</time>
      </trkpt>
      <trkpt lat="47.89425" lon="6.84467">
        <ele>937</ele>
        <time>2020-08-06T08:52:10Z</time>
      </trkpt>
      <trkpt lat="47.89429" lon="6.84475">
        <ele>938.2</ele>
        <time>2020-08-06T08:52:14Z</time>
      </trkpt>
      <trkpt lat="47.89434" lon="6.84481">
        <ele>939.4</ele>
        <time>2020-08-06T08:52:18Z</time>
      </trkpt>
      <trkpt lat="47.89438" lon="6.84488">
        <ele>940.6</ele>
        <time>2020-08-06T08:52:22Z</time>
      </trkpt>
      <trkpt lat="47.89442" lon="6.84495">
        <ele>941.6</ele>
        <time>2020-08-06T08:52:26Z</time>
      </trkpt>
      <trkpt lat="47.89443" lon="6.84497">
        <ele>941.8</ele>
        <time>2020-08-06T08:52:27Z</time>
      </trkpt>
      <trkpt lat="47.89444" lon="6.84499">
        <ele>942.2</ele>
        <time>2020-08-06T08:52:28Z</time>
      </trkpt>
      <trkpt lat="47.89446" lon="6.84503">
        <ele>942.6</ele>
        <time>2020-08-06T08:52:30Z</time>
      </trkpt>
      <trkpt lat="47.89448" lon="6.84507">
        <ele>943.2</ele>
        <time>2020-08-06T08:52:32Z</time>
      </trkpt>
      <trkpt lat="47.89451" lon="6.84512">
        <ele>943.8</ele>
        <time>2020-08-06T08:52:34Z</time>
      </trkpt>
      <trkpt lat="47.89454" lon="6.84519">
        <ele>944.8</ele>
        <time>2020-08-06T08:52:39Z</time>
      </trkpt>
      <trkpt lat="47.89456" lon="6.84524">
        <ele>945.8</ele>
        <time>2020-08-06T08:52:42Z</time>
      </trkpt>
      <trkpt lat="47.8946" lon="6.84531">
        <ele>947</ele>
        <time>2020-08-06T08:52:46Z</time>
      </trkpt>
      <trkpt lat="47.89464" lon="6.84536">
        <ele>948.2</ele>
        <time>2020-08-06T08:52:50Z</time>
      </trkpt>
      <trkpt lat="47.89469" lon="6.84544">
        <ele>949.2</ele>
        <time>2020-08-06T08:52:55Z</time>
      </trkpt>
      <trkpt lat="47.89472" lon="6.8455">
        <ele>950.2</ele>
        <time>2020-08-06T08:53:00Z</time>
      </trkpt>
      <trkpt lat="47.89475" lon="6.84556">
        <ele>951.2</ele>
        <time>2020-08-06T08:53:04Z</time>
      </trkpt>
      <trkpt lat="47.89476" lon="6.84558">
        <ele>951.4</ele>
        <time>2020-08-06T08:53:05Z</time>
      </trkpt>
      <trkpt lat="47.89478" lon="6.84569">
        <ele>952.6</ele>
        <time>2020-08-06T08:53:10Z</time>
      </trkpt>
      <trkpt lat="47.89481" lon="6.84575">
        <ele>953.8</ele>
        <time>2020-08-06T08:53:13Z</time>
      </trkpt>
      <trkpt lat="47.89483" lon="6.84586">
        <ele>955</ele>
        <time>2020-08-06T08:53:18Z</time>
      </trkpt>
      <trkpt lat="47.89484" lon="6.84592">
        <ele>956</ele>
        <time>2020-08-06T08:53:21Z</time>
      </trkpt>
      <trkpt lat="47.89485" lon="6.84601">
        <ele>957.2</ele>
        <time>2020-08-06T08:53:26Z</time>
      </trkpt>
      <trkpt lat="47.89486" lon="6.84612">
        <ele>958.4</ele>
        <time>2020-08-06T08:53:31Z</time>
      </trkpt>
      <trkpt lat="47.89484" lon="6.84622">
        <ele>959.4</ele>
        <time>2020-08-06T08:53:35Z</time>
      </trkpt>
      <trkpt lat="47.8948" lon="6.84637">
        <ele>960.6</ele>
        <time>2020-08-06T08:53:41Z</time>
      </trkpt>
      <trkpt lat="47.89471" lon="6.8465">
        <ele>961.6</ele>
        <time>2020-08-06T08:53:47Z</time>
      </trkpt>
      <trkpt lat="47.89463" lon="6.84664">
        <ele>963</ele>
        <time>2020-08-06T08:53:54Z</time>
      </trkpt>
      <trkpt lat="47.89452" lon="6.84672">
        <ele>964.2</ele>
        <time>2020-08-06T08:54:01Z</time>
      </trkpt>
      <trkpt lat="47.8944" lon="6.84676">
        <ele>965.2</ele>
        <time>2020-08-06T08:54:08Z</time>
      </trkpt>
      <trkpt lat="47.89425" lon="6.84673">
        <ele>966.4</ele>
        <time>2020-08-06T08:54:14Z</time>
      </trkpt>
      <trkpt lat="47.89422" lon="6.84676">
        <ele>966.6</ele>
        <time>2020-08-06T08:54:24Z</time>
      </trkpt>
      <trkpt lat="47.89424" lon="6.84675">
        <ele>966.8</ele>
        <time>2020-08-06T08:54:29Z</time>
      </trkpt>
      <trkpt lat="47.89424" lon="6.84673">
        <ele>967</ele>
        <time>2020-08-06T08:54:46Z</time>
      </trkpt>
      <trkpt lat="47.89428" lon="6.84669">
        <ele>967</ele>
        <time>2020-08-06T08:55:46Z</time>
      </trkpt>
      <trkpt lat="47.89428" lon="6.84669">
        <ele>966.6</ele>
        <time>2020-08-06T08:56:29Z</time>
      </trkpt>
      <trkpt lat="47.89428" lon="6.84669">
        <ele>967</ele>
        <time>2020-08-06T08:57:11Z</time>
      </trkpt>
      <trkpt lat="47.89428" lon="6.84669">
        <ele>966.8</ele>
        <time>2020-08-06T08:57:55Z</time>
      </trkpt>
      <trkpt lat="47.89428" lon="6.84668">
        <ele>966.8</ele>
        <time>2020-08-06T08:58:48Z</time>
      </trkpt>
      <trkpt lat="47.89428" lon="6.84668">
        <ele>966.6</ele>
        <time>2020-08-06T08:59:43Z</time>
      </trkpt>
      <trkpt lat="47.89428" lon="6.8467">
        <ele>966.4</ele>
        <time>2020-08-06T09:00:47Z</time>
      </trkpt>
      <trkpt lat="47.89447" lon="6.84671">
        <ele>966.2</ele>
        <time>2020-08-06T09:01:00Z</time>
      </trkpt>
      <trkpt lat="47.89469" lon="6.84649">
        <ele>966</ele>
        <time>2020-08-06T09:01:07Z</time>
      </trkpt>
      <trkpt lat="47.89475" lon="6.84642">
        <ele>965.4</ele>
        <time>2020-08-06T09:01:09Z</time>
      </trkpt>
      <trkpt lat="47.8948" lon="6.84633">
        <ele>965.2</ele>
        <time>2020-08-06T09:01:11Z</time>
      </trkpt>
      <trkpt lat="47.89483" lon="6.84624">
        <ele>964.2</ele>
        <time>2020-08-06T09:01:13Z</time>
      </trkpt>
      <trkpt lat="47.89485" lon="6.8461">
        <ele>963</ele>
        <time>2020-08-06T09:01:16Z</time>
      </trkpt>
      <trkpt lat="47.89483" lon="6.84597">
        <ele>961.8</ele>
        <time>2020-08-06T09:01:19Z</time>
      </trkpt>
      <trkpt lat="47.89481" lon="6.84584">
        <ele>960.4</ele>
        <time>2020-08-06T09:01:22Z</time>
      </trkpt>
      <trkpt lat="47.89478" lon="6.84571">
        <ele>958.6</ele>
        <time>2020-08-06T09:01:25Z</time>
      </trkpt>
      <trkpt lat="47.89476" lon="6.84564">
        <ele>957.2</ele>
        <time>2020-08-06T09:01:27Z</time>
      </trkpt>
      <trkpt lat="47.89473" lon="6.84558">
        <ele>956</ele>
        <time>2020-08-06T09:01:29Z</time>
      </trkpt>
      <trkpt lat="47.89469" lon="6.84552">
        <ele>954.6</ele>
        <time>2020-08-06T09:01:31Z</time>
      </trkpt>
      <trkpt lat="47.89465" lon="6.84546">
        <ele>953.4</ele>
        <time>2020-08-06T09:01:33Z</time>
      </trkpt>
      <trkpt lat="47.89458" lon="6.84536">
        <ele>951.6</ele>
        <time>2020-08-06T09:01:36Z</time>
      </trkpt>
      <trkpt lat="47.89456" lon="6.84529">
        <ele>950.4</ele>
        <time>2020-08-06T09:01:38Z</time>
      </trkpt>
      <trkpt lat="47.89453" lon="6.84521">
        <ele>949.2</ele>
        <time>2020-08-06T09:01:40Z</time>
      </trkpt>
      <trkpt lat="47.89447" lon="6.84511">
        <ele>947.8</ele>
        <time>2020-08-06T09:01:43Z</time>
      </trkpt>
      <trkpt lat="47.89443" lon="6.84504">
        <ele>946.8</ele>
        <time>2020-08-06T09:01:45Z</time>
      </trkpt>
      <trkpt lat="47.8944" lon="6.84498">
        <ele>945.8</ele>
        <time>2020-08-06T09:01:47Z</time>
      </trkpt>
      <trkpt lat="47.89436" lon="6.84489">
        <ele>944.6</ele>
        <time>2020-08-06T09:01:49Z</time>
      </trkpt>
      <trkpt lat="47.89435" lon="6.84485">
        <ele>944.2</ele>
        <time>2020-08-06T09:01:50Z</time>
      </trkpt>
      <trkpt lat="47.89437" lon="6.84481">
        <ele>943.2</ele>
        <time>2020-08-06T09:01:52Z</time>
      </trkpt>
      <trkpt lat="47.8944" lon="6.84481">
        <ele>942</ele>
        <time>2020-08-06T09:01:54Z</time>
      </trkpt>
      <trkpt lat="47.89441" lon="6.84483">
        <ele>940.8</ele>
        <time>2020-08-06T09:01:56Z</time>
      </trkpt>
      <trkpt lat="47.89446" lon="6.84488">
        <ele>939.8</ele>
        <time>2020-08-06T09:02:00Z</time>
      </trkpt>
      <trkpt lat="47.89459" lon="6.84515">
        <ele>941</ele>
        <time>2020-08-06T09:02:12Z</time>
      </trkpt>
      <trkpt lat="47.89466" lon="6.84521">
        <ele>942</ele>
        <time>2020-08-06T09:02:16Z</time>
      </trkpt>
      <trkpt lat="47.8947" lon="6.84521">
        <ele>942.2</ele>
        <time>2020-08-06T09:02:18Z</time>
      </trkpt>
      <trkpt lat="47.89475" lon="6.84519">
        <ele>943</ele>
        <time>2020-08-06T09:02:21Z</time>
      </trkpt>
      <trkpt lat="47.89484" lon="6.84508">
        <ele>944.2</ele>
        <time>2020-08-06T09:02:27Z</time>
      </trkpt>
      <trkpt lat="47.8949" lon="6.84496">
        <ele>945.2</ele>
        <time>2020-08-06T09:02:32Z</time>
      </trkpt>
      <trkpt lat="47.89492" lon="6.84489">
        <ele>946.2</ele>
        <time>2020-08-06T09:02:35Z</time>
      </trkpt>
      <trkpt lat="47.89496" lon="6.84476">
        <ele>947.2</ele>
        <time>2020-08-06T09:02:40Z</time>
      </trkpt>
      <trkpt lat="47.89503" lon="6.84459">
        <ele>948.4</ele>
        <time>2020-08-06T09:02:47Z</time>
      </trkpt>
      <trkpt lat="47.89508" lon="6.84447">
        <ele>949.4</ele>
        <time>2020-08-06T09:02:52Z</time>
      </trkpt>
      <trkpt lat="47.8951" lon="6.84443">
        <ele>949.8</ele>
        <time>2020-08-06T09:02:54Z</time>
      </trkpt>
      <trkpt lat="47.89514" lon="6.84433">
        <ele>950.4</ele>
        <time>2020-08-06T09:02:58Z</time>
      </trkpt>
      <trkpt lat="47.89519" lon="6.84424">
        <ele>951.4</ele>
        <time>2020-08-06T09:03:02Z</time>
      </trkpt>
      <trkpt lat="47.89526" lon="6.84412">
        <ele>952.6</ele>
        <time>2020-08-06T09:03:07Z</time>
      </trkpt>
      <trkpt lat="47.8953" lon="6.844">
        <ele>953.6</ele>
        <time>2020-08-06T09:03:11Z</time>
      </trkpt>
      <trkpt lat="47.89538" lon="6.84384">
        <ele>954.6</ele>
        <time>2020-08-06T09:03:17Z</time>
      </trkpt>
      <trkpt lat="47.89542" lon="6.84369">
        <ele>955.8</ele>
        <time>2020-08-06T09:03:21Z</time>
      </trkpt>
      <trkpt lat="47.89548" lon="6.84343">
        <ele>956.8</ele>
        <time>2020-08-06T09:03:29Z</time>
      </trkpt>
      <trkpt lat="47.89552" lon="6.84333">
        <ele>957.8</ele>
        <time>2020-08-06T09:03:33Z</time>
      </trkpt>
      <trkpt lat="47.89554" lon="6.84318">
        <ele>958.8</ele>
        <time>2020-08-06T09:03:37Z</time>
      </trkpt>
      <trkpt lat="47.89556" lon="6.84303">
        <ele>960</ele>
        <time>2020-08-06T09:03:42Z</time>
      </trkpt>
      <trkpt lat="47.89556" lon="6.84293">
        <ele>960.8</ele>
        <time>2020-08-06T09:03:46Z</time>
      </trkpt>
      <trkpt lat="47.89555" lon="6.84288">
        <ele>961.2</ele>
        <time>2020-08-06T09:03:48Z</time>
      </trkpt>
      <trkpt lat="47.89555" lon="6.84281">
        <ele>962</ele>
        <time>2020-08-06T09:03:51Z</time>
      </trkpt>
      <trkpt lat="47.89556" lon="6.84268">
        <ele>963.2</ele>
        <time>2020-08-06T09:03:55Z</time>
      </trkpt>
      <trkpt lat="47.89557" lon="6.84257">
        <ele>964.2</ele>
        <time>2020-08-06T09:03:59Z</time>
      </trkpt>
      <trkpt lat="47.89557" lon="6.84241">
        <ele>965.2</ele>
        <time>2020-08-06T09:04:04Z</time>
      </trkpt>
      <trkpt lat="47.89557" lon="6.84224">
        <ele>966.2</ele>
        <time>2020-08-06T09:04:09Z</time>
      </trkpt>
      <trkpt lat="47.89559" lon="6.84204">
        <ele>967.2</ele>
        <time>2020-08-06T09:04:15Z</time>
      </trkpt>
      <trkpt lat="47.89559" lon="6.84187">
        <ele>968.4</ele>
        <time>2020-08-06T09:04:20Z</time>
      </trkpt>
      <trkpt lat="47.8956" lon="6.84169">
        <ele>969.6</ele>
        <time>2020-08-06T09:04:26Z</time>
      </trkpt>
      <trkpt lat="47.89562" lon="6.84156">
        <ele>970.4</ele>
        <time>2020-08-06T09:04:31Z</time>
      </trkpt>
      <trkpt lat="47.89562" lon="6.84141">
        <ele>971.6</ele>
        <time>2020-08-06T09:04:36Z</time>
      </trkpt>
      <trkpt lat="47.89563" lon="6.84123">
        <ele>972.6</ele>
        <time>2020-08-06T09:04:42Z</time>
      </trkpt>
      <trkpt lat="47.89564" lon="6.84106">
        <ele>973.6</ele>
        <time>2020-08-06T09:04:47Z</time>
      </trkpt>
      <trkpt lat="47.89567" lon="6.8409">
        <ele>974.6</ele>
        <time>2020-08-06T09:04:52Z</time>
      </trkpt>
      <trkpt lat="47.89571" lon="6.84078">
        <ele>975.6</ele>
        <time>2020-08-06T09:04:56Z</time>
      </trkpt>
      <trkpt lat="47.89575" lon="6.84065">
        <ele>976.4</ele>
        <time>2020-08-06T09:05:00Z</time>
      </trkpt>
      <trkpt lat="47.8958" lon="6.84051">
        <ele>977.6</ele>
        <time>2020-08-06T09:05:04Z</time>
      </trkpt>
      <trkpt lat="47.89581" lon="6.84048">
        <ele>977.8</ele>
        <time>2020-08-06T09:05:05Z</time>
      </trkpt>
      <trkpt lat="47.89586" lon="6.84037">
        <ele>978.6</ele>
        <time>2020-08-06T09:05:09Z</time>
      </trkpt>
      <trkpt lat="47.89593" lon="6.84022">
        <ele>979.6</ele>
        <time>2020-08-06T09:05:15Z</time>
      </trkpt>
      <trkpt lat="47.89598" lon="6.8401">
        <ele>980.8</ele>
        <time>2020-08-06T09:05:20Z</time>
      </trkpt>
      <trkpt lat="47.89603" lon="6.83998">
        <ele>981.8</ele>
        <time>2020-08-06T09:05:25Z</time>
      </trkpt>
      <trkpt lat="47.89607" lon="6.83982">
        <ele>982.8</ele>
        <time>2020-08-06T09:05:30Z</time>
      </trkpt>
      <trkpt lat="47.89611" lon="6.83972">
        <ele>983.8</ele>
        <time>2020-08-06T09:05:34Z</time>
      </trkpt>
      <trkpt lat="47.89618" lon="6.83953">
        <ele>985</ele>
        <time>2020-08-06T09:05:40Z</time>
      </trkpt>
      <trkpt lat="47.89623" lon="6.83938">
        <ele>986.2</ele>
        <time>2020-08-06T09:05:45Z</time>
      </trkpt>
      <trkpt lat="47.89625" lon="6.83925">
        <ele>987</ele>
        <time>2020-08-06T09:05:49Z</time>
      </trkpt>
      <trkpt lat="47.89629" lon="6.83912">
        <ele>988</ele>
        <time>2020-08-06T09:05:54Z</time>
      </trkpt>
      <trkpt lat="47.89631" lon="6.83893">
        <ele>989.2</ele>
        <time>2020-08-06T09:06:01Z</time>
      </trkpt>
      <trkpt lat="47.89631" lon="6.83882">
        <ele>990.4</ele>
        <time>2020-08-06T09:06:06Z</time>
      </trkpt>
      <trkpt lat="47.89629" lon="6.8387">
        <ele>990.8</ele>
        <time>2020-08-06T09:06:10Z</time>
      </trkpt>
      <trkpt lat="47.89634" lon="6.83862">
        <ele>991.4</ele>
        <time>2020-08-06T09:06:14Z</time>
      </trkpt>
      <trkpt lat="47.89639" lon="6.83845">
        <ele>992.4</ele>
        <time>2020-08-06T09:06:22Z</time>
      </trkpt>
      <trkpt lat="47.8964" lon="6.83828">
        <ele>993.4</ele>
        <time>2020-08-06T09:06:28Z</time>
      </trkpt>
      <trkpt lat="47.89644" lon="6.83815">
        <ele>994.4</ele>
        <time>2020-08-06T09:06:34Z</time>
      </trkpt>
      <trkpt lat="47.8965" lon="6.83802">
        <ele>995.6</ele>
        <time>2020-08-06T09:06:39Z</time>
      </trkpt>
      <trkpt lat="47.89659" lon="6.83788">
        <ele>996.6</ele>
        <time>2020-08-06T09:06:45Z</time>
      </trkpt>
      <trkpt lat="47.89669" lon="6.83779">
        <ele>997.8</ele>
        <time>2020-08-06T09:06:51Z</time>
      </trkpt>
      <trkpt lat="47.89674" lon="6.83773">
        <ele>998.8</ele>
        <time>2020-08-06T09:06:55Z</time>
      </trkpt>
      <trkpt lat="47.89677" lon="6.8377">
        <ele>999.6</ele>
        <time>2020-08-06T09:06:57Z</time>
      </trkpt>
      <trkpt lat="47.89679" lon="6.83767">
        <ele>1000</ele>
        <time>2020-08-06T09:06:59Z</time>
      </trkpt>
      <trkpt lat="47.89689" lon="6.83758">
        <ele>1001.4</ele>
        <time>2020-08-06T09:07:04Z</time>
      </trkpt>
      <trkpt lat="47.89697" lon="6.83752">
        <ele>1002.4</ele>
        <time>2020-08-06T09:07:08Z</time>
      </trkpt>
      <trkpt lat="47.89704" lon="6.83746">
        <ele>1003.4</ele>
        <time>2020-08-06T09:07:12Z</time>
      </trkpt>
      <trkpt lat="47.89707" lon="6.83745">
        <ele>1003.6</ele>
        <time>2020-08-06T09:07:13Z</time>
      </trkpt>
      <trkpt lat="47.89714" lon="6.83738">
        <ele>1004.4</ele>
        <time>2020-08-06T09:07:17Z</time>
      </trkpt>
      <trkpt lat="47.89723" lon="6.8373">
        <ele>1005.6</ele>
        <time>2020-08-06T09:07:22Z</time>
      </trkpt>
      <trkpt lat="47.89734" lon="6.83727">
        <ele>1006.6</ele>
        <time>2020-08-06T09:07:27Z</time>
      </trkpt>
      <trkpt lat="47.89742" lon="6.83725">
        <ele>1007.6</ele>
        <time>2020-08-06T09:07:32Z</time>
      </trkpt>
      <trkpt lat="47.89752" lon="6.8372">
        <ele>1008.8</ele>
        <time>2020-08-06T09:07:37Z</time>
      </trkpt>
      <trkpt lat="47.89755" lon="6.8372">
        <ele>1009</ele>
        <time>2020-08-06T09:07:38Z</time>
      </trkpt>
      <trkpt lat="47.89763" lon="6.83718">
        <ele>1010</ele>
        <time>2020-08-06T09:07:42Z</time>
      </trkpt>
      <trkpt lat="47.8977" lon="6.83715">
        <ele>1011</ele>
        <time>2020-08-06T09:07:46Z</time>
      </trkpt>
      <trkpt lat="47.89781" lon="6.83708">
        <ele>1012.2</ele>
        <time>2020-08-06T09:07:52Z</time>
      </trkpt>
      <trkpt lat="47.89789" lon="6.83704">
        <ele>1013.4</ele>
        <time>2020-08-06T09:07:56Z</time>
      </trkpt>
      <trkpt lat="47.89796" lon="6.83699">
        <ele>1014.4</ele>
        <time>2020-08-06T09:08:00Z</time>
      </trkpt>
      <trkpt lat="47.89809" lon="6.83692">
        <ele>1015.6</ele>
        <time>2020-08-06T09:08:06Z</time>
      </trkpt>
      <trkpt lat="47.89821" lon="6.83688">
        <ele>1016.8</ele>
        <time>2020-08-06T09:08:12Z</time>
      </trkpt>
      <trkpt lat="47.89832" lon="6.83689">
        <ele>1017.6</ele>
        <time>2020-08-06T09:08:17Z</time>
      </trkpt>
      <trkpt lat="47.8984" lon="6.83694">
        <ele>1018.8</ele>
        <time>2020-08-06T09:08:21Z</time>
      </trkpt>
      <trkpt lat="47.89849" lon="6.83704">
        <ele>1019.8</ele>
        <time>2020-08-06T09:08:26Z</time>
      </trkpt>
      <trkpt lat="47.89858" lon="6.83718">
        <ele>1021</ele>
        <time>2020-08-06T09:08:31Z</time>
      </trkpt>
      <trkpt lat="47.89865" lon="6.83734">
        <ele>1022</ele>
        <time>2020-08-06T09:08:36Z</time>
      </trkpt>
      <trkpt lat="47.89869" lon="6.83758">
        <ele>1023</ele>
        <time>2020-08-06T09:08:43Z</time>
      </trkpt>
      <trkpt lat="47.89869" lon="6.83796">
        <ele>1023.8</ele>
        <time>2020-08-06T09:08:52Z</time>
      </trkpt>
      <trkpt lat="47.89869" lon="6.838">
        <ele>1024</ele>
        <time>2020-08-06T09:08:53Z</time>
      </trkpt>
      <trkpt lat="47.89868" lon="6.8383">
        <ele>1025.2</ele>
        <time>2020-08-06T09:08:59Z</time>
      </trkpt>
      <trkpt lat="47.89872" lon="6.83914">
        <ele>1025.4</ele>
        <time>2020-08-06T09:09:12Z</time>
      </trkpt>
      <trkpt lat="47.89882" lon="6.83994">
        <ele>1023.8</ele>
        <time>2020-08-06T09:09:21Z</time>
      </trkpt>
      <trkpt lat="47.89887" lon="6.84037">
        <ele>1022.6</ele>
        <time>2020-08-06T09:09:25Z</time>
      </trkpt>
      <trkpt lat="47.89892" lon="6.8408">
        <ele>1021.6</ele>
        <time>2020-08-06T09:09:29Z</time>
      </trkpt>
      <trkpt lat="47.89893" lon="6.84099">
        <ele>1020.2</ele>
        <time>2020-08-06T09:09:31Z</time>
      </trkpt>
      <trkpt lat="47.89896" lon="6.84127">
        <ele>1019.6</ele>
        <time>2020-08-06T09:09:34Z</time>
      </trkpt>
      <trkpt lat="47.89899" lon="6.84162">
        <ele>1019</ele>
        <time>2020-08-06T09:09:38Z</time>
      </trkpt>
      <trkpt lat="47.89901" lon="6.8417">
        <ele>1018.8</ele>
        <time>2020-08-06T09:09:39Z</time>
      </trkpt>
      <trkpt lat="47.89938" lon="6.84202">
        <ele>1017.8</ele>
        <time>2020-08-06T09:09:48Z</time>
      </trkpt>
      <trkpt lat="47.89949" lon="6.84194">
        <ele>1017.4</ele>
        <time>2020-08-06T09:09:51Z</time>
      </trkpt>
      <trkpt lat="47.89987" lon="6.84136">
        <ele>1017.4</ele>
        <time>2020-08-06T09:10:06Z</time>
      </trkpt>
      <trkpt lat="47.9002" lon="6.84079">
        <ele>1017.4</ele>
        <time>2020-08-06T09:10:22Z</time>
      </trkpt>
      <trkpt lat="47.90039" lon="6.84035">
        <ele>1019</ele>
        <time>2020-08-06T09:10:35Z</time>
      </trkpt>
      <trkpt lat="47.90045" lon="6.84015">
        <ele>1020.2</ele>
        <time>2020-08-06T09:10:40Z</time>
      </trkpt>
      <trkpt lat="47.90055" lon="6.83991">
        <ele>1021</ele>
        <time>2020-08-06T09:10:46Z</time>
      </trkpt>
      <trkpt lat="47.9007" lon="6.83971">
        <ele>1022</ele>
        <time>2020-08-06T09:10:53Z</time>
      </trkpt>
      <trkpt lat="47.90085" lon="6.83954">
        <ele>1023.2</ele>
        <time>2020-08-06T09:10:59Z</time>
      </trkpt>
      <trkpt lat="47.90103" lon="6.83943">
        <ele>1024.2</ele>
        <time>2020-08-06T09:11:05Z</time>
      </trkpt>
      <trkpt lat="47.90127" lon="6.83937">
        <ele>1025.6</ele>
        <time>2020-08-06T09:11:12Z</time>
      </trkpt>
      <trkpt lat="47.90147" lon="6.83938">
        <ele>1026.6</ele>
        <time>2020-08-06T09:11:18Z</time>
      </trkpt>
      <trkpt lat="47.90179" lon="6.83945">
        <ele>1027.6</ele>
        <time>2020-08-06T09:11:29Z</time>
      </trkpt>
      <trkpt lat="47.90201" lon="6.83953">
        <ele>1028.6</ele>
        <time>2020-08-06T09:11:37Z</time>
      </trkpt>
      <trkpt lat="47.9022" lon="6.83961">
        <ele>1029.6</ele>
        <time>2020-08-06T09:11:44Z</time>
      </trkpt>
      <trkpt lat="47.90238" lon="6.83967">
        <ele>1030.6</ele>
        <time>2020-08-06T09:11:50Z</time>
      </trkpt>
      <trkpt lat="47.90258" lon="6.83975">
        <ele>1031.8</ele>
        <time>2020-08-06T09:11:57Z</time>
      </trkpt>
      <trkpt lat="47.90272" lon="6.83982">
        <ele>1032.8</ele>
        <time>2020-08-06T09:12:02Z</time>
      </trkpt>
      <trkpt lat="47.90287" lon="6.83992">
        <ele>1034</ele>
        <time>2020-08-06T09:12:07Z</time>
      </trkpt>
      <trkpt lat="47.90307" lon="6.8401">
        <ele>1035.2</ele>
        <time>2020-08-06T09:12:13Z</time>
      </trkpt>
      <trkpt lat="47.90322" lon="6.84033">
        <ele>1035.8</ele>
        <time>2020-08-06T09:12:19Z</time>
      </trkpt>
      <trkpt lat="47.90338" lon="6.8407">
        <ele>1036</ele>
        <time>2020-08-06T09:12:27Z</time>
      </trkpt>
      <trkpt lat="47.9036" lon="6.84148">
        <ele>1036</ele>
        <time>2020-08-06T09:12:42Z</time>
      </trkpt>
      <trkpt lat="47.90373" lon="6.84228">
        <ele>1035.8</ele>
        <time>2020-08-06T09:12:56Z</time>
      </trkpt>
      <trkpt lat="47.90374" lon="6.84314">
        <ele>1035.6</ele>
        <time>2020-08-06T09:13:11Z</time>
      </trkpt>
      <trkpt lat="47.90374" lon="6.8432">
        <ele>1035.6</ele>
        <time>2020-08-06T09:13:12Z</time>
      </trkpt>
      <trkpt lat="47.90359" lon="6.84401">
        <ele>1035.2</ele>
        <time>2020-08-06T09:13:24Z</time>
      </trkpt>
      <trkpt lat="47.90352" lon="6.84424">
        <ele>1034.8</ele>
        <time>2020-08-06T09:13:27Z</time>
      </trkpt>
      <trkpt lat="47.9035" lon="6.84431">
        <ele>1034.8</ele>
        <time>2020-08-06T09:13:28Z</time>
      </trkpt>
      <trkpt lat="47.90347" lon="6.84437">
        <ele>1034.6</ele>
        <time>2020-08-06T09:13:29Z</time>
      </trkpt>
      <trkpt lat="47.90343" lon="6.84451">
        <ele>1034.4</ele>
        <time>2020-08-06T09:13:31Z</time>
      </trkpt>
      <trkpt lat="47.90346" lon="6.84484">
        <ele>1034</ele>
        <time>2020-08-06T09:13:36Z</time>
      </trkpt>
      <trkpt lat="47.90369" lon="6.84547">
        <ele>1033.6</ele>
        <time>2020-08-06T09:13:46Z</time>
      </trkpt>
      <trkpt lat="47.90381" lon="6.84586">
        <ele>1032.4</ele>
        <time>2020-08-06T09:13:51Z</time>
      </trkpt>
      <trkpt lat="47.90388" lon="6.84621">
        <ele>1031.2</ele>
        <time>2020-08-06T09:13:55Z</time>
      </trkpt>
      <trkpt lat="47.90393" lon="6.84643">
        <ele>1029.8</ele>
        <time>2020-08-06T09:13:58Z</time>
      </trkpt>
      <trkpt lat="47.90394" lon="6.8465">
        <ele>1029.6</ele>
        <time>2020-08-06T09:13:59Z</time>
      </trkpt>
      <trkpt lat="47.90396" lon="6.84664">
        <ele>1028.8</ele>
        <time>2020-08-06T09:14:01Z</time>
      </trkpt>
      <trkpt lat="47.90401" lon="6.84677">
        <ele>1027.8</ele>
        <time>2020-08-06T09:14:06Z</time>
      </trkpt>
      <trkpt lat="47.90401" lon="6.84677">
        <ele>1026.6</ele>
        <time>2020-08-06T09:14:08Z</time>
      </trkpt>
      <trkpt lat="47.90401" lon="6.84677">
        <ele>1025.6</ele>
        <time>2020-08-06T09:14:12Z</time>
      </trkpt>
      <trkpt lat="47.90412" lon="6.84713">
        <ele>1025.2</ele>
        <time>2020-08-06T09:15:54Z</time>
      </trkpt>
      <trkpt lat="47.90415" lon="6.84732">
        <ele>1024.2</ele>
        <time>2020-08-06T09:15:57Z</time>
      </trkpt>
      <trkpt lat="47.90416" lon="6.84747">
        <ele>1023.6</ele>
        <time>2020-08-06T09:15:59Z</time>
      </trkpt>
      <trkpt lat="47.90415" lon="6.84765">
        <ele>1022.8</ele>
        <time>2020-08-06T09:16:01Z</time>
      </trkpt>
      <trkpt lat="47.9041" lon="6.84779">
        <ele>1021.8</ele>
        <time>2020-08-06T09:16:03Z</time>
      </trkpt>
      <trkpt lat="47.90404" lon="6.84791">
        <ele>1020.4</ele>
        <time>2020-08-06T09:16:05Z</time>
      </trkpt>
      <trkpt lat="47.90397" lon="6.84804">
        <ele>1019</ele>
        <time>2020-08-06T09:16:07Z</time>
      </trkpt>
      <trkpt lat="47.90389" lon="6.84814">
        <ele>1017.8</ele>
        <time>2020-08-06T09:16:09Z</time>
      </trkpt>
      <trkpt lat="47.90382" lon="6.84825">
        <ele>1017</ele>
        <time>2020-08-06T09:16:11Z</time>
      </trkpt>
      <trkpt lat="47.90381" lon="6.84832">
        <ele>1016.4</ele>
        <time>2020-08-06T09:16:12Z</time>
      </trkpt>
      <trkpt lat="47.90385" lon="6.84849">
        <ele>1015.2</ele>
        <time>2020-08-06T09:16:15Z</time>
      </trkpt>
      <trkpt lat="47.90391" lon="6.84857">
        <ele>1014</ele>
        <time>2020-08-06T09:16:17Z</time>
      </trkpt>
      <trkpt lat="47.90394" lon="6.84861">
        <ele>1013.2</ele>
        <time>2020-08-06T09:16:18Z</time>
      </trkpt>
      <trkpt lat="47.90396" lon="6.84864">
        <ele>1012.8</ele>
        <time>2020-08-06T09:16:19Z</time>
      </trkpt>
      <trkpt lat="47.90407" lon="6.84876">
        <ele>1011.4</ele>
        <time>2020-08-06T09:16:22Z</time>
      </trkpt>
      <trkpt lat="47.90412" lon="6.84881">
        <ele>1010.8</ele>
        <time>2020-08-06T09:16:23Z</time>
      </trkpt>
      <trkpt lat="47.90417" lon="6.84885">
        <ele>1010</ele>
        <time>2020-08-06T09:16:24Z</time>
      </trkpt>
      <trkpt lat="47.90421" lon="6.8489">
        <ele>1008.6</ele>
        <time>2020-08-06T09:16:25Z</time>
      </trkpt>
      <trkpt lat="47.90426" lon="6.84894">
        <ele>1008.2</ele>
        <time>2020-08-06T09:16:26Z</time>
      </trkpt>
      <trkpt lat="47.90434" lon="6.84905">
        <ele>1007</ele>
        <time>2020-08-06T09:16:28Z</time>
      </trkpt>
      <trkpt lat="47.90439" lon="6.84912">
        <ele>1006.2</ele>
        <time>2020-08-06T09:16:29Z</time>
      </trkpt>
      <trkpt lat="47.90443" lon="6.84919">
        <ele>1005.6</ele>
        <time>2020-08-06T09:16:30Z</time>
      </trkpt>
      <trkpt lat="47.90451" lon="6.84933">
        <ele>1004.4</ele>
        <time>2020-08-06T09:16:32Z</time>
      </trkpt>
      <trkpt lat="47.90459" lon="6.84948">
        <ele>1003</ele>
        <time>2020-08-06T09:16:34Z</time>
      </trkpt>
      <trkpt lat="47.90466" lon="6.84962">
        <ele>1002</ele>
        <time>2020-08-06T09:16:36Z</time>
      </trkpt>
      <trkpt lat="47.90476" lon="6.84975">
        <ele>1001</ele>
        <time>2020-08-06T09:16:38Z</time>
      </trkpt>
      <trkpt lat="47.90486" lon="6.84987">
        <ele>999.6</ele>
        <time>2020-08-06T09:16:40Z</time>
      </trkpt>
      <trkpt lat="47.90496" lon="6.85001">
        <ele>998.6</ele>
        <time>2020-08-06T09:16:42Z</time>
      </trkpt>
      <trkpt lat="47.905" lon="6.85009">
        <ele>998</ele>
        <time>2020-08-06T09:16:43Z</time>
      </trkpt>
      <trkpt lat="47.90508" lon="6.85023">
        <ele>996.6</ele>
        <time>2020-08-06T09:16:45Z</time>
      </trkpt>
      <trkpt lat="47.90516" lon="6.85036">
        <ele>995</ele>
        <time>2020-08-06T09:16:47Z</time>
      </trkpt>
      <trkpt lat="47.90525" lon="6.8505">
        <ele>993.6</ele>
        <time>2020-08-06T09:16:49Z</time>
      </trkpt>
      <trkpt lat="47.90535" lon="6.85066">
        <ele>992.4</ele>
        <time>2020-08-06T09:16:51Z</time>
      </trkpt>
      <trkpt lat="47.90543" lon="6.85082">
        <ele>991.2</ele>
        <time>2020-08-06T09:16:53Z</time>
      </trkpt>
      <trkpt lat="47.9055" lon="6.85097">
        <ele>990</ele>
        <time>2020-08-06T09:16:55Z</time>
      </trkpt>
      <trkpt lat="47.90556" lon="6.85109">
        <ele>988.4</ele>
        <time>2020-08-06T09:16:57Z</time>
      </trkpt>
      <trkpt lat="47.90562" lon="6.85121">
        <ele>986.8</ele>
        <time>2020-08-06T09:16:59Z</time>
      </trkpt>
      <trkpt lat="47.90572" lon="6.85138">
        <ele>985.6</ele>
        <time>2020-08-06T09:17:02Z</time>
      </trkpt>
      <trkpt lat="47.9058" lon="6.85152">
        <ele>984.4</ele>
        <time>2020-08-06T09:17:04Z</time>
      </trkpt>
      <trkpt lat="47.90588" lon="6.8517">
        <ele>983.8</ele>
        <time>2020-08-06T09:17:06Z</time>
      </trkpt>
      <trkpt lat="47.90591" lon="6.8518">
        <ele>983.2</ele>
        <time>2020-08-06T09:17:07Z</time>
      </trkpt>
      <trkpt lat="47.90594" lon="6.85198">
        <ele>981.8</ele>
        <time>2020-08-06T09:17:09Z</time>
      </trkpt>
      <trkpt lat="47.90594" lon="6.85215">
        <ele>980.6</ele>
        <time>2020-08-06T09:17:11Z</time>
      </trkpt>
      <trkpt lat="47.90592" lon="6.8523">
        <ele>979.4</ele>
        <time>2020-08-06T09:17:13Z</time>
      </trkpt>
      <trkpt lat="47.9059" lon="6.85247">
        <ele>978.4</ele>
        <time>2020-08-06T09:17:15Z</time>
      </trkpt>
      <trkpt lat="47.90588" lon="6.8527">
        <ele>977.2</ele>
        <time>2020-08-06T09:17:18Z</time>
      </trkpt>
      <trkpt lat="47.90584" lon="6.85282">
        <ele>976</ele>
        <time>2020-08-06T09:17:20Z</time>
      </trkpt>
      <trkpt lat="47.90576" lon="6.85298">
        <ele>974.8</ele>
        <time>2020-08-06T09:17:23Z</time>
      </trkpt>
      <trkpt lat="47.90574" lon="6.85305">
        <ele>974.4</ele>
        <time>2020-08-06T09:17:24Z</time>
      </trkpt>
      <trkpt lat="47.9057" lon="6.85318">
        <ele>973.8</ele>
        <time>2020-08-06T09:17:26Z</time>
      </trkpt>
      <trkpt lat="47.90563" lon="6.85338">
        <ele>972.6</ele>
        <time>2020-08-06T09:17:29Z</time>
      </trkpt>
      <trkpt lat="47.90561" lon="6.85343">
        <ele>972.2</ele>
        <time>2020-08-06T09:17:30Z</time>
      </trkpt>
      <trkpt lat="47.90551" lon="6.85359">
        <ele>971.4</ele>
        <time>2020-08-06T09:17:33Z</time>
      </trkpt>
      <trkpt lat="47.9055" lon="6.85371">
        <ele>969.6</ele>
        <time>2020-08-06T09:17:35Z</time>
      </trkpt>
      <trkpt lat="47.90555" lon="6.85378">
        <ele>968.6</ele>
        <time>2020-08-06T09:17:37Z</time>
      </trkpt>
      <trkpt lat="47.90561" lon="6.85376">
        <ele>967.2</ele>
        <time>2020-08-06T09:17:39Z</time>
      </trkpt>
      <trkpt lat="47.90566" lon="6.8537">
        <ele>966</ele>
        <time>2020-08-06T09:17:41Z</time>
      </trkpt>
      <trkpt lat="47.9057" lon="6.85361">
        <ele>964.8</ele>
        <time>2020-08-06T09:17:43Z</time>
      </trkpt>
      <trkpt lat="47.90572" lon="6.85357">
        <ele>964.2</ele>
        <time>2020-08-06T09:17:44Z</time>
      </trkpt>
      <trkpt lat="47.90576" lon="6.85349">
        <ele>963.6</ele>
        <time>2020-08-06T09:17:46Z</time>
      </trkpt>
      <trkpt lat="47.906" lon="6.85325">
        <ele>962.6</ele>
        <time>2020-08-06T09:17:54Z</time>
      </trkpt>
      <trkpt lat="47.90614" lon="6.85353">
        <ele>961</ele>
        <time>2020-08-06T09:18:01Z</time>
      </trkpt>
      <trkpt lat="47.90614" lon="6.85366">
        <ele>959.4</ele>
        <time>2020-08-06T09:18:03Z</time>
      </trkpt>
      <trkpt lat="47.90616" lon="6.85378">
        <ele>958.2</ele>
        <time>2020-08-06T09:18:05Z</time>
      </trkpt>
      <trkpt lat="47.90616" lon="6.85384">
        <ele>957.6</ele>
        <time>2020-08-06T09:18:06Z</time>
      </trkpt>
      <trkpt lat="47.90616" lon="6.8539">
        <ele>957.2</ele>
        <time>2020-08-06T09:18:07Z</time>
      </trkpt>
      <trkpt lat="47.90616" lon="6.85402">
        <ele>956.2</ele>
        <time>2020-08-06T09:18:09Z</time>
      </trkpt>
      <trkpt lat="47.90615" lon="6.85408">
        <ele>956</ele>
        <time>2020-08-06T09:18:10Z</time>
      </trkpt>
      <trkpt lat="47.90602" lon="6.85418">
        <ele>955.4</ele>
        <time>2020-08-06T09:18:15Z</time>
      </trkpt>
      <trkpt lat="47.90599" lon="6.85421">
        <ele>955.4</ele>
        <time>2020-08-06T09:19:36Z</time>
      </trkpt>
      <trkpt lat="47.90601" lon="6.85425">
        <ele>955.6</ele>
        <time>2020-08-06T09:20:17Z</time>
      </trkpt>
      <trkpt lat="47.90617" lon="6.85446">
        <ele>955.2</ele>
        <time>2020-08-06T09:20:24Z</time>
      </trkpt>
      <trkpt lat="47.90616" lon="6.85468">
        <ele>955.2</ele>
        <time>2020-08-06T09:20:29Z</time>
      </trkpt>
      <trkpt lat="47.90609" lon="6.85514">
        <ele>955.6</ele>
        <time>2020-08-06T09:20:39Z</time>
      </trkpt>
      <trkpt lat="47.90597" lon="6.85595">
        <ele>955.4</ele>
        <time>2020-08-06T09:20:54Z</time>
      </trkpt>
      <trkpt lat="47.90585" lon="6.85675">
        <ele>955.6</ele>
        <time>2020-08-06T09:21:08Z</time>
      </trkpt>
      <trkpt lat="47.90578" lon="6.85714">
        <ele>956.6</ele>
        <time>2020-08-06T09:21:15Z</time>
      </trkpt>
      <trkpt lat="47.90563" lon="6.85792">
        <ele>957</ele>
        <time>2020-08-06T09:21:30Z</time>
      </trkpt>
      <trkpt lat="47.90559" lon="6.85816">
        <ele>957.6</ele>
        <time>2020-08-06T09:21:35Z</time>
      </trkpt>
      <trkpt lat="47.90555" lon="6.85842">
        <ele>958.4</ele>
        <time>2020-08-06T09:21:40Z</time>
      </trkpt>
      <trkpt lat="47.90551" lon="6.85872">
        <ele>959.6</ele>
        <time>2020-08-06T09:21:45Z</time>
      </trkpt>
      <trkpt lat="47.90543" lon="6.85901">
        <ele>960.8</ele>
        <time>2020-08-06T09:21:50Z</time>
      </trkpt>
      <trkpt lat="47.90538" lon="6.85919">
        <ele>962</ele>
        <time>2020-08-06T09:21:53Z</time>
      </trkpt>
      <trkpt lat="47.90534" lon="6.85949">
        <ele>963</ele>
        <time>2020-08-06T09:21:58Z</time>
      </trkpt>
      <trkpt lat="47.90534" lon="6.86019">
        <ele>964</ele>
        <time>2020-08-06T09:22:09Z</time>
      </trkpt>
      <trkpt lat="47.90535" lon="6.86051">
        <ele>965.2</ele>
        <time>2020-08-06T09:22:15Z</time>
      </trkpt>
      <trkpt lat="47.90538" lon="6.86072">
        <ele>966.2</ele>
        <time>2020-08-06T09:22:19Z</time>
      </trkpt>
      <trkpt lat="47.90543" lon="6.86099">
        <ele>967.2</ele>
        <time>2020-08-06T09:22:24Z</time>
      </trkpt>
      <trkpt lat="47.90561" lon="6.86162">
        <ele>968.4</ele>
        <time>2020-08-06T09:22:36Z</time>
      </trkpt>
      <trkpt lat="47.90578" lon="6.86196">
        <ele>969.4</ele>
        <time>2020-08-06T09:22:44Z</time>
      </trkpt>
      <trkpt lat="47.90621" lon="6.86245">
        <ele>970.2</ele>
        <time>2020-08-06T09:23:00Z</time>
      </trkpt>
      <trkpt lat="47.90667" lon="6.86244">
        <ele>970.6</ele>
        <time>2020-08-06T09:23:11Z</time>
      </trkpt>
      <trkpt lat="47.90683" lon="6.86243">
        <ele>970.4</ele>
        <time>2020-08-06T09:23:14Z</time>
      </trkpt>
      <trkpt lat="47.90739" lon="6.8625">
        <ele>968.8</ele>
        <time>2020-08-06T09:23:25Z</time>
      </trkpt>
      <trkpt lat="47.90748" lon="6.86251">
        <ele>968.8</ele>
        <time>2020-08-06T09:23:27Z</time>
      </trkpt>
      <trkpt lat="47.90762" lon="6.86255">
        <ele>968.8</ele>
        <time>2020-08-06T09:23:30Z</time>
      </trkpt>
      <trkpt lat="47.90793" lon="6.86264">
        <ele>969.4</ele>
        <time>2020-08-06T09:23:37Z</time>
      </trkpt>
      <trkpt lat="47.90804" lon="6.86263">
        <ele>969.8</ele>
        <time>2020-08-06T09:23:39Z</time>
      </trkpt>
      <trkpt lat="47.90818" lon="6.86262">
        <ele>971</ele>
        <time>2020-08-06T09:23:42Z</time>
      </trkpt>
      <trkpt lat="47.90828" lon="6.86262">
        <ele>972</ele>
        <time>2020-08-06T09:23:44Z</time>
      </trkpt>
      <trkpt lat="47.90833" lon="6.86263">
        <ele>972.6</ele>
        <time>2020-08-06T09:23:45Z</time>
      </trkpt>
      <trkpt lat="47.90848" lon="6.86267">
        <ele>973.4</ele>
        <time>2020-08-06T09:23:49Z</time>
      </trkpt>
      <trkpt lat="47.90864" lon="6.86271">
        <ele>974.6</ele>
        <time>2020-08-06T09:23:53Z</time>
      </trkpt>
      <trkpt lat="47.90872" lon="6.86272">
        <ele>975.8</ele>
        <time>2020-08-06T09:23:55Z</time>
      </trkpt>
      <trkpt lat="47.9088" lon="6.86275">
        <ele>977.2</ele>
        <time>2020-08-06T09:23:57Z</time>
      </trkpt>
      <trkpt lat="47.90899" lon="6.86282">
        <ele>978.2</ele>
        <time>2020-08-06T09:24:02Z</time>
      </trkpt>
      <trkpt lat="47.90952" lon="6.86301">
        <ele>979</ele>
        <time>2020-08-06T09:24:17Z</time>
      </trkpt>
      <trkpt lat="47.90957" lon="6.863">
        <ele>979.4</ele>
        <time>2020-08-06T09:24:19Z</time>
      </trkpt>
      <trkpt lat="47.9097" lon="6.86301">
        <ele>980.4</ele>
        <time>2020-08-06T09:24:23Z</time>
      </trkpt>
      <trkpt lat="47.9098" lon="6.863">
        <ele>981.6</ele>
        <time>2020-08-06T09:24:26Z</time>
      </trkpt>
      <trkpt lat="47.90989" lon="6.86302">
        <ele>982.8</ele>
        <time>2020-08-06T09:24:29Z</time>
      </trkpt>
      <trkpt lat="47.91002" lon="6.86302">
        <ele>983.8</ele>
        <time>2020-08-06T09:24:33Z</time>
      </trkpt>
      <trkpt lat="47.91013" lon="6.8631">
        <ele>984.8</ele>
        <time>2020-08-06T09:24:37Z</time>
      </trkpt>
      <trkpt lat="47.91019" lon="6.86322">
        <ele>985.8</ele>
        <time>2020-08-06T09:24:41Z</time>
      </trkpt>
      <trkpt lat="47.91023" lon="6.86354">
        <ele>986.8</ele>
        <time>2020-08-06T09:24:50Z</time>
      </trkpt>
      <trkpt lat="47.91027" lon="6.86397">
        <ele>987.8</ele>
        <time>2020-08-06T09:24:59Z</time>
      </trkpt>
      <trkpt lat="47.91034" lon="6.86414">
        <ele>989</ele>
        <time>2020-08-06T09:25:04Z</time>
      </trkpt>
      <trkpt lat="47.91042" lon="6.86427">
        <ele>990.2</ele>
        <time>2020-08-06T09:25:08Z</time>
      </trkpt>
      <trkpt lat="47.91049" lon="6.86441">
        <ele>991.4</ele>
        <time>2020-08-06T09:25:12Z</time>
      </trkpt>
      <trkpt lat="47.91056" lon="6.86456">
        <ele>992.6</ele>
        <time>2020-08-06T09:25:15Z</time>
      </trkpt>
      <trkpt lat="47.91063" lon="6.86472">
        <ele>993.6</ele>
        <time>2020-08-06T09:25:19Z</time>
      </trkpt>
      <trkpt lat="47.91075" lon="6.86496">
        <ele>994.8</ele>
        <time>2020-08-06T09:25:25Z</time>
      </trkpt>
      <trkpt lat="47.91086" lon="6.86519">
        <ele>995.8</ele>
        <time>2020-08-06T09:25:31Z</time>
      </trkpt>
      <trkpt lat="47.91094" lon="6.86544">
        <ele>997</ele>
        <time>2020-08-06T09:25:37Z</time>
      </trkpt>
      <trkpt lat="47.91098" lon="6.86556">
        <ele>998</ele>
        <time>2020-08-06T09:25:40Z</time>
      </trkpt>
      <trkpt lat="47.91109" lon="6.86585">
        <ele>999.2</ele>
        <time>2020-08-06T09:25:48Z</time>
      </trkpt>
      <trkpt lat="47.91117" lon="6.86603">
        <ele>1000.4</ele>
        <time>2020-08-06T09:25:53Z</time>
      </trkpt>
      <trkpt lat="47.91124" lon="6.86614">
        <ele>1001.6</ele>
        <time>2020-08-06T09:25:57Z</time>
      </trkpt>
      <trkpt lat="47.91135" lon="6.86627">
        <ele>1002.6</ele>
        <time>2020-08-06T09:26:02Z</time>
      </trkpt>
      <trkpt lat="47.91143" lon="6.86637">
        <ele>1003.6</ele>
        <time>2020-08-06T09:26:06Z</time>
      </trkpt>
      <trkpt lat="47.91184" lon="6.86698">
        <ele>1004.4</ele>
        <time>2020-08-06T09:26:20Z</time>
      </trkpt>
      <trkpt lat="47.9122" lon="6.86759">
        <ele>1004.4</ele>
        <time>2020-08-06T09:26:33Z</time>
      </trkpt>
      <trkpt lat="47.91247" lon="6.86816">
        <ele>1004.8</ele>
        <time>2020-08-06T09:26:45Z</time>
      </trkpt>
      <trkpt lat="47.9126" lon="6.86837">
        <ele>1005.4</ele>
        <time>2020-08-06T09:26:51Z</time>
      </trkpt>
      <trkpt lat="47.91266" lon="6.86846">
        <ele>1005.8</ele>
        <time>2020-08-06T09:26:54Z</time>
      </trkpt>
      <trkpt lat="47.91269" lon="6.86849">
        <ele>1006</ele>
        <time>2020-08-06T09:26:55Z</time>
      </trkpt>
      <trkpt lat="47.91279" lon="6.86854">
        <ele>1006.8</ele>
        <time>2020-08-06T09:26:58Z</time>
      </trkpt>
      <trkpt lat="47.91288" lon="6.86861">
        <ele>1008</ele>
        <time>2020-08-06T09:27:02Z</time>
      </trkpt>
      <trkpt lat="47.91295" lon="6.86865">
        <ele>1009.4</ele>
        <time>2020-08-06T09:27:06Z</time>
      </trkpt>
      <trkpt lat="47.91304" lon="6.86868">
        <ele>1010.4</ele>
        <time>2020-08-06T09:27:10Z</time>
      </trkpt>
      <trkpt lat="47.91327" lon="6.86869">
        <ele>1011.6</ele>
        <time>2020-08-06T09:27:19Z</time>
      </trkpt>
      <trkpt lat="47.91339" lon="6.86867">
        <ele>1012.8</ele>
        <time>2020-08-06T09:27:24Z</time>
      </trkpt>
      <trkpt lat="47.91351" lon="6.86862">
        <ele>1013.8</ele>
        <time>2020-08-06T09:27:28Z</time>
      </trkpt>
      <trkpt lat="47.91369" lon="6.86862">
        <ele>1014.8</ele>
        <time>2020-08-06T09:27:34Z</time>
      </trkpt>
      <trkpt lat="47.91383" lon="6.86868">
        <ele>1016</ele>
        <time>2020-08-06T09:27:40Z</time>
      </trkpt>
      <trkpt lat="47.914" lon="6.86872">
        <ele>1017</ele>
        <time>2020-08-06T09:27:46Z</time>
      </trkpt>
      <trkpt lat="47.91417" lon="6.86872">
        <ele>1018.2</ele>
        <time>2020-08-06T09:27:51Z</time>
      </trkpt>
      <trkpt lat="47.91435" lon="6.86872">
        <ele>1019.8</ele>
        <time>2020-08-06T09:27:56Z</time>
      </trkpt>
      <trkpt lat="47.91488" lon="6.8684">
        <ele>1020.2</ele>
        <time>2020-08-06T09:28:10Z</time>
      </trkpt>
      <trkpt lat="47.91543" lon="6.86824">
        <ele>1020.6</ele>
        <time>2020-08-06T09:28:25Z</time>
      </trkpt>
      <trkpt lat="47.91593" lon="6.86791">
        <ele>1021.2</ele>
        <time>2020-08-06T09:28:40Z</time>
      </trkpt>
      <trkpt lat="47.91596" lon="6.86787">
        <ele>1021.4</ele>
        <time>2020-08-06T09:28:41Z</time>
      </trkpt>
      <trkpt lat="47.91612" lon="6.86773">
        <ele>1021.4</ele>
        <time>2020-08-06T09:28:45Z</time>
      </trkpt>
      <trkpt lat="47.91659" lon="6.86726">
        <ele>1020.8</ele>
        <time>2020-08-06T09:28:56Z</time>
      </trkpt>
      <trkpt lat="47.91707" lon="6.86676">
        <ele>1020.6</ele>
        <time>2020-08-06T09:29:08Z</time>
      </trkpt>
      <trkpt lat="47.91744" lon="6.86642">
        <ele>1021.2</ele>
        <time>2020-08-06T09:29:17Z</time>
      </trkpt>
      <trkpt lat="47.91751" lon="6.86635">
        <ele>1021.6</ele>
        <time>2020-08-06T09:29:19Z</time>
      </trkpt>
      <trkpt lat="47.91774" lon="6.86601">
        <ele>1022.4</ele>
        <time>2020-08-06T09:29:26Z</time>
      </trkpt>
      <trkpt lat="47.91794" lon="6.86574">
        <ele>1023.6</ele>
        <time>2020-08-06T09:29:33Z</time>
      </trkpt>
      <trkpt lat="47.91807" lon="6.86557">
        <ele>1024.6</ele>
        <time>2020-08-06T09:29:38Z</time>
      </trkpt>
      <trkpt lat="47.91814" lon="6.86547">
        <ele>1025.8</ele>
        <time>2020-08-06T09:29:41Z</time>
      </trkpt>
      <trkpt lat="47.91825" lon="6.86528">
        <ele>1026.8</ele>
        <time>2020-08-06T09:29:46Z</time>
      </trkpt>
      <trkpt lat="47.91831" lon="6.86513">
        <ele>1027.8</ele>
        <time>2020-08-06T09:29:50Z</time>
      </trkpt>
      <trkpt lat="47.91836" lon="6.86491">
        <ele>1029</ele>
        <time>2020-08-06T09:29:55Z</time>
      </trkpt>
      <trkpt lat="47.91847" lon="6.8645">
        <ele>1030</ele>
        <time>2020-08-06T09:30:03Z</time>
      </trkpt>
      <trkpt lat="47.91853" lon="6.86416">
        <ele>1031</ele>
        <time>2020-08-06T09:30:12Z</time>
      </trkpt>
      <trkpt lat="47.91854" lon="6.86406">
        <ele>1032.4</ele>
        <time>2020-08-06T09:30:15Z</time>
      </trkpt>
      <trkpt lat="47.91856" lon="6.86394">
        <ele>1033.4</ele>
        <time>2020-08-06T09:30:18Z</time>
      </trkpt>
      <trkpt lat="47.91859" lon="6.86382">
        <ele>1034.6</ele>
        <time>2020-08-06T09:30:21Z</time>
      </trkpt>
      <trkpt lat="47.91863" lon="6.86369">
        <ele>1035.6</ele>
        <time>2020-08-06T09:30:25Z</time>
      </trkpt>
      <trkpt lat="47.91867" lon="6.86353">
        <ele>1036.8</ele>
        <time>2020-08-06T09:30:30Z</time>
      </trkpt>
      <trkpt lat="47.91875" lon="6.86339">
        <ele>1038</ele>
        <time>2020-08-06T09:30:35Z</time>
      </trkpt>
      <trkpt lat="47.91882" lon="6.86325">
        <ele>1039.2</ele>
        <time>2020-08-06T09:30:39Z</time>
      </trkpt>
      <trkpt lat="47.91887" lon="6.86313">
        <ele>1040.4</ele>
        <time>2020-08-06T09:30:43Z</time>
      </trkpt>
      <trkpt lat="47.91892" lon="6.86293">
        <ele>1041.8</ele>
        <time>2020-08-06T09:30:49Z</time>
      </trkpt>
      <trkpt lat="47.91893" lon="6.86275">
        <ele>1042.8</ele>
        <time>2020-08-06T09:30:54Z</time>
      </trkpt>
      <trkpt lat="47.91897" lon="6.86261">
        <ele>1044</ele>
        <time>2020-08-06T09:30:59Z</time>
      </trkpt>
      <trkpt lat="47.919" lon="6.86255">
        <ele>1044.4</ele>
        <time>2020-08-06T09:31:01Z</time>
      </trkpt>
      <trkpt lat="47.91903" lon="6.86255">
        <ele>1045</ele>
        <time>2020-08-06T09:31:03Z</time>
      </trkpt>
      <trkpt lat="47.91908" lon="6.86258">
        <ele>1045.8</ele>
        <time>2020-08-06T09:31:06Z</time>
      </trkpt>
      <trkpt lat="47.91912" lon="6.8626">
        <ele>1046.2</ele>
        <time>2020-08-06T09:31:08Z</time>
      </trkpt>
      <trkpt lat="47.91932" lon="6.8626">
        <ele>1046</ele>
        <time>2020-08-06T09:33:58Z</time>
      </trkpt>
      <trkpt lat="47.91931" lon="6.86259">
        <ele>1045.8</ele>
        <time>2020-08-06T09:34:06Z</time>
      </trkpt>
      <trkpt lat="47.91937" lon="6.86258">
        <ele>1045.8</ele>
        <time>2020-08-06T09:34:09Z</time>
      </trkpt>
      <trkpt lat="47.91937" lon="6.86273">
        <ele>1045.6</ele>
        <time>2020-08-06T09:34:15Z</time>
      </trkpt>
      <trkpt lat="47.91935" lon="6.86323">
        <ele>1043.8</ele>
        <time>2020-08-06T09:34:24Z</time>
      </trkpt>
      <trkpt lat="47.9194" lon="6.86351">
        <ele>1042.6</ele>
        <time>2020-08-06T09:34:29Z</time>
      </trkpt>
      <trkpt lat="47.91948" lon="6.86397">
        <ele>1041.4</ele>
        <time>2020-08-06T09:34:35Z</time>
      </trkpt>
      <trkpt lat="47.9195" lon="6.8642">
        <ele>1040</ele>
        <time>2020-08-06T09:34:38Z</time>
      </trkpt>
      <trkpt lat="47.9195" lon="6.86438">
        <ele>1038.4</ele>
        <time>2020-08-06T09:34:41Z</time>
      </trkpt>
      <trkpt lat="47.91912" lon="6.86498">
        <ele>1037.6</ele>
        <time>2020-08-06T09:34:58Z</time>
      </trkpt>
      <trkpt lat="47.919" lon="6.86503">
        <ele>1037.4</ele>
        <time>2020-08-06T09:35:01Z</time>
      </trkpt>
      <trkpt lat="47.91887" lon="6.86511">
        <ele>1036.4</ele>
        <time>2020-08-06T09:35:04Z</time>
      </trkpt>
      <trkpt lat="47.91879" lon="6.86524">
        <ele>1035</ele>
        <time>2020-08-06T09:35:07Z</time>
      </trkpt>
      <trkpt lat="47.91873" lon="6.86536">
        <ele>1034.4</ele>
        <time>2020-08-06T09:35:09Z</time>
      </trkpt>
      <trkpt lat="47.91869" lon="6.8654">
        <ele>1034</ele>
        <time>2020-08-06T09:35:10Z</time>
      </trkpt>
      <trkpt lat="47.91849" lon="6.86558">
        <ele>1032.8</ele>
        <time>2020-08-06T09:35:14Z</time>
      </trkpt>
      <trkpt lat="47.91832" lon="6.86569">
        <ele>1031.8</ele>
        <time>2020-08-06T09:35:18Z</time>
      </trkpt>
      <trkpt lat="47.91822" lon="6.86585">
        <ele>1030.4</ele>
        <time>2020-08-06T09:35:21Z</time>
      </trkpt>
      <trkpt lat="47.91806" lon="6.86607">
        <ele>1028.8</ele>
        <time>2020-08-06T09:35:25Z</time>
      </trkpt>
      <trkpt lat="47.91795" lon="6.86626">
        <ele>1027.6</ele>
        <time>2020-08-06T09:35:28Z</time>
      </trkpt>
      <trkpt lat="47.91791" lon="6.86634">
        <ele>1027.2</ele>
        <time>2020-08-06T09:35:29Z</time>
      </trkpt>
      <trkpt lat="47.91784" lon="6.86649">
        <ele>1026.2</ele>
        <time>2020-08-06T09:35:31Z</time>
      </trkpt>
      <trkpt lat="47.91775" lon="6.86662">
        <ele>1025</ele>
        <time>2020-08-06T09:35:33Z</time>
      </trkpt>
      <trkpt lat="47.91761" lon="6.86676">
        <ele>1023.8</ele>
        <time>2020-08-06T09:35:36Z</time>
      </trkpt>
      <trkpt lat="47.91751" lon="6.86687">
        <ele>1023.4</ele>
        <time>2020-08-06T09:35:38Z</time>
      </trkpt>
      <trkpt lat="47.91743" lon="6.86701">
        <ele>1022.8</ele>
        <time>2020-08-06T09:35:40Z</time>
      </trkpt>
      <trkpt lat="47.91733" lon="6.86722">
        <ele>1022</ele>
        <time>2020-08-06T09:35:43Z</time>
      </trkpt>
      <trkpt lat="47.91729" lon="6.86728">
        <ele>1021.8</ele>
        <time>2020-08-06T09:35:44Z</time>
      </trkpt>
      <trkpt lat="47.91707" lon="6.86752">
        <ele>1020.8</ele>
        <time>2020-08-06T09:35:50Z</time>
      </trkpt>
      <trkpt lat="47.91705" lon="6.86753">
        <ele>1020.6</ele>
        <time>2020-08-06T09:35:51Z</time>
      </trkpt>
      <trkpt lat="47.91698" lon="6.86761">
        <ele>1019.6</ele>
        <time>2020-08-06T09:35:55Z</time>
      </trkpt>
      <trkpt lat="47.91694" lon="6.86768">
        <ele>1018.8</ele>
        <time>2020-08-06T09:36:18Z</time>
      </trkpt>
      <trkpt lat="47.91695" lon="6.86768">
        <ele>1019</ele>
        <time>2020-08-06T09:37:05Z</time>
      </trkpt>
      <trkpt lat="47.91697" lon="6.8677">
        <ele>1018.4</ele>
        <time>2020-08-06T09:37:40Z</time>
      </trkpt>
      <trkpt lat="47.91692" lon="6.86774">
        <ele>1019.2</ele>
        <time>2020-08-06T09:39:51Z</time>
      </trkpt>
      <trkpt lat="47.91686" lon="6.86779">
        <ele>1019</ele>
        <time>2020-08-06T09:39:56Z</time>
      </trkpt>
      <trkpt lat="47.9164" lon="6.86826">
        <ele>1019.6</ele>
        <time>2020-08-06T09:40:19Z</time>
      </trkpt>
      <trkpt lat="47.91629" lon="6.86839">
        <ele>1020.2</ele>
        <time>2020-08-06T09:40:25Z</time>
      </trkpt>
      <trkpt lat="47.91615" lon="6.86857">
        <ele>1021.4</ele>
        <time>2020-08-06T09:40:32Z</time>
      </trkpt>
      <trkpt lat="47.916" lon="6.86883">
        <ele>1022.6</ele>
        <time>2020-08-06T09:40:40Z</time>
      </trkpt>
      <trkpt lat="47.91592" lon="6.86899">
        <ele>1023.6</ele>
        <time>2020-08-06T09:40:46Z</time>
      </trkpt>
      <trkpt lat="47.91591" lon="6.86902">
        <ele>1024.6</ele>
        <time>2020-08-06T09:40:49Z</time>
      </trkpt>
      <trkpt lat="47.91591" lon="6.86905">
        <ele>1025.6</ele>
        <time>2020-08-06T09:40:56Z</time>
      </trkpt>
      <trkpt lat="47.91589" lon="6.86908">
        <ele>1026</ele>
        <time>2020-08-06T09:43:11Z</time>
      </trkpt>
      <trkpt lat="47.9156" lon="6.86945">
        <ele>1027.8</ele>
        <time>2020-08-06T09:43:29Z</time>
      </trkpt>
      <trkpt lat="47.9155" lon="6.86963">
        <ele>1028.8</ele>
        <time>2020-08-06T09:43:35Z</time>
      </trkpt>
      <trkpt lat="47.91545" lon="6.86984">
        <ele>1029.6</ele>
        <time>2020-08-06T09:43:43Z</time>
      </trkpt>
      <trkpt lat="47.91546" lon="6.86986">
        <ele>1030</ele>
        <time>2020-08-06T09:43:44Z</time>
      </trkpt>
      <trkpt lat="47.91551" lon="6.8699">
        <ele>1031</ele>
        <time>2020-08-06T09:43:48Z</time>
      </trkpt>
      <trkpt lat="47.91547" lon="6.86987">
        <ele>1031.4</ele>
        <time>2020-08-06T09:43:56Z</time>
      </trkpt>
      <trkpt lat="47.91545" lon="6.8699">
        <ele>1031.4</ele>
        <time>2020-08-06T09:44:12Z</time>
      </trkpt>
      <trkpt lat="47.91564" lon="6.8701">
        <ele>1032.2</ele>
        <time>2020-08-06T09:44:25Z</time>
      </trkpt>
      <trkpt lat="47.91565" lon="6.87011">
        <ele>1032.4</ele>
        <time>2020-08-06T09:44:26Z</time>
      </trkpt>
      <trkpt lat="47.9157" lon="6.87018">
        <ele>1033</ele>
        <time>2020-08-06T09:44:30Z</time>
      </trkpt>
      <trkpt lat="47.91577" lon="6.8703">
        <ele>1034.2</ele>
        <time>2020-08-06T09:44:35Z</time>
      </trkpt>
      <trkpt lat="47.91583" lon="6.87041">
        <ele>1035.2</ele>
        <time>2020-08-06T09:44:39Z</time>
      </trkpt>
      <trkpt lat="47.9159" lon="6.87054">
        <ele>1036.4</ele>
        <time>2020-08-06T09:44:44Z</time>
      </trkpt>
      <trkpt lat="47.91596" lon="6.87065">
        <ele>1037.6</ele>
        <time>2020-08-06T09:44:48Z</time>
      </trkpt>
      <trkpt lat="47.91602" lon="6.87074">
        <ele>1038.6</ele>
        <time>2020-08-06T09:44:51Z</time>
      </trkpt>
      <trkpt lat="47.91618" lon="6.87091">
        <ele>1039.8</ele>
        <time>2020-08-06T09:44:58Z</time>
      </trkpt>
      <trkpt lat="47.91642" lon="6.87126">
        <ele>1040.8</ele>
        <time>2020-08-06T09:45:10Z</time>
      </trkpt>
      <trkpt lat="47.9165" lon="6.87139">
        <ele>1042</ele>
        <time>2020-08-06T09:45:14Z</time>
      </trkpt>
      <trkpt lat="47.91663" lon="6.87165">
        <ele>1043</ele>
        <time>2020-08-06T09:45:22Z</time>
      </trkpt>
      <trkpt lat="47.91674" lon="6.87182">
        <ele>1044</ele>
        <time>2020-08-06T09:45:28Z</time>
      </trkpt>
      <trkpt lat="47.91684" lon="6.872">
        <ele>1045.2</ele>
        <time>2020-08-06T09:45:33Z</time>
      </trkpt>
      <trkpt lat="47.91707" lon="6.87261">
        <ele>1046.2</ele>
        <time>2020-08-06T09:45:48Z</time>
      </trkpt>
      <trkpt lat="47.91713" lon="6.87284">
        <ele>1047.4</ele>
        <time>2020-08-06T09:45:53Z</time>
      </trkpt>
      <trkpt lat="47.91726" lon="6.87325">
        <ele>1048.4</ele>
        <time>2020-08-06T09:46:03Z</time>
      </trkpt>
      <trkpt lat="47.91755" lon="6.87392">
        <ele>1047.8</ele>
        <time>2020-08-06T09:46:19Z</time>
      </trkpt>
      <trkpt lat="47.91758" lon="6.87399">
        <ele>1046.4</ele>
        <time>2020-08-06T09:46:21Z</time>
      </trkpt>
      <trkpt lat="47.91761" lon="6.87411">
        <ele>1045.2</ele>
        <time>2020-08-06T09:46:24Z</time>
      </trkpt>
      <trkpt lat="47.9176" lon="6.87427">
        <ele>1043.8</ele>
        <time>2020-08-06T09:46:28Z</time>
      </trkpt>
      <trkpt lat="47.91759" lon="6.87436">
        <ele>1042.6</ele>
        <time>2020-08-06T09:46:30Z</time>
      </trkpt>
      <trkpt lat="47.91758" lon="6.87445">
        <ele>1041.6</ele>
        <time>2020-08-06T09:46:32Z</time>
      </trkpt>
      <trkpt lat="47.91756" lon="6.87453">
        <ele>1040.6</ele>
        <time>2020-08-06T09:46:34Z</time>
      </trkpt>
      <trkpt lat="47.91752" lon="6.87461">
        <ele>1039.4</ele>
        <time>2020-08-06T09:46:36Z</time>
      </trkpt>
      <trkpt lat="47.91748" lon="6.87467">
        <ele>1038.6</ele>
        <time>2020-08-06T09:46:38Z</time>
      </trkpt>
      <trkpt lat="47.91743" lon="6.87471">
        <ele>1037.2</ele>
        <time>2020-08-06T09:46:40Z</time>
      </trkpt>
      <trkpt lat="47.91738" lon="6.87477">
        <ele>1036.2</ele>
        <time>2020-08-06T09:46:42Z</time>
      </trkpt>
      <trkpt lat="47.91734" lon="6.87482">
        <ele>1034.8</ele>
        <time>2020-08-06T09:46:44Z</time>
      </trkpt>
      <trkpt lat="47.91729" lon="6.87488">
        <ele>1033.6</ele>
        <time>2020-08-06T09:46:46Z</time>
      </trkpt>
      <trkpt lat="47.91721" lon="6.87496">
        <ele>1032.4</ele>
        <time>2020-08-06T09:46:49Z</time>
      </trkpt>
      <trkpt lat="47.91715" lon="6.87504">
        <ele>1030.8</ele>
        <time>2020-08-06T09:46:52Z</time>
      </trkpt>
      <trkpt lat="47.91708" lon="6.8751">
        <ele>1029.2</ele>
        <time>2020-08-06T09:46:55Z</time>
      </trkpt>
      <trkpt lat="47.91696" lon="6.87518">
        <ele>1028</ele>
        <time>2020-08-06T09:46:59Z</time>
      </trkpt>
      <trkpt lat="47.91692" lon="6.87524">
        <ele>1026.8</ele>
        <time>2020-08-06T09:47:01Z</time>
      </trkpt>
      <trkpt lat="47.91688" lon="6.87533">
        <ele>1025.8</ele>
        <time>2020-08-06T09:47:03Z</time>
      </trkpt>
      <trkpt lat="47.91684" lon="6.87541">
        <ele>1024.4</ele>
        <time>2020-08-06T09:47:05Z</time>
      </trkpt>
      <trkpt lat="47.9168" lon="6.87548">
        <ele>1023</ele>
        <time>2020-08-06T09:47:07Z</time>
      </trkpt>
      <trkpt lat="47.91676" lon="6.87553">
        <ele>1021.4</ele>
        <time>2020-08-06T09:47:09Z</time>
      </trkpt>
      <trkpt lat="47.91667" lon="6.8756">
        <ele>1020.2</ele>
        <time>2020-08-06T09:47:12Z</time>
      </trkpt>
      <trkpt lat="47.91656" lon="6.8757">
        <ele>1019.2</ele>
        <time>2020-08-06T09:47:18Z</time>
      </trkpt>
      <trkpt lat="47.91657" lon="6.87571">
        <ele>1018.2</ele>
        <time>2020-08-06T09:47:21Z</time>
      </trkpt>
      <trkpt lat="47.91657" lon="6.87572">
        <ele>1017.4</ele>
        <time>2020-08-06T09:47:49Z</time>
      </trkpt>
      <trkpt lat="47.91637" lon="6.87611">
        <ele>1016</ele>
        <time>2020-08-06T09:48:15Z</time>
      </trkpt>
      <trkpt lat="47.9163" lon="6.87626">
        <ele>1015</ele>
        <time>2020-08-06T09:48:19Z</time>
      </trkpt>
      <trkpt lat="47.91625" lon="6.87648">
        <ele>1013.4</ele>
        <time>2020-08-06T09:48:24Z</time>
      </trkpt>
      <trkpt lat="47.91628" lon="6.8765">
        <ele>1011.8</ele>
        <time>2020-08-06T09:48:27Z</time>
      </trkpt>
      <trkpt lat="47.9163" lon="6.87647">
        <ele>1010.8</ele>
        <time>2020-08-06T09:48:29Z</time>
      </trkpt>
      <trkpt lat="47.91631" lon="6.87644">
        <ele>1010.4</ele>
        <time>2020-08-06T09:48:30Z</time>
      </trkpt>
      <trkpt lat="47.91638" lon="6.87637">
        <ele>1009</ele>
        <time>2020-08-06T09:48:33Z</time>
      </trkpt>
      <trkpt lat="47.91641" lon="6.87632">
        <ele>1007.8</ele>
        <time>2020-08-06T09:48:35Z</time>
      </trkpt>
      <trkpt lat="47.91645" lon="6.87627">
        <ele>1006.8</ele>
        <time>2020-08-06T09:48:37Z</time>
      </trkpt>
      <trkpt lat="47.91647" lon="6.87624">
        <ele>1005.4</ele>
        <time>2020-08-06T09:48:38Z</time>
      </trkpt>
      <trkpt lat="47.91659" lon="6.87613">
        <ele>1004.2</ele>
        <time>2020-08-06T09:48:43Z</time>
      </trkpt>
      <trkpt lat="47.91671" lon="6.876">
        <ele>1003.4</ele>
        <time>2020-08-06T09:48:48Z</time>
      </trkpt>
      <trkpt lat="47.91677" lon="6.87596">
        <ele>1003</ele>
        <time>2020-08-06T09:48:51Z</time>
      </trkpt>
      <trkpt lat="47.91681" lon="6.87598">
        <ele>1002</ele>
        <time>2020-08-06T09:48:54Z</time>
      </trkpt>
      <trkpt lat="47.91681" lon="6.87598">
        <ele>1000.8</ele>
        <time>2020-08-06T09:48:56Z</time>
      </trkpt>
      <trkpt lat="47.91681" lon="6.87598">
        <ele>999.4</ele>
        <time>2020-08-06T09:48:59Z</time>
      </trkpt>
      <trkpt lat="47.91681" lon="6.87598">
        <ele>998.4</ele>
        <time>2020-08-06T09:49:02Z</time>
      </trkpt>
      <trkpt lat="47.91681" lon="6.87602">
        <ele>998.2</ele>
        <time>2020-08-06T09:50:48Z</time>
      </trkpt>
      <trkpt lat="47.91676" lon="6.87613">
        <ele>997.8</ele>
        <time>2020-08-06T09:50:53Z</time>
      </trkpt>
      <trkpt lat="47.91675" lon="6.87617">
        <ele>997.8</ele>
        <time>2020-08-06T09:50:54Z</time>
      </trkpt>
      <trkpt lat="47.91666" lon="6.87633">
        <ele>996.6</ele>
        <time>2020-08-06T09:50:58Z</time>
      </trkpt>
      <trkpt lat="47.91659" lon="6.87648">
        <ele>995.6</ele>
        <time>2020-08-06T09:51:01Z</time>
      </trkpt>
      <trkpt lat="47.91654" lon="6.87657">
        <ele>994.6</ele>
        <time>2020-08-06T09:51:03Z</time>
      </trkpt>
      <trkpt lat="47.91646" lon="6.87675">
        <ele>993.4</ele>
        <time>2020-08-06T09:51:07Z</time>
      </trkpt>
      <trkpt lat="47.91633" lon="6.87704">
        <ele>992.4</ele>
        <time>2020-08-06T09:51:13Z</time>
      </trkpt>
      <trkpt lat="47.91625" lon="6.8773">
        <ele>991.8</ele>
        <time>2020-08-06T09:51:17Z</time>
      </trkpt>
      <trkpt lat="47.9162" lon="6.8774">
        <ele>991.2</ele>
        <time>2020-08-06T09:51:19Z</time>
      </trkpt>
      <trkpt lat="47.91613" lon="6.87748">
        <ele>989.8</ele>
        <time>2020-08-06T09:51:22Z</time>
      </trkpt>
      <trkpt lat="47.91592" lon="6.87797">
        <ele>989</ele>
        <time>2020-08-06T09:51:33Z</time>
      </trkpt>
      <trkpt lat="47.9159" lon="6.87814">
        <ele>988.8</ele>
        <time>2020-08-06T09:51:35Z</time>
      </trkpt>
      <trkpt lat="47.91589" lon="6.87822">
        <ele>988.6</ele>
        <time>2020-08-06T09:51:36Z</time>
      </trkpt>
      <trkpt lat="47.91584" lon="6.87838">
        <ele>987.4</ele>
        <time>2020-08-06T09:51:38Z</time>
      </trkpt>
      <trkpt lat="47.91581" lon="6.87844">
        <ele>986.6</ele>
        <time>2020-08-06T09:51:39Z</time>
      </trkpt>
      <trkpt lat="47.91579" lon="6.87851">
        <ele>986</ele>
        <time>2020-08-06T09:51:40Z</time>
      </trkpt>
      <trkpt lat="47.91572" lon="6.87931">
        <ele>986</ele>
        <time>2020-08-06T09:52:19Z</time>
      </trkpt>
      <trkpt lat="47.91568" lon="6.88001">
        <ele>987.4</ele>
        <time>2020-08-06T09:52:34Z</time>
      </trkpt>
      <trkpt lat="47.91566" lon="6.88025">
        <ele>988.6</ele>
        <time>2020-08-06T09:52:40Z</time>
      </trkpt>
      <trkpt lat="47.91565" lon="6.88039">
        <ele>989.8</ele>
        <time>2020-08-06T09:52:44Z</time>
      </trkpt>
      <trkpt lat="47.91565" lon="6.88048">
        <ele>990.2</ele>
        <time>2020-08-06T09:52:47Z</time>
      </trkpt>
      <trkpt lat="47.91564" lon="6.88055">
        <ele>991</ele>
        <time>2020-08-06T09:52:50Z</time>
      </trkpt>
      <trkpt lat="47.91563" lon="6.88067">
        <ele>992</ele>
        <time>2020-08-06T09:52:54Z</time>
      </trkpt>
      <trkpt lat="47.91563" lon="6.88082">
        <ele>993.2</ele>
        <time>2020-08-06T09:52:58Z</time>
      </trkpt>
      <trkpt lat="47.91565" lon="6.881">
        <ele>994.2</ele>
        <time>2020-08-06T09:53:03Z</time>
      </trkpt>
      <trkpt lat="47.91567" lon="6.88128">
        <ele>995.2</ele>
        <time>2020-08-06T09:53:10Z</time>
      </trkpt>
      <trkpt lat="47.9157" lon="6.88148">
        <ele>996.2</ele>
        <time>2020-08-06T09:53:15Z</time>
      </trkpt>
      <trkpt lat="47.91572" lon="6.88165">
        <ele>997.4</ele>
        <time>2020-08-06T09:53:20Z</time>
      </trkpt>
      <trkpt lat="47.91573" lon="6.88183">
        <ele>998.6</ele>
        <time>2020-08-06T09:53:25Z</time>
      </trkpt>
      <trkpt lat="47.91575" lon="6.88208">
        <ele>999.8</ele>
        <time>2020-08-06T09:53:31Z</time>
      </trkpt>
      <trkpt lat="47.91577" lon="6.88228">
        <ele>1000.8</ele>
        <time>2020-08-06T09:53:37Z</time>
      </trkpt>
      <trkpt lat="47.91579" lon="6.88248">
        <ele>1002</ele>
        <time>2020-08-06T09:53:43Z</time>
      </trkpt>
      <trkpt lat="47.91583" lon="6.88264">
        <ele>1003.2</ele>
        <time>2020-08-06T09:53:48Z</time>
      </trkpt>
      <trkpt lat="47.91586" lon="6.88277">
        <ele>1004.2</ele>
        <time>2020-08-06T09:53:52Z</time>
      </trkpt>
      <trkpt lat="47.9159" lon="6.88297">
        <ele>1005.4</ele>
        <time>2020-08-06T09:53:57Z</time>
      </trkpt>
      <trkpt lat="47.91596" lon="6.8832">
        <ele>1006.4</ele>
        <time>2020-08-06T09:54:03Z</time>
      </trkpt>
      <trkpt lat="47.91602" lon="6.88341">
        <ele>1007.4</ele>
        <time>2020-08-06T09:54:08Z</time>
      </trkpt>
      <trkpt lat="47.91614" lon="6.88371">
        <ele>1008.6</ele>
        <time>2020-08-06T09:54:16Z</time>
      </trkpt>
      <trkpt lat="47.91632" lon="6.88419">
        <ele>1009.6</ele>
        <time>2020-08-06T09:54:28Z</time>
      </trkpt>
      <trkpt lat="47.91641" lon="6.88456">
        <ele>1010.6</ele>
        <time>2020-08-06T09:54:36Z</time>
      </trkpt>
      <trkpt lat="47.91654" lon="6.88498">
        <ele>1011.8</ele>
        <time>2020-08-06T09:54:46Z</time>
      </trkpt>
      <trkpt lat="47.91661" lon="6.88516">
        <ele>1013</ele>
        <time>2020-08-06T09:54:50Z</time>
      </trkpt>
      <trkpt lat="47.91668" lon="6.88533">
        <ele>1014</ele>
        <time>2020-08-06T09:54:54Z</time>
      </trkpt>
      <trkpt lat="47.91677" lon="6.88558">
        <ele>1015</ele>
        <time>2020-08-06T09:55:00Z</time>
      </trkpt>
      <trkpt lat="47.91691" lon="6.886">
        <ele>1016.4</ele>
        <time>2020-08-06T09:55:11Z</time>
      </trkpt>
      <trkpt lat="47.91719" lon="6.88671">
        <ele>1015.8</ele>
        <time>2020-08-06T09:55:25Z</time>
      </trkpt>
      <trkpt lat="47.91721" lon="6.88676">
        <ele>1015.2</ele>
        <time>2020-08-06T09:55:26Z</time>
      </trkpt>
      <trkpt lat="47.91726" lon="6.88692">
        <ele>1014</ele>
        <time>2020-08-06T09:55:29Z</time>
      </trkpt>
      <trkpt lat="47.9173" lon="6.88705">
        <ele>1012.8</ele>
        <time>2020-08-06T09:55:32Z</time>
      </trkpt>
      <trkpt lat="47.91733" lon="6.88714">
        <ele>1011.6</ele>
        <time>2020-08-06T09:55:34Z</time>
      </trkpt>
      <trkpt lat="47.91736" lon="6.88734">
        <ele>1010.4</ele>
        <time>2020-08-06T09:55:38Z</time>
      </trkpt>
      <trkpt lat="47.91735" lon="6.8875">
        <ele>1008.6</ele>
        <time>2020-08-06T09:55:41Z</time>
      </trkpt>
      <trkpt lat="47.91732" lon="6.88759">
        <ele>1007.4</ele>
        <time>2020-08-06T09:55:43Z</time>
      </trkpt>
      <trkpt lat="47.91729" lon="6.88768">
        <ele>1006</ele>
        <time>2020-08-06T09:55:45Z</time>
      </trkpt>
      <trkpt lat="47.91725" lon="6.88778">
        <ele>1004.6</ele>
        <time>2020-08-06T09:55:47Z</time>
      </trkpt>
      <trkpt lat="47.91721" lon="6.88788">
        <ele>1003.4</ele>
        <time>2020-08-06T09:55:49Z</time>
      </trkpt>
      <trkpt lat="47.91717" lon="6.88797">
        <ele>1001.6</ele>
        <time>2020-08-06T09:55:51Z</time>
      </trkpt>
      <trkpt lat="47.91715" lon="6.88801">
        <ele>1000.6</ele>
        <time>2020-08-06T09:55:52Z</time>
      </trkpt>
      <trkpt lat="47.91712" lon="6.8881">
        <ele>999.2</ele>
        <time>2020-08-06T09:55:54Z</time>
      </trkpt>
      <trkpt lat="47.91707" lon="6.88824">
        <ele>997.8</ele>
        <time>2020-08-06T09:55:57Z</time>
      </trkpt>
      <trkpt lat="47.91703" lon="6.88834">
        <ele>996.4</ele>
        <time>2020-08-06T09:55:59Z</time>
      </trkpt>
      <trkpt lat="47.91698" lon="6.88844">
        <ele>995.2</ele>
        <time>2020-08-06T09:56:01Z</time>
      </trkpt>
      <trkpt lat="47.91694" lon="6.88851">
        <ele>994</ele>
        <time>2020-08-06T09:56:03Z</time>
      </trkpt>
      <trkpt lat="47.91692" lon="6.88859">
        <ele>992.8</ele>
        <time>2020-08-06T09:56:05Z</time>
      </trkpt>
      <trkpt lat="47.91683" lon="6.88888">
        <ele>991.6</ele>
        <time>2020-08-06T09:56:11Z</time>
      </trkpt>
      <trkpt lat="47.91678" lon="6.88898">
        <ele>990.6</ele>
        <time>2020-08-06T09:56:14Z</time>
      </trkpt>
      <trkpt lat="47.91674" lon="6.88906">
        <ele>989.4</ele>
        <time>2020-08-06T09:56:16Z</time>
      </trkpt>
      <trkpt lat="47.91669" lon="6.88914">
        <ele>988.2</ele>
        <time>2020-08-06T09:56:18Z</time>
      </trkpt>
      <trkpt lat="47.91665" lon="6.88928">
        <ele>986.8</ele>
        <time>2020-08-06T09:56:21Z</time>
      </trkpt>
      <trkpt lat="47.91662" lon="6.88938">
        <ele>985.4</ele>
        <time>2020-08-06T09:56:24Z</time>
      </trkpt>
      <trkpt lat="47.91661" lon="6.88941">
        <ele>984.4</ele>
        <time>2020-08-06T09:56:25Z</time>
      </trkpt>
      <trkpt lat="47.91661" lon="6.88945">
        <ele>983.2</ele>
        <time>2020-08-06T09:56:27Z</time>
      </trkpt>
      <trkpt lat="47.91662" lon="6.88945">
        <ele>982</ele>
        <time>2020-08-06T09:56:32Z</time>
      </trkpt>
      <trkpt lat="47.91662" lon="6.88945">
        <ele>980.8</ele>
        <time>2020-08-06T09:56:36Z</time>
      </trkpt>
      <trkpt lat="47.91661" lon="6.88949">
        <ele>980.8</ele>
        <time>2020-08-06T09:57:07Z</time>
      </trkpt>
      <trkpt lat="47.91649" lon="6.88967">
        <ele>979.6</ele>
        <time>2020-08-06T09:57:15Z</time>
      </trkpt>
      <trkpt lat="47.91645" lon="6.88974">
        <ele>978.6</ele>
        <time>2020-08-06T09:57:18Z</time>
      </trkpt>
      <trkpt lat="47.91643" lon="6.8898">
        <ele>977.4</ele>
        <time>2020-08-06T09:57:20Z</time>
      </trkpt>
      <trkpt lat="47.91639" lon="6.88986">
        <ele>976.2</ele>
        <time>2020-08-06T09:57:22Z</time>
      </trkpt>
      <trkpt lat="47.91637" lon="6.88995">
        <ele>975</ele>
        <time>2020-08-06T09:57:26Z</time>
      </trkpt>
      <trkpt lat="47.91638" lon="6.88998">
        <ele>973.6</ele>
        <time>2020-08-06T09:57:29Z</time>
      </trkpt>
      <trkpt lat="47.91638" lon="6.88998">
        <ele>972.8</ele>
        <time>2020-08-06T09:57:33Z</time>
      </trkpt>
      <trkpt lat="47.91638" lon="6.89">
        <ele>972.8</ele>
        <time>2020-08-06T09:57:50Z</time>
      </trkpt>
      <trkpt lat="47.91632" lon="6.89027">
        <ele>971.4</ele>
        <time>2020-08-06T09:58:00Z</time>
      </trkpt>
      <trkpt lat="47.91625" lon="6.8904">
        <ele>970.4</ele>
        <time>2020-08-06T09:58:03Z</time>
      </trkpt>
      <trkpt lat="47.9161" lon="6.8907">
        <ele>969</ele>
        <time>2020-08-06T09:58:08Z</time>
      </trkpt>
      <trkpt lat="47.91606" lon="6.89075">
        <ele>968.2</ele>
        <time>2020-08-06T09:58:09Z</time>
      </trkpt>
      <trkpt lat="47.91602" lon="6.89079">
        <ele>967.4</ele>
        <time>2020-08-06T09:58:10Z</time>
      </trkpt>
      <trkpt lat="47.91596" lon="6.89084">
        <ele>966</ele>
        <time>2020-08-06T09:58:12Z</time>
      </trkpt>
      <trkpt lat="47.91592" lon="6.89089">
        <ele>964</ele>
        <time>2020-08-06T09:58:14Z</time>
      </trkpt>
      <trkpt lat="47.91588" lon="6.89094">
        <ele>962</ele>
        <time>2020-08-06T09:58:16Z</time>
      </trkpt>
      <trkpt lat="47.91586" lon="6.891">
        <ele>961.2</ele>
        <time>2020-08-06T09:58:18Z</time>
      </trkpt>
      <trkpt lat="47.91585" lon="6.89103">
        <ele>960.8</ele>
        <time>2020-08-06T09:58:19Z</time>
      </trkpt>
      <trkpt lat="47.91583" lon="6.89104">
        <ele>960.6</ele>
        <time>2020-08-06T10:01:55Z</time>
      </trkpt>
      <trkpt lat="47.91575" lon="6.8911">
        <ele>960.6</ele>
        <time>2020-08-06T10:02:00Z</time>
      </trkpt>
      <trkpt lat="47.91565" lon="6.89138">
        <ele>960</ele>
        <time>2020-08-06T10:02:06Z</time>
      </trkpt>
      <trkpt lat="47.91564" lon="6.89163">
        <ele>958.8</ele>
        <time>2020-08-06T10:02:10Z</time>
      </trkpt>
      <trkpt lat="47.91562" lon="6.89177">
        <ele>958</ele>
        <time>2020-08-06T10:02:12Z</time>
      </trkpt>
      <trkpt lat="47.91559" lon="6.89183">
        <ele>957.6</ele>
        <time>2020-08-06T10:02:13Z</time>
      </trkpt>
      <trkpt lat="47.91553" lon="6.89196">
        <ele>956.4</ele>
        <time>2020-08-06T10:02:15Z</time>
      </trkpt>
      <trkpt lat="47.91547" lon="6.89209">
        <ele>954.8</ele>
        <time>2020-08-06T10:02:17Z</time>
      </trkpt>
      <trkpt lat="47.91541" lon="6.89222">
        <ele>953.6</ele>
        <time>2020-08-06T10:02:19Z</time>
      </trkpt>
      <trkpt lat="47.91537" lon="6.89237">
        <ele>952.4</ele>
        <time>2020-08-06T10:02:21Z</time>
      </trkpt>
      <trkpt lat="47.91537" lon="6.89262">
        <ele>951</ele>
        <time>2020-08-06T10:02:24Z</time>
      </trkpt>
      <trkpt lat="47.91538" lon="6.89272">
        <ele>949.6</ele>
        <time>2020-08-06T10:02:25Z</time>
      </trkpt>
      <trkpt lat="47.91541" lon="6.89293">
        <ele>948</ele>
        <time>2020-08-06T10:02:27Z</time>
      </trkpt>
      <trkpt lat="47.91542" lon="6.89304">
        <ele>947.2</ele>
        <time>2020-08-06T10:02:28Z</time>
      </trkpt>
      <trkpt lat="47.91543" lon="6.89315">
        <ele>946.6</ele>
        <time>2020-08-06T10:02:29Z</time>
      </trkpt>
      <trkpt lat="47.91541" lon="6.89339">
        <ele>945.4</ele>
        <time>2020-08-06T10:02:31Z</time>
      </trkpt>
      <trkpt lat="47.9154" lon="6.89361">
        <ele>944.4</ele>
        <time>2020-08-06T10:02:33Z</time>
      </trkpt>
      <trkpt lat="47.91544" lon="6.89392">
        <ele>943.4</ele>
        <time>2020-08-06T10:02:38Z</time>
      </trkpt>
      <trkpt lat="47.91544" lon="6.89435">
        <ele>944.4</ele>
        <time>2020-08-06T10:02:48Z</time>
      </trkpt>
      <trkpt lat="47.91544" lon="6.89452">
        <ele>945.4</ele>
        <time>2020-08-06T10:02:53Z</time>
      </trkpt>
      <trkpt lat="47.91541" lon="6.89473">
        <ele>946.4</ele>
        <time>2020-08-06T10:02:58Z</time>
      </trkpt>
      <trkpt lat="47.9154" lon="6.89488">
        <ele>947.6</ele>
        <time>2020-08-06T10:03:01Z</time>
      </trkpt>
      <trkpt lat="47.91535" lon="6.89511">
        <ele>948.8</ele>
        <time>2020-08-06T10:03:06Z</time>
      </trkpt>
      <trkpt lat="47.91533" lon="6.89527">
        <ele>950</ele>
        <time>2020-08-06T10:03:10Z</time>
      </trkpt>
      <trkpt lat="47.91527" lon="6.89545">
        <ele>951</ele>
        <time>2020-08-06T10:03:15Z</time>
      </trkpt>
      <trkpt lat="47.91519" lon="6.89558">
        <ele>952.2</ele>
        <time>2020-08-06T10:03:19Z</time>
      </trkpt>
      <trkpt lat="47.9151" lon="6.89572">
        <ele>953.2</ele>
        <time>2020-08-06T10:03:23Z</time>
      </trkpt>
      <trkpt lat="47.91499" lon="6.89595">
        <ele>954.4</ele>
        <time>2020-08-06T10:03:30Z</time>
      </trkpt>
      <trkpt lat="47.91492" lon="6.89608">
        <ele>955.6</ele>
        <time>2020-08-06T10:03:34Z</time>
      </trkpt>
      <trkpt lat="47.91467" lon="6.89679">
        <ele>955.4</ele>
        <time>2020-08-06T10:03:51Z</time>
      </trkpt>
      <trkpt lat="47.91451" lon="6.89748">
        <ele>956.4</ele>
        <time>2020-08-06T10:04:06Z</time>
      </trkpt>
      <trkpt lat="47.91449" lon="6.8976">
        <ele>957.6</ele>
        <time>2020-08-06T10:04:09Z</time>
      </trkpt>
      <trkpt lat="47.9141" lon="6.89822">
        <ele>958.8</ele>
        <time>2020-08-06T10:04:24Z</time>
      </trkpt>
      <trkpt lat="47.91403" lon="6.89836">
        <ele>958.8</ele>
        <time>2020-08-06T10:04:27Z</time>
      </trkpt>
      <trkpt lat="47.91379" lon="6.89907">
        <ele>959.8</ele>
        <time>2020-08-06T10:04:45Z</time>
      </trkpt>
      <trkpt lat="47.91383" lon="6.89957">
        <ele>959.4</ele>
        <time>2020-08-06T10:04:54Z</time>
      </trkpt>
      <trkpt lat="47.91387" lon="6.89969">
        <ele>959.4</ele>
        <time>2020-08-06T10:04:56Z</time>
      </trkpt>
      <trkpt lat="47.91394" lon="6.89984">
        <ele>959.4</ele>
        <time>2020-08-06T10:04:59Z</time>
      </trkpt>
      <trkpt lat="47.91416" lon="6.90061">
        <ele>958.6</ele>
        <time>2020-08-06T10:05:12Z</time>
      </trkpt>
      <trkpt lat="47.91436" lon="6.9012">
        <ele>958.6</ele>
        <time>2020-08-06T10:05:21Z</time>
      </trkpt>
      <trkpt lat="47.9144" lon="6.90138">
        <ele>958.4</ele>
        <time>2020-08-06T10:05:23Z</time>
      </trkpt>
      <trkpt lat="47.91446" lon="6.90222">
        <ele>958.4</ele>
        <time>2020-08-06T10:05:33Z</time>
      </trkpt>
      <trkpt lat="47.91446" lon="6.90236">
        <ele>958.4</ele>
        <time>2020-08-06T10:05:35Z</time>
      </trkpt>
      <trkpt lat="47.91447" lon="6.90257">
        <ele>959</ele>
        <time>2020-08-06T10:05:38Z</time>
      </trkpt>
      <trkpt lat="47.91452" lon="6.90338">
        <ele>959.8</ele>
        <time>2020-08-06T10:05:50Z</time>
      </trkpt>
      <trkpt lat="47.91468" lon="6.90416">
        <ele>959.6</ele>
        <time>2020-08-06T10:06:01Z</time>
      </trkpt>
      <trkpt lat="47.91493" lon="6.90488">
        <ele>958.4</ele>
        <time>2020-08-06T10:06:11Z</time>
      </trkpt>
      <trkpt lat="47.91496" lon="6.90495">
        <ele>958.2</ele>
        <time>2020-08-06T10:06:12Z</time>
      </trkpt>
      <trkpt lat="47.91525" lon="6.9055">
        <ele>957.4</ele>
        <time>2020-08-06T10:06:20Z</time>
      </trkpt>
      <trkpt lat="47.91543" lon="6.90578">
        <ele>956.2</ele>
        <time>2020-08-06T10:06:25Z</time>
      </trkpt>
      <trkpt lat="47.91561" lon="6.90618">
        <ele>955.6</ele>
        <time>2020-08-06T10:06:31Z</time>
      </trkpt>
      <trkpt lat="47.91574" lon="6.90643">
        <ele>955.6</ele>
        <time>2020-08-06T10:06:35Z</time>
      </trkpt>
      <trkpt lat="47.91586" lon="6.90659">
        <ele>955.8</ele>
        <time>2020-08-06T10:06:38Z</time>
      </trkpt>
      <trkpt lat="47.91605" lon="6.90703">
        <ele>956.2</ele>
        <time>2020-08-06T10:06:45Z</time>
      </trkpt>
      <trkpt lat="47.91632" lon="6.90778">
        <ele>956.6</ele>
        <time>2020-08-06T10:06:58Z</time>
      </trkpt>
      <trkpt lat="47.91641" lon="6.90808">
        <ele>957.2</ele>
        <time>2020-08-06T10:07:03Z</time>
      </trkpt>
      <trkpt lat="47.91645" lon="6.90839">
        <ele>957.4</ele>
        <time>2020-08-06T10:07:07Z</time>
      </trkpt>
      <trkpt lat="47.9164" lon="6.90876">
        <ele>957.2</ele>
        <time>2020-08-06T10:07:12Z</time>
      </trkpt>
      <trkpt lat="47.91638" lon="6.9089">
        <ele>957.4</ele>
        <time>2020-08-06T10:07:14Z</time>
      </trkpt>
      <trkpt lat="47.91633" lon="6.90911">
        <ele>957.4</ele>
        <time>2020-08-06T10:07:17Z</time>
      </trkpt>
      <trkpt lat="47.91631" lon="6.90918">
        <ele>957.4</ele>
        <time>2020-08-06T10:07:18Z</time>
      </trkpt>
      <trkpt lat="47.91599" lon="6.90982">
        <ele>957</ele>
        <time>2020-08-06T10:07:28Z</time>
      </trkpt>
      <trkpt lat="47.91595" lon="6.90989">
        <ele>956.8</ele>
        <time>2020-08-06T10:07:29Z</time>
      </trkpt>
      <trkpt lat="47.91593" lon="6.91038">
        <ele>956</ele>
        <time>2020-08-06T10:07:35Z</time>
      </trkpt>
      <trkpt lat="47.91596" lon="6.91064">
        <ele>955.4</ele>
        <time>2020-08-06T10:07:38Z</time>
      </trkpt>
      <trkpt lat="47.91601" lon="6.91098">
        <ele>954.4</ele>
        <time>2020-08-06T10:07:42Z</time>
      </trkpt>
      <trkpt lat="47.91604" lon="6.91114">
        <ele>953.8</ele>
        <time>2020-08-06T10:07:44Z</time>
      </trkpt>
      <trkpt lat="47.91605" lon="6.91129">
        <ele>953.2</ele>
        <time>2020-08-06T10:07:46Z</time>
      </trkpt>
      <trkpt lat="47.91606" lon="6.91138">
        <ele>953</ele>
        <time>2020-08-06T10:07:47Z</time>
      </trkpt>
      <trkpt lat="47.91606" lon="6.9117">
        <ele>952</ele>
        <time>2020-08-06T10:07:51Z</time>
      </trkpt>
      <trkpt lat="47.91605" lon="6.912">
        <ele>951.6</ele>
        <time>2020-08-06T10:07:55Z</time>
      </trkpt>
      <trkpt lat="47.91611" lon="6.9128">
        <ele>951.6</ele>
        <time>2020-08-06T10:08:05Z</time>
      </trkpt>
      <trkpt lat="47.91612" lon="6.91286">
        <ele>951.6</ele>
        <time>2020-08-06T10:08:06Z</time>
      </trkpt>
      <trkpt lat="47.91618" lon="6.91331">
        <ele>952</ele>
        <time>2020-08-06T10:08:12Z</time>
      </trkpt>
      <trkpt lat="47.91614" lon="6.91406">
        <ele>953</ele>
        <time>2020-08-06T10:08:24Z</time>
      </trkpt>
      <trkpt lat="47.91605" lon="6.91443">
        <ele>953.2</ele>
        <time>2020-08-06T10:08:30Z</time>
      </trkpt>
      <trkpt lat="47.91601" lon="6.91465">
        <ele>953.2</ele>
        <time>2020-08-06T10:08:33Z</time>
      </trkpt>
      <trkpt lat="47.91599" lon="6.91506">
        <ele>953.2</ele>
        <time>2020-08-06T10:08:38Z</time>
      </trkpt>
      <trkpt lat="47.91601" lon="6.91531">
        <ele>953</ele>
        <time>2020-08-06T10:08:41Z</time>
      </trkpt>
      <trkpt lat="47.91572" lon="6.91561">
        <ele>952.2</ele>
        <time>2020-08-06T10:08:50Z</time>
      </trkpt>
      <trkpt lat="47.91563" lon="6.91562">
        <ele>951.8</ele>
        <time>2020-08-06T10:08:55Z</time>
      </trkpt>
      <trkpt lat="47.91556" lon="6.91563">
        <ele>950.6</ele>
        <time>2020-08-06T10:09:03Z</time>
      </trkpt>
      <trkpt lat="47.91506" lon="6.91586">
        <ele>949.4</ele>
        <time>2020-08-06T10:11:39Z</time>
      </trkpt>
      <trkpt lat="47.91485" lon="6.91605">
        <ele>949.2</ele>
        <time>2020-08-06T10:11:46Z</time>
      </trkpt>
      <trkpt lat="47.91478" lon="6.91631">
        <ele>948.8</ele>
        <time>2020-08-06T10:11:50Z</time>
      </trkpt>
      <trkpt lat="47.91476" lon="6.9165">
        <ele>948.4</ele>
        <time>2020-08-06T10:11:53Z</time>
      </trkpt>
      <trkpt lat="47.91479" lon="6.9168">
        <ele>948.4</ele>
        <time>2020-08-06T10:11:58Z</time>
      </trkpt>
      <trkpt lat="47.91482" lon="6.91693">
        <ele>948</ele>
        <time>2020-08-06T10:12:00Z</time>
      </trkpt>
      <trkpt lat="47.91491" lon="6.91722">
        <ele>948</ele>
        <time>2020-08-06T10:12:04Z</time>
      </trkpt>
      <trkpt lat="47.91494" lon="6.91737">
        <ele>948</ele>
        <time>2020-08-06T10:12:06Z</time>
      </trkpt>
      <trkpt lat="47.91496" lon="6.91744">
        <ele>947.8</ele>
        <time>2020-08-06T10:12:07Z</time>
      </trkpt>
      <trkpt lat="47.91498" lon="6.91758">
        <ele>947</ele>
        <time>2020-08-06T10:12:09Z</time>
      </trkpt>
      <trkpt lat="47.91505" lon="6.91787">
        <ele>946.4</ele>
        <time>2020-08-06T10:12:14Z</time>
      </trkpt>
      <trkpt lat="47.9154" lon="6.91848">
        <ele>946</ele>
        <time>2020-08-06T10:12:28Z</time>
      </trkpt>
      <trkpt lat="47.91572" lon="6.91913">
        <ele>947</ele>
        <time>2020-08-06T10:12:41Z</time>
      </trkpt>
      <trkpt lat="47.91614" lon="6.91964">
        <ele>947.6</ele>
        <time>2020-08-06T10:12:53Z</time>
      </trkpt>
      <trkpt lat="47.91628" lon="6.9197">
        <ele>948.2</ele>
        <time>2020-08-06T10:12:58Z</time>
      </trkpt>
      <trkpt lat="47.91641" lon="6.91973">
        <ele>949.2</ele>
        <time>2020-08-06T10:13:03Z</time>
      </trkpt>
      <trkpt lat="47.91658" lon="6.91995">
        <ele>950.4</ele>
        <time>2020-08-06T10:13:11Z</time>
      </trkpt>
      <trkpt lat="47.91678" lon="6.92011">
        <ele>951.6</ele>
        <time>2020-08-06T10:13:18Z</time>
      </trkpt>
      <trkpt lat="47.91691" lon="6.92019">
        <ele>952.6</ele>
        <time>2020-08-06T10:13:22Z</time>
      </trkpt>
      <trkpt lat="47.91706" lon="6.92035">
        <ele>953.6</ele>
        <time>2020-08-06T10:13:28Z</time>
      </trkpt>
      <trkpt lat="47.91708" lon="6.92062">
        <ele>954.2</ele>
        <time>2020-08-06T10:13:56Z</time>
      </trkpt>
      <trkpt lat="47.91708" lon="6.92063">
        <ele>954.4</ele>
        <time>2020-08-06T10:14:38Z</time>
      </trkpt>
      <trkpt lat="47.91705" lon="6.9207">
        <ele>955</ele>
        <time>2020-08-06T10:14:48Z</time>
      </trkpt>
      <trkpt lat="47.91697" lon="6.92086">
        <ele>955</ele>
        <time>2020-08-06T10:14:53Z</time>
      </trkpt>
      <trkpt lat="47.91684" lon="6.92115">
        <ele>955.6</ele>
        <time>2020-08-06T10:15:03Z</time>
      </trkpt>
      <trkpt lat="47.91682" lon="6.92117">
        <ele>956</ele>
        <time>2020-08-06T10:15:05Z</time>
      </trkpt>
      <trkpt lat="47.91678" lon="6.92119">
        <ele>956.6</ele>
        <time>2020-08-06T10:15:08Z</time>
      </trkpt>
      <trkpt lat="47.91671" lon="6.92126">
        <ele>957.8</ele>
        <time>2020-08-06T10:15:13Z</time>
      </trkpt>
      <trkpt lat="47.91668" lon="6.9213">
        <ele>958.4</ele>
        <time>2020-08-06T10:15:15Z</time>
      </trkpt>
      <trkpt lat="47.91666" lon="6.92136">
        <ele>959</ele>
        <time>2020-08-06T10:15:17Z</time>
      </trkpt>
      <trkpt lat="47.91664" lon="6.92147">
        <ele>960</ele>
        <time>2020-08-06T10:15:21Z</time>
      </trkpt>
      <trkpt lat="47.91664" lon="6.92159">
        <ele>961</ele>
        <time>2020-08-06T10:15:26Z</time>
      </trkpt>
      <trkpt lat="47.91666" lon="6.92172">
        <ele>962.4</ele>
        <time>2020-08-06T10:15:31Z</time>
      </trkpt>
      <trkpt lat="47.91668" lon="6.92185">
        <ele>963.6</ele>
        <time>2020-08-06T10:15:36Z</time>
      </trkpt>
      <trkpt lat="47.91671" lon="6.92193">
        <ele>964.6</ele>
        <time>2020-08-06T10:15:39Z</time>
      </trkpt>
      <trkpt lat="47.91673" lon="6.92205">
        <ele>965.8</ele>
        <time>2020-08-06T10:15:43Z</time>
      </trkpt>
      <trkpt lat="47.91677" lon="6.9222">
        <ele>966.8</ele>
        <time>2020-08-06T10:15:49Z</time>
      </trkpt>
      <trkpt lat="47.91678" lon="6.92231">
        <ele>968</ele>
        <time>2020-08-06T10:15:55Z</time>
      </trkpt>
      <trkpt lat="47.91678" lon="6.92235">
        <ele>968.2</ele>
        <time>2020-08-06T10:15:57Z</time>
      </trkpt>
      <trkpt lat="47.91679" lon="6.92238">
        <ele>968.6</ele>
        <time>2020-08-06T10:15:59Z</time>
      </trkpt>
      <trkpt lat="47.91679" lon="6.92242">
        <ele>969</ele>
        <time>2020-08-06T10:16:01Z</time>
      </trkpt>
      <trkpt lat="47.91679" lon="6.92246">
        <ele>969.6</ele>
        <time>2020-08-06T10:16:03Z</time>
      </trkpt>
      <trkpt lat="47.91679" lon="6.9225">
        <ele>970</ele>
        <time>2020-08-06T10:16:05Z</time>
      </trkpt>
      <trkpt lat="47.91679" lon="6.92259">
        <ele>971.4</ele>
        <time>2020-08-06T10:16:09Z</time>
      </trkpt>
      <trkpt lat="47.91679" lon="6.92269">
        <ele>972.6</ele>
        <time>2020-08-06T10:16:13Z</time>
      </trkpt>
      <trkpt lat="47.91682" lon="6.92281">
        <ele>974</ele>
        <time>2020-08-06T10:16:18Z</time>
      </trkpt>
      <trkpt lat="47.91684" lon="6.92289">
        <ele>974.8</ele>
        <time>2020-08-06T10:16:22Z</time>
      </trkpt>
      <trkpt lat="47.91687" lon="6.92297">
        <ele>976</ele>
        <time>2020-08-06T10:16:27Z</time>
      </trkpt>
      <trkpt lat="47.9169" lon="6.92306">
        <ele>977.2</ele>
        <time>2020-08-06T10:16:31Z</time>
      </trkpt>
      <trkpt lat="47.91693" lon="6.92317">
        <ele>978.4</ele>
        <time>2020-08-06T10:16:36Z</time>
      </trkpt>
      <trkpt lat="47.91694" lon="6.92327">
        <ele>979.6</ele>
        <time>2020-08-06T10:16:41Z</time>
      </trkpt>
      <trkpt lat="47.91695" lon="6.92338">
        <ele>980.6</ele>
        <time>2020-08-06T10:16:46Z</time>
      </trkpt>
      <trkpt lat="47.91696" lon="6.92343">
        <ele>981.4</ele>
        <time>2020-08-06T10:16:49Z</time>
      </trkpt>
      <trkpt lat="47.91696" lon="6.92344">
        <ele>981.6</ele>
        <time>2020-08-06T10:16:51Z</time>
      </trkpt>
      <trkpt lat="47.917" lon="6.92342">
        <ele>982.4</ele>
        <time>2020-08-06T10:17:08Z</time>
      </trkpt>
      <trkpt lat="47.91711" lon="6.92346">
        <ele>982.8</ele>
        <time>2020-08-06T10:17:17Z</time>
      </trkpt>
      <trkpt lat="47.91716" lon="6.92347">
        <ele>984</ele>
        <time>2020-08-06T10:17:21Z</time>
      </trkpt>
      <trkpt lat="47.91718" lon="6.9235">
        <ele>985.2</ele>
        <time>2020-08-06T10:17:23Z</time>
      </trkpt>
      <trkpt lat="47.9172" lon="6.92353">
        <ele>986.2</ele>
        <time>2020-08-06T10:17:25Z</time>
      </trkpt>
      <trkpt lat="47.91723" lon="6.92358">
        <ele>987.4</ele>
        <time>2020-08-06T10:17:28Z</time>
      </trkpt>
      <trkpt lat="47.91726" lon="6.92363">
        <ele>988.8</ele>
        <time>2020-08-06T10:17:32Z</time>
      </trkpt>
      <trkpt lat="47.91727" lon="6.92365">
        <ele>989</ele>
        <time>2020-08-06T10:17:33Z</time>
      </trkpt>
      <trkpt lat="47.91728" lon="6.92373">
        <ele>990</ele>
        <time>2020-08-06T10:17:37Z</time>
      </trkpt>
      <trkpt lat="47.91727" lon="6.92382">
        <ele>991.2</ele>
        <time>2020-08-06T10:17:41Z</time>
      </trkpt>
      <trkpt lat="47.91723" lon="6.9239">
        <ele>992.4</ele>
        <time>2020-08-06T10:17:47Z</time>
      </trkpt>
      <trkpt lat="47.91719" lon="6.92391">
        <ele>993</ele>
        <time>2020-08-06T10:17:51Z</time>
      </trkpt>
      <trkpt lat="47.91717" lon="6.92391">
        <ele>993.4</ele>
        <time>2020-08-06T10:17:54Z</time>
      </trkpt>
      <trkpt lat="47.91712" lon="6.92393">
        <ele>994.4</ele>
        <time>2020-08-06T10:17:58Z</time>
      </trkpt>
      <trkpt lat="47.9171" lon="6.92393">
        <ele>994.8</ele>
        <time>2020-08-06T10:18:00Z</time>
      </trkpt>
      <trkpt lat="47.91708" lon="6.92394">
        <ele>995.2</ele>
        <time>2020-08-06T10:18:02Z</time>
      </trkpt>
      <trkpt lat="47.91707" lon="6.92394">
        <ele>995.6</ele>
        <time>2020-08-06T10:18:03Z</time>
      </trkpt>
      <trkpt lat="47.91703" lon="6.92393">
        <ele>996.8</ele>
        <time>2020-08-06T10:18:06Z</time>
      </trkpt>
      <trkpt lat="47.91698" lon="6.92393">
        <ele>998</ele>
        <time>2020-08-06T10:18:10Z</time>
      </trkpt>
      <trkpt lat="47.91695" lon="6.92394">
        <ele>998.6</ele>
        <time>2020-08-06T10:18:13Z</time>
      </trkpt>
      <trkpt lat="47.91692" lon="6.92395">
        <ele>999.2</ele>
        <time>2020-08-06T10:18:16Z</time>
      </trkpt>
      <trkpt lat="47.9169" lon="6.92396">
        <ele>999.4</ele>
        <time>2020-08-06T10:18:17Z</time>
      </trkpt>
      <trkpt lat="47.91685" lon="6.92398">
        <ele>1000.4</ele>
        <time>2020-08-06T10:18:21Z</time>
      </trkpt>
      <trkpt lat="47.91678" lon="6.924">
        <ele>1001.6</ele>
        <time>2020-08-06T10:18:26Z</time>
      </trkpt>
      <trkpt lat="47.91671" lon="6.92402">
        <ele>1002.8</ele>
        <time>2020-08-06T10:18:31Z</time>
      </trkpt>
      <trkpt lat="47.91663" lon="6.92404">
        <ele>1004</ele>
        <time>2020-08-06T10:18:37Z</time>
      </trkpt>
      <trkpt lat="47.91655" lon="6.92406">
        <ele>1005</ele>
        <time>2020-08-06T10:18:43Z</time>
      </trkpt>
      <trkpt lat="47.91647" lon="6.92408">
        <ele>1006.2</ele>
        <time>2020-08-06T10:18:48Z</time>
      </trkpt>
      <trkpt lat="47.91638" lon="6.9241">
        <ele>1007.4</ele>
        <time>2020-08-06T10:18:54Z</time>
      </trkpt>
      <trkpt lat="47.91636" lon="6.9241">
        <ele>1007.6</ele>
        <time>2020-08-06T10:18:55Z</time>
      </trkpt>
      <trkpt lat="47.9163" lon="6.92411">
        <ele>1008.4</ele>
        <time>2020-08-06T10:18:59Z</time>
      </trkpt>
      <trkpt lat="47.9162" lon="6.92412">
        <ele>1009.8</ele>
        <time>2020-08-06T10:19:05Z</time>
      </trkpt>
      <trkpt lat="47.91618" lon="6.92412">
        <ele>1010</ele>
        <time>2020-08-06T10:19:06Z</time>
      </trkpt>
      <trkpt lat="47.91614" lon="6.92412">
        <ele>1010.6</ele>
        <time>2020-08-06T10:19:09Z</time>
      </trkpt>
      <trkpt lat="47.91613" lon="6.92412">
        <ele>1010.8</ele>
        <time>2020-08-06T10:19:10Z</time>
      </trkpt>
      <trkpt lat="47.91608" lon="6.92413">
        <ele>1011.4</ele>
        <time>2020-08-06T10:19:13Z</time>
      </trkpt>
      <trkpt lat="47.91603" lon="6.92414">
        <ele>1012</ele>
        <time>2020-08-06T10:19:16Z</time>
      </trkpt>
      <trkpt lat="47.91594" lon="6.92416">
        <ele>1013.2</ele>
        <time>2020-08-06T10:19:22Z</time>
      </trkpt>
      <trkpt lat="47.91586" lon="6.92419">
        <ele>1014</ele>
        <time>2020-08-06T10:19:27Z</time>
      </trkpt>
      <trkpt lat="47.91585" lon="6.92419">
        <ele>1014.4</ele>
        <time>2020-08-06T10:19:28Z</time>
      </trkpt>
      <trkpt lat="47.91574" lon="6.92421">
        <ele>1015.2</ele>
        <time>2020-08-06T10:19:34Z</time>
      </trkpt>
      <trkpt lat="47.91573" lon="6.92421">
        <ele>1015.4</ele>
        <time>2020-08-06T10:19:35Z</time>
      </trkpt>
      <trkpt lat="47.91565" lon="6.92421">
        <ele>1016.6</ele>
        <time>2020-08-06T10:19:40Z</time>
      </trkpt>
      <trkpt lat="47.91559" lon="6.92421">
        <ele>1017.6</ele>
        <time>2020-08-06T10:19:44Z</time>
      </trkpt>
      <trkpt lat="47.91558" lon="6.92421">
        <ele>1017.6</ele>
        <time>2020-08-06T10:19:45Z</time>
      </trkpt>
      <trkpt lat="47.91556" lon="6.92423">
        <ele>1018</ele>
        <time>2020-08-06T10:19:47Z</time>
      </trkpt>
      <trkpt lat="47.91551" lon="6.92423">
        <ele>1018.8</ele>
        <time>2020-08-06T10:19:50Z</time>
      </trkpt>
      <trkpt lat="47.91546" lon="6.92424">
        <ele>1019.4</ele>
        <time>2020-08-06T10:19:53Z</time>
      </trkpt>
      <trkpt lat="47.91544" lon="6.92424">
        <ele>1019.8</ele>
        <time>2020-08-06T10:19:55Z</time>
      </trkpt>
      <trkpt lat="47.91538" lon="6.92426">
        <ele>1020.8</ele>
        <time>2020-08-06T10:19:59Z</time>
      </trkpt>
      <trkpt lat="47.91532" lon="6.92426">
        <ele>1022</ele>
        <time>2020-08-06T10:20:03Z</time>
      </trkpt>
      <trkpt lat="47.91524" lon="6.92426">
        <ele>1023.2</ele>
        <time>2020-08-06T10:20:07Z</time>
      </trkpt>
      <trkpt lat="47.91515" lon="6.92424">
        <ele>1024.4</ele>
        <time>2020-08-06T10:20:12Z</time>
      </trkpt>
      <trkpt lat="47.91499" lon="6.92422">
        <ele>1025.6</ele>
        <time>2020-08-06T10:20:20Z</time>
      </trkpt>
      <trkpt lat="47.91488" lon="6.9242">
        <ele>1026.8</ele>
        <time>2020-08-06T10:20:26Z</time>
      </trkpt>
      <trkpt lat="47.91479" lon="6.92419">
        <ele>1027.8</ele>
        <time>2020-08-06T10:20:31Z</time>
      </trkpt>
      <trkpt lat="47.91467" lon="6.9242">
        <ele>1028.8</ele>
        <time>2020-08-06T10:20:37Z</time>
      </trkpt>
      <trkpt lat="47.91453" lon="6.92424">
        <ele>1030</ele>
        <time>2020-08-06T10:20:44Z</time>
      </trkpt>
      <trkpt lat="47.91446" lon="6.92425">
        <ele>1031.2</ele>
        <time>2020-08-06T10:20:49Z</time>
      </trkpt>
      <trkpt lat="47.91439" lon="6.92426">
        <ele>1032.4</ele>
        <time>2020-08-06T10:20:53Z</time>
      </trkpt>
      <trkpt lat="47.91428" lon="6.92428">
        <ele>1033.4</ele>
        <time>2020-08-06T10:20:59Z</time>
      </trkpt>
      <trkpt lat="47.9142" lon="6.9243">
        <ele>1034.4</ele>
        <time>2020-08-06T10:21:03Z</time>
      </trkpt>
      <trkpt lat="47.9141" lon="6.9243">
        <ele>1035.4</ele>
        <time>2020-08-06T10:21:11Z</time>
      </trkpt>
      <trkpt lat="47.91402" lon="6.92428">
        <ele>1036.8</ele>
        <time>2020-08-06T10:21:17Z</time>
      </trkpt>
      <trkpt lat="47.91395" lon="6.92427">
        <ele>1038</ele>
        <time>2020-08-06T10:21:22Z</time>
      </trkpt>
      <trkpt lat="47.91391" lon="6.92426">
        <ele>1039.4</ele>
        <time>2020-08-06T10:21:25Z</time>
      </trkpt>
      <trkpt lat="47.91386" lon="6.92424">
        <ele>1040.6</ele>
        <time>2020-08-06T10:21:29Z</time>
      </trkpt>
      <trkpt lat="47.91381" lon="6.92424">
        <ele>1041.4</ele>
        <time>2020-08-06T10:21:33Z</time>
      </trkpt>
      <trkpt lat="47.91378" lon="6.92423">
        <ele>1041.8</ele>
        <time>2020-08-06T10:21:35Z</time>
      </trkpt>
      <trkpt lat="47.91373" lon="6.92421">
        <ele>1043</ele>
        <time>2020-08-06T10:21:40Z</time>
      </trkpt>
      <trkpt lat="47.91371" lon="6.92421">
        <ele>1043.2</ele>
        <time>2020-08-06T10:21:41Z</time>
      </trkpt>
      <trkpt lat="47.91365" lon="6.9242">
        <ele>1044</ele>
        <time>2020-08-06T10:21:46Z</time>
      </trkpt>
      <trkpt lat="47.91364" lon="6.9242">
        <ele>1044</ele>
        <time>2020-08-06T10:21:47Z</time>
      </trkpt>
      <trkpt lat="47.91357" lon="6.92419">
        <ele>1045</ele>
        <time>2020-08-06T10:21:52Z</time>
      </trkpt>
      <trkpt lat="47.91351" lon="6.92419">
        <ele>1046.2</ele>
        <time>2020-08-06T10:21:57Z</time>
      </trkpt>
      <trkpt lat="47.91348" lon="6.92418">
        <ele>1047.2</ele>
        <time>2020-08-06T10:22:00Z</time>
      </trkpt>
      <trkpt lat="47.91344" lon="6.92419">
        <ele>1048.4</ele>
        <time>2020-08-06T10:22:04Z</time>
      </trkpt>
      <trkpt lat="47.91337" lon="6.92419">
        <ele>1049.6</ele>
        <time>2020-08-06T10:22:09Z</time>
      </trkpt>
      <trkpt lat="47.9133" lon="6.92418">
        <ele>1050.6</ele>
        <time>2020-08-06T10:22:14Z</time>
      </trkpt>
      <trkpt lat="47.91325" lon="6.92418">
        <ele>1051.8</ele>
        <time>2020-08-06T10:22:18Z</time>
      </trkpt>
      <trkpt lat="47.91315" lon="6.92416">
        <ele>1052.8</ele>
        <time>2020-08-06T10:22:24Z</time>
      </trkpt>
      <trkpt lat="47.91307" lon="6.92414">
        <ele>1054</ele>
        <time>2020-08-06T10:22:30Z</time>
      </trkpt>
      <trkpt lat="47.91305" lon="6.92414">
        <ele>1054</ele>
        <time>2020-08-06T10:22:31Z</time>
      </trkpt>
      <trkpt lat="47.91298" lon="6.92413">
        <ele>1055.2</ele>
        <time>2020-08-06T10:22:35Z</time>
      </trkpt>
      <trkpt lat="47.91297" lon="6.92412">
        <ele>1055.4</ele>
        <time>2020-08-06T10:22:36Z</time>
      </trkpt>
      <trkpt lat="47.91292" lon="6.9241">
        <ele>1056.2</ele>
        <time>2020-08-06T10:22:40Z</time>
      </trkpt>
      <trkpt lat="47.91286" lon="6.92409">
        <ele>1057.4</ele>
        <time>2020-08-06T10:22:46Z</time>
      </trkpt>
      <trkpt lat="47.91282" lon="6.92407">
        <ele>1058.4</ele>
        <time>2020-08-06T10:22:50Z</time>
      </trkpt>
      <trkpt lat="47.91278" lon="6.92406">
        <ele>1059.6</ele>
        <time>2020-08-06T10:22:55Z</time>
      </trkpt>
      <trkpt lat="47.91276" lon="6.92406">
        <ele>1059.8</ele>
        <time>2020-08-06T10:22:56Z</time>
      </trkpt>
      <trkpt lat="47.91271" lon="6.92405">
        <ele>1060.6</ele>
        <time>2020-08-06T10:23:00Z</time>
      </trkpt>
      <trkpt lat="47.91262" lon="6.92402">
        <ele>1061.6</ele>
        <time>2020-08-06T10:23:05Z</time>
      </trkpt>
      <trkpt lat="47.91253" lon="6.92399">
        <ele>1062.8</ele>
        <time>2020-08-06T10:23:11Z</time>
      </trkpt>
      <trkpt lat="47.91252" lon="6.92398">
        <ele>1062.8</ele>
        <time>2020-08-06T10:23:12Z</time>
      </trkpt>
      <trkpt lat="47.91243" lon="6.92396">
        <ele>1063.8</ele>
        <time>2020-08-06T10:23:18Z</time>
      </trkpt>
      <trkpt lat="47.91235" lon="6.92397">
        <ele>1064.8</ele>
        <time>2020-08-06T10:23:24Z</time>
      </trkpt>
      <trkpt lat="47.91227" lon="6.92398">
        <ele>1065.8</ele>
        <time>2020-08-06T10:23:29Z</time>
      </trkpt>
      <trkpt lat="47.91219" lon="6.92397">
        <ele>1067</ele>
        <time>2020-08-06T10:23:35Z</time>
      </trkpt>
      <trkpt lat="47.91209" lon="6.92399">
        <ele>1068</ele>
        <time>2020-08-06T10:23:42Z</time>
      </trkpt>
      <trkpt lat="47.912" lon="6.92399">
        <ele>1069.2</ele>
        <time>2020-08-06T10:23:48Z</time>
      </trkpt>
      <trkpt lat="47.91191" lon="6.92401">
        <ele>1070</ele>
        <time>2020-08-06T10:23:54Z</time>
      </trkpt>
      <trkpt lat="47.91181" lon="6.92404">
        <ele>1071</ele>
        <time>2020-08-06T10:24:02Z</time>
      </trkpt>
      <trkpt lat="47.91172" lon="6.92407">
        <ele>1072.2</ele>
        <time>2020-08-06T10:24:08Z</time>
      </trkpt>
      <trkpt lat="47.91161" lon="6.92411">
        <ele>1073.2</ele>
        <time>2020-08-06T10:24:15Z</time>
      </trkpt>
      <trkpt lat="47.91154" lon="6.92411">
        <ele>1074.2</ele>
        <time>2020-08-06T10:24:19Z</time>
      </trkpt>
      <trkpt lat="47.91144" lon="6.92413">
        <ele>1075.2</ele>
        <time>2020-08-06T10:24:26Z</time>
      </trkpt>
      <trkpt lat="47.91127" lon="6.92412">
        <ele>1076.4</ele>
        <time>2020-08-06T10:24:34Z</time>
      </trkpt>
      <trkpt lat="47.91125" lon="6.92411">
        <ele>1076.4</ele>
        <time>2020-08-06T10:24:35Z</time>
      </trkpt>
      <trkpt lat="47.91109" lon="6.92408">
        <ele>1077.6</ele>
        <time>2020-08-06T10:24:43Z</time>
      </trkpt>
      <trkpt lat="47.91093" lon="6.92407">
        <ele>1079</ele>
        <time>2020-08-06T10:24:51Z</time>
      </trkpt>
      <trkpt lat="47.91084" lon="6.92406">
        <ele>1080.2</ele>
        <time>2020-08-06T10:24:55Z</time>
      </trkpt>
      <trkpt lat="47.9107" lon="6.92405">
        <ele>1081.4</ele>
        <time>2020-08-06T10:25:02Z</time>
      </trkpt>
      <trkpt lat="47.91057" lon="6.92401">
        <ele>1082.4</ele>
        <time>2020-08-06T10:25:08Z</time>
      </trkpt>
      <trkpt lat="47.91044" lon="6.92399">
        <ele>1083.6</ele>
        <time>2020-08-06T10:25:14Z</time>
      </trkpt>
      <trkpt lat="47.9103" lon="6.92394">
        <ele>1084.6</ele>
        <time>2020-08-06T10:25:20Z</time>
      </trkpt>
      <trkpt lat="47.9102" lon="6.9239">
        <ele>1085.6</ele>
        <time>2020-08-06T10:25:25Z</time>
      </trkpt>
      <trkpt lat="47.91002" lon="6.92389">
        <ele>1087</ele>
        <time>2020-08-06T10:25:34Z</time>
      </trkpt>
      <trkpt lat="47.90991" lon="6.92392">
        <ele>1088</ele>
        <time>2020-08-06T10:25:40Z</time>
      </trkpt>
      <trkpt lat="47.90983" lon="6.92394">
        <ele>1089</ele>
        <time>2020-08-06T10:25:45Z</time>
      </trkpt>
      <trkpt lat="47.90975" lon="6.92397">
        <ele>1090.2</ele>
        <time>2020-08-06T10:25:50Z</time>
      </trkpt>
      <trkpt lat="47.90965" lon="6.92399">
        <ele>1091.4</ele>
        <time>2020-08-06T10:25:55Z</time>
      </trkpt>
      <trkpt lat="47.90959" lon="6.92401">
        <ele>1092.4</ele>
        <time>2020-08-06T10:25:59Z</time>
      </trkpt>
      <trkpt lat="47.9095" lon="6.92401">
        <ele>1093.2</ele>
        <time>2020-08-06T10:26:04Z</time>
      </trkpt>
      <trkpt lat="47.90941" lon="6.92404">
        <ele>1094.4</ele>
        <time>2020-08-06T10:26:10Z</time>
      </trkpt>
      <trkpt lat="47.90939" lon="6.92405">
        <ele>1094.8</ele>
        <time>2020-08-06T10:26:11Z</time>
      </trkpt>
      <trkpt lat="47.90933" lon="6.92406">
        <ele>1095.4</ele>
        <time>2020-08-06T10:26:14Z</time>
      </trkpt>
      <trkpt lat="47.90919" lon="6.92409">
        <ele>1096.6</ele>
        <time>2020-08-06T10:26:20Z</time>
      </trkpt>
      <trkpt lat="47.90905" lon="6.92411">
        <ele>1097.6</ele>
        <time>2020-08-06T10:26:26Z</time>
      </trkpt>
      <trkpt lat="47.90898" lon="6.92412">
        <ele>1098</ele>
        <time>2020-08-06T10:26:30Z</time>
      </trkpt>
      <trkpt lat="47.90893" lon="6.92411">
        <ele>1099</ele>
        <time>2020-08-06T10:26:34Z</time>
      </trkpt>
      <trkpt lat="47.90886" lon="6.92412">
        <ele>1100</ele>
        <time>2020-08-06T10:26:38Z</time>
      </trkpt>
      <trkpt lat="47.90877" lon="6.92411">
        <ele>1101.2</ele>
        <time>2020-08-06T10:26:43Z</time>
      </trkpt>
      <trkpt lat="47.90869" lon="6.9241">
        <ele>1102.4</ele>
        <time>2020-08-06T10:26:48Z</time>
      </trkpt>
      <trkpt lat="47.90853" lon="6.924">
        <ele>1103.4</ele>
        <time>2020-08-06T10:26:57Z</time>
      </trkpt>
      <trkpt lat="47.90842" lon="6.9239">
        <ele>1104.6</ele>
        <time>2020-08-06T10:27:04Z</time>
      </trkpt>
      <trkpt lat="47.90826" lon="6.92373">
        <ele>1105.8</ele>
        <time>2020-08-06T10:27:13Z</time>
      </trkpt>
      <trkpt lat="47.90775" lon="6.9234">
        <ele>1106.2</ele>
        <time>2020-08-06T10:28:27Z</time>
      </trkpt>
      <trkpt lat="47.90739" lon="6.92323">
        <ele>1106.8</ele>
        <time>2020-08-06T10:28:40Z</time>
      </trkpt>
      <trkpt lat="47.90686" lon="6.923">
        <ele>1106.8</ele>
        <time>2020-08-06T10:28:56Z</time>
      </trkpt>
      <trkpt lat="47.9064" lon="6.92283">
        <ele>1107.8</ele>
        <time>2020-08-06T10:29:12Z</time>
      </trkpt>
      <trkpt lat="47.90634" lon="6.92276">
        <ele>1109</ele>
        <time>2020-08-06T10:29:16Z</time>
      </trkpt>
      <trkpt lat="47.90625" lon="6.92267">
        <ele>1110</ele>
        <time>2020-08-06T10:29:21Z</time>
      </trkpt>
      <trkpt lat="47.90618" lon="6.92258">
        <ele>1111.2</ele>
        <time>2020-08-06T10:29:25Z</time>
      </trkpt>
      <trkpt lat="47.9061" lon="6.92248">
        <ele>1112.6</ele>
        <time>2020-08-06T10:29:30Z</time>
      </trkpt>
      <trkpt lat="47.90604" lon="6.92239">
        <ele>1113.8</ele>
        <time>2020-08-06T10:29:34Z</time>
      </trkpt>
      <trkpt lat="47.90599" lon="6.92228">
        <ele>1115</ele>
        <time>2020-08-06T10:29:38Z</time>
      </trkpt>
      <trkpt lat="47.90589" lon="6.92214">
        <ele>1115.8</ele>
        <time>2020-08-06T10:29:44Z</time>
      </trkpt>
      <trkpt lat="47.90576" lon="6.92199">
        <ele>1116.8</ele>
        <time>2020-08-06T10:29:51Z</time>
      </trkpt>
      <trkpt lat="47.90566" lon="6.92187">
        <ele>1118</ele>
        <time>2020-08-06T10:29:57Z</time>
      </trkpt>
      <trkpt lat="47.90562" lon="6.92179">
        <ele>1119</ele>
        <time>2020-08-06T10:30:01Z</time>
      </trkpt>
      <trkpt lat="47.90556" lon="6.9217">
        <ele>1120.2</ele>
        <time>2020-08-06T10:30:06Z</time>
      </trkpt>
      <trkpt lat="47.90554" lon="6.92166">
        <ele>1120.4</ele>
        <time>2020-08-06T10:30:08Z</time>
      </trkpt>
      <trkpt lat="47.90549" lon="6.92157">
        <ele>1121.2</ele>
        <time>2020-08-06T10:30:13Z</time>
      </trkpt>
      <trkpt lat="47.90541" lon="6.92141">
        <ele>1122.2</ele>
        <time>2020-08-06T10:30:22Z</time>
      </trkpt>
      <trkpt lat="47.90537" lon="6.92136">
        <ele>1122.8</ele>
        <time>2020-08-06T10:30:25Z</time>
      </trkpt>
      <trkpt lat="47.90533" lon="6.92132">
        <ele>1123.4</ele>
        <time>2020-08-06T10:30:28Z</time>
      </trkpt>
      <trkpt lat="47.90525" lon="6.92115">
        <ele>1124.4</ele>
        <time>2020-08-06T10:30:35Z</time>
      </trkpt>
      <trkpt lat="47.90518" lon="6.92102">
        <ele>1125.6</ele>
        <time>2020-08-06T10:30:41Z</time>
      </trkpt>
      <trkpt lat="47.90512" lon="6.92086">
        <ele>1126.6</ele>
        <time>2020-08-06T10:30:48Z</time>
      </trkpt>
      <trkpt lat="47.90493" lon="6.92032">
        <ele>1127.4</ele>
        <time>2020-08-06T10:31:05Z</time>
      </trkpt>
      <trkpt lat="47.90479" lon="6.91998">
        <ele>1128.6</ele>
        <time>2020-08-06T10:31:17Z</time>
      </trkpt>
      <trkpt lat="47.90475" lon="6.91986">
        <ele>1129.8</ele>
        <time>2020-08-06T10:31:21Z</time>
      </trkpt>
      <trkpt lat="47.90467" lon="6.91968">
        <ele>1130.8</ele>
        <time>2020-08-06T10:31:27Z</time>
      </trkpt>
      <trkpt lat="47.9046" lon="6.91952">
        <ele>1132.2</ele>
        <time>2020-08-06T10:31:34Z</time>
      </trkpt>
      <trkpt lat="47.90459" lon="6.91943">
        <ele>1133</ele>
        <time>2020-08-06T10:31:38Z</time>
      </trkpt>
      <trkpt lat="47.90459" lon="6.91941">
        <ele>1133.2</ele>
        <time>2020-08-06T10:31:39Z</time>
      </trkpt>
      <trkpt lat="47.90452" lon="6.91921">
        <ele>1134.2</ele>
        <time>2020-08-06T10:31:48Z</time>
      </trkpt>
      <trkpt lat="47.90443" lon="6.91902">
        <ele>1134.6</ele>
        <time>2020-08-06T10:32:44Z</time>
      </trkpt>
      <trkpt lat="47.90441" lon="6.91899">
        <ele>1135</ele>
        <time>2020-08-06T10:32:46Z</time>
      </trkpt>
      <trkpt lat="47.9044" lon="6.91896">
        <ele>1135.2</ele>
        <time>2020-08-06T10:32:48Z</time>
      </trkpt>
      <trkpt lat="47.9044" lon="6.91894">
        <ele>1135.2</ele>
        <time>2020-08-06T10:32:49Z</time>
      </trkpt>
      <trkpt lat="47.90436" lon="6.91879">
        <ele>1136.2</ele>
        <time>2020-08-06T10:32:56Z</time>
      </trkpt>
      <trkpt lat="47.90434" lon="6.91862">
        <ele>1137</ele>
        <time>2020-08-06T10:33:02Z</time>
      </trkpt>
      <trkpt lat="47.90432" lon="6.91844">
        <ele>1138.2</ele>
        <time>2020-08-06T10:33:11Z</time>
      </trkpt>
      <trkpt lat="47.90431" lon="6.91842">
        <ele>1138.6</ele>
        <time>2020-08-06T10:33:12Z</time>
      </trkpt>
      <trkpt lat="47.90432" lon="6.91829">
        <ele>1139.4</ele>
        <time>2020-08-06T10:33:17Z</time>
      </trkpt>
      <trkpt lat="47.90435" lon="6.91805">
        <ele>1140.6</ele>
        <time>2020-08-06T10:33:27Z</time>
      </trkpt>
      <trkpt lat="47.90436" lon="6.91789">
        <ele>1141.8</ele>
        <time>2020-08-06T10:33:33Z</time>
      </trkpt>
      <trkpt lat="47.90437" lon="6.9177">
        <ele>1142.8</ele>
        <time>2020-08-06T10:33:39Z</time>
      </trkpt>
      <trkpt lat="47.90437" lon="6.91758">
        <ele>1143.6</ele>
        <time>2020-08-06T10:33:43Z</time>
      </trkpt>
      <trkpt lat="47.90437" lon="6.91752">
        <ele>1144</ele>
        <time>2020-08-06T10:33:45Z</time>
      </trkpt>
      <trkpt lat="47.90438" lon="6.91734">
        <ele>1144.6</ele>
        <time>2020-08-06T10:33:51Z</time>
      </trkpt>
      <trkpt lat="47.90436" lon="6.91707">
        <ele>1145</ele>
        <time>2020-08-06T10:34:01Z</time>
      </trkpt>
      <trkpt lat="47.90434" lon="6.91694">
        <ele>1146</ele>
        <time>2020-08-06T10:34:06Z</time>
      </trkpt>
      <trkpt lat="47.90433" lon="6.9169">
        <ele>1146.4</ele>
        <time>2020-08-06T10:34:08Z</time>
      </trkpt>
      <trkpt lat="47.90427" lon="6.91677">
        <ele>1146.8</ele>
        <time>2020-08-06T10:34:14Z</time>
      </trkpt>
      <trkpt lat="47.90424" lon="6.91672">
        <ele>1147</ele>
        <time>2020-08-06T10:34:16Z</time>
      </trkpt>
      <trkpt lat="47.9038" lon="6.91624">
        <ele>1147</ele>
        <time>2020-08-06T10:34:32Z</time>
      </trkpt>
      <trkpt lat="47.90366" lon="6.91612">
        <ele>1146.2</ele>
        <time>2020-08-06T10:34:36Z</time>
      </trkpt>
      <trkpt lat="47.90362" lon="6.91609">
        <ele>1146</ele>
        <time>2020-08-06T10:34:37Z</time>
      </trkpt>
      <trkpt lat="47.90348" lon="6.91598">
        <ele>1145.6</ele>
        <time>2020-08-06T10:34:41Z</time>
      </trkpt>
      <trkpt lat="47.90334" lon="6.91589">
        <ele>1145.2</ele>
        <time>2020-08-06T10:34:45Z</time>
      </trkpt>
      <trkpt lat="47.90308" lon="6.91565">
        <ele>1145</ele>
        <time>2020-08-06T10:34:53Z</time>
      </trkpt>
      <trkpt lat="47.90298" lon="6.91554">
        <ele>1145</ele>
        <time>2020-08-06T10:34:56Z</time>
      </trkpt>
      <trkpt lat="47.90292" lon="6.91546">
        <ele>1144.8</ele>
        <time>2020-08-06T10:34:58Z</time>
      </trkpt>
      <trkpt lat="47.90278" lon="6.91523">
        <ele>1144.4</ele>
        <time>2020-08-06T10:35:03Z</time>
      </trkpt>
      <trkpt lat="47.90264" lon="6.91484">
        <ele>1143.8</ele>
        <time>2020-08-06T10:35:11Z</time>
      </trkpt>
      <trkpt lat="47.90249" lon="6.91457">
        <ele>1143.6</ele>
        <time>2020-08-06T10:35:18Z</time>
      </trkpt>
      <trkpt lat="47.90239" lon="6.91428">
        <ele>1143.8</ele>
        <time>2020-08-06T10:35:25Z</time>
      </trkpt>
      <trkpt lat="47.90235" lon="6.91428">
        <ele>1144.2</ele>
        <time>2020-08-06T10:35:33Z</time>
      </trkpt>
      <trkpt lat="47.90235" lon="6.91431">
        <ele>1144.2</ele>
        <time>2020-08-06T10:35:57Z</time>
      </trkpt>
      <trkpt lat="47.90232" lon="6.9144">
        <ele>1144.4</ele>
        <time>2020-08-06T10:36:05Z</time>
      </trkpt>
      <trkpt lat="47.9023" lon="6.91443">
        <ele>1145</ele>
        <time>2020-08-06T10:36:07Z</time>
      </trkpt>
      <trkpt lat="47.90226" lon="6.91454">
        <ele>1146</ele>
        <time>2020-08-06T10:36:12Z</time>
      </trkpt>
      <trkpt lat="47.90225" lon="6.91457">
        <ele>1146.2</ele>
        <time>2020-08-06T10:36:13Z</time>
      </trkpt>
      <trkpt lat="47.90219" lon="6.91464">
        <ele>1146.8</ele>
        <time>2020-08-06T10:36:17Z</time>
      </trkpt>
      <trkpt lat="47.90215" lon="6.91468">
        <ele>1147.4</ele>
        <time>2020-08-06T10:36:19Z</time>
      </trkpt>
      <trkpt lat="47.90203" lon="6.91484">
        <ele>1148.4</ele>
        <time>2020-08-06T10:36:26Z</time>
      </trkpt>
      <trkpt lat="47.90165" lon="6.91538">
        <ele>1149.6</ele>
        <time>2020-08-06T10:36:50Z</time>
      </trkpt>
      <trkpt lat="47.90155" lon="6.9155">
        <ele>1150.4</ele>
        <time>2020-08-06T10:36:56Z</time>
      </trkpt>
      <trkpt lat="47.90149" lon="6.91559">
        <ele>1151.4</ele>
        <time>2020-08-06T10:37:00Z</time>
      </trkpt>
      <trkpt lat="47.90141" lon="6.91566">
        <ele>1152.6</ele>
        <time>2020-08-06T10:37:04Z</time>
      </trkpt>
      <trkpt lat="47.90136" lon="6.91572">
        <ele>1153.6</ele>
        <time>2020-08-06T10:37:07Z</time>
      </trkpt>
      <trkpt lat="47.9013" lon="6.9158">
        <ele>1154.8</ele>
        <time>2020-08-06T10:37:11Z</time>
      </trkpt>
      <trkpt lat="47.90122" lon="6.91589">
        <ele>1155.8</ele>
        <time>2020-08-06T10:37:16Z</time>
      </trkpt>
      <trkpt lat="47.90121" lon="6.91591">
        <ele>1156.2</ele>
        <time>2020-08-06T10:37:17Z</time>
      </trkpt>
      <trkpt lat="47.90114" lon="6.91599">
        <ele>1157</ele>
        <time>2020-08-06T10:37:21Z</time>
      </trkpt>
      <trkpt lat="47.90102" lon="6.91613">
        <ele>1158.2</ele>
        <time>2020-08-06T10:37:28Z</time>
      </trkpt>
      <trkpt lat="47.90088" lon="6.91634">
        <ele>1159.4</ele>
        <time>2020-08-06T10:37:37Z</time>
      </trkpt>
      <trkpt lat="47.90074" lon="6.91649">
        <ele>1160.4</ele>
        <time>2020-08-06T10:37:45Z</time>
      </trkpt>
      <trkpt lat="47.90062" lon="6.91664">
        <ele>1161.4</ele>
        <time>2020-08-06T10:37:53Z</time>
      </trkpt>
      <trkpt lat="47.90052" lon="6.91678">
        <ele>1162.4</ele>
        <time>2020-08-06T10:38:00Z</time>
      </trkpt>
      <trkpt lat="47.9004" lon="6.91691">
        <ele>1163.6</ele>
        <time>2020-08-06T10:38:07Z</time>
      </trkpt>
      <trkpt lat="47.9002" lon="6.91708">
        <ele>1164.6</ele>
        <time>2020-08-06T10:38:16Z</time>
      </trkpt>
      <trkpt lat="47.8999" lon="6.9174">
        <ele>1165.6</ele>
        <time>2020-08-06T10:38:29Z</time>
      </trkpt>
      <trkpt lat="47.89984" lon="6.91761">
        <ele>1166</ele>
        <time>2020-08-06T10:38:36Z</time>
      </trkpt>
      <trkpt lat="47.89986" lon="6.91763">
        <ele>1166.2</ele>
        <time>2020-08-06T10:38:37Z</time>
      </trkpt>
      <trkpt lat="47.89992" lon="6.91765">
        <ele>1166.8</ele>
        <time>2020-08-06T10:38:40Z</time>
      </trkpt>
      <trkpt lat="47.90004" lon="6.91765">
        <ele>1167.8</ele>
        <time>2020-08-06T10:38:46Z</time>
      </trkpt>
      <trkpt lat="47.90013" lon="6.91764">
        <ele>1169</ele>
        <time>2020-08-06T10:38:50Z</time>
      </trkpt>
      <trkpt lat="47.90021" lon="6.91764">
        <ele>1170</ele>
        <time>2020-08-06T10:38:54Z</time>
      </trkpt>
      <trkpt lat="47.90031" lon="6.91763">
        <ele>1171</ele>
        <time>2020-08-06T10:38:59Z</time>
      </trkpt>
      <trkpt lat="47.90043" lon="6.91764">
        <ele>1172.2</ele>
        <time>2020-08-06T10:39:05Z</time>
      </trkpt>
      <trkpt lat="47.90052" lon="6.91763">
        <ele>1173.2</ele>
        <time>2020-08-06T10:39:09Z</time>
      </trkpt>
      <trkpt lat="47.90063" lon="6.91763">
        <ele>1174.2</ele>
        <time>2020-08-06T10:39:15Z</time>
      </trkpt>
      <trkpt lat="47.90077" lon="6.91762">
        <ele>1175.4</ele>
        <time>2020-08-06T10:39:22Z</time>
      </trkpt>
      <trkpt lat="47.90087" lon="6.9176">
        <ele>1176.6</ele>
        <time>2020-08-06T10:39:27Z</time>
      </trkpt>
      <trkpt lat="47.90096" lon="6.91752">
        <ele>1177.6</ele>
        <time>2020-08-06T10:39:32Z</time>
      </trkpt>
      <trkpt lat="47.90138" lon="6.917">
        <ele>1178.6</ele>
        <time>2020-08-06T10:39:55Z</time>
      </trkpt>
      <trkpt lat="47.90148" lon="6.91693">
        <ele>1179.8</ele>
        <time>2020-08-06T10:40:02Z</time>
      </trkpt>
      <trkpt lat="47.90155" lon="6.91693">
        <ele>1180.8</ele>
        <time>2020-08-06T10:40:07Z</time>
      </trkpt>
      <trkpt lat="47.90162" lon="6.91689">
        <ele>1182</ele>
        <time>2020-08-06T10:40:11Z</time>
      </trkpt>
      <trkpt lat="47.90168" lon="6.91687">
        <ele>1183.2</ele>
        <time>2020-08-06T10:40:16Z</time>
      </trkpt>
      <trkpt lat="47.90173" lon="6.91685">
        <ele>1184.4</ele>
        <time>2020-08-06T10:40:19Z</time>
      </trkpt>
      <trkpt lat="47.90177" lon="6.91683">
        <ele>1185.6</ele>
        <time>2020-08-06T10:40:22Z</time>
      </trkpt>
      <trkpt lat="47.90181" lon="6.91682">
        <ele>1186.8</ele>
        <time>2020-08-06T10:40:25Z</time>
      </trkpt>
      <trkpt lat="47.90189" lon="6.91678">
        <ele>1187.8</ele>
        <time>2020-08-06T10:40:30Z</time>
      </trkpt>
      <trkpt lat="47.90198" lon="6.91675">
        <ele>1188.8</ele>
        <time>2020-08-06T10:40:36Z</time>
      </trkpt>
      <trkpt lat="47.902" lon="6.91675">
        <ele>1189</ele>
        <time>2020-08-06T10:40:37Z</time>
      </trkpt>
      <trkpt lat="47.90206" lon="6.91676">
        <ele>1190</ele>
        <time>2020-08-06T10:40:41Z</time>
      </trkpt>
      <trkpt lat="47.90211" lon="6.91675">
        <ele>1191</ele>
        <time>2020-08-06T10:40:46Z</time>
      </trkpt>
      <trkpt lat="47.90216" lon="6.91672">
        <ele>1192</ele>
        <time>2020-08-06T10:40:51Z</time>
      </trkpt>
      <trkpt lat="47.90218" lon="6.91671">
        <ele>1192.2</ele>
        <time>2020-08-06T10:40:53Z</time>
      </trkpt>
      <trkpt lat="47.90211" lon="6.91685">
        <ele>1192</ele>
        <time>2020-08-06T10:41:10Z</time>
      </trkpt>
      <trkpt lat="47.90212" lon="6.91685">
        <ele>1191.8</ele>
        <time>2020-08-06T10:45:26Z</time>
      </trkpt>
      <trkpt lat="47.90212" lon="6.91685">
        <ele>1191.2</ele>
        <time>2020-08-06T10:49:33Z</time>
      </trkpt>
      <trkpt lat="47.90212" lon="6.91685">
        <ele>1191</ele>
        <time>2020-08-06T10:55:29Z</time>
      </trkpt>
      <trkpt lat="47.90212" lon="6.91685">
        <ele>1191.4</ele>
        <time>2020-08-06T10:56:40Z</time>
      </trkpt>
      <trkpt lat="47.90212" lon="6.91686">
        <ele>1192.2</ele>
        <time>2020-08-06T10:59:31Z</time>
      </trkpt>
      <trkpt lat="47.90213" lon="6.91685">
        <ele>1192.4</ele>
        <time>2020-08-06T10:59:34Z</time>
      </trkpt>
      <trkpt lat="47.90215" lon="6.91676">
        <ele>1192.4</ele>
        <time>2020-08-06T10:59:39Z</time>
      </trkpt>
      <trkpt lat="47.90216" lon="6.91678">
        <ele>1192.2</ele>
        <time>2020-08-06T11:01:05Z</time>
      </trkpt>
      <trkpt lat="47.90207" lon="6.91677">
        <ele>1192.2</ele>
        <time>2020-08-06T11:01:09Z</time>
      </trkpt>
      <trkpt lat="47.90197" lon="6.91676">
        <ele>1192.2</ele>
        <time>2020-08-06T11:01:12Z</time>
      </trkpt>
      <trkpt lat="47.90153" lon="6.9169">
        <ele>1191</ele>
        <time>2020-08-06T11:01:20Z</time>
      </trkpt>
      <trkpt lat="47.90137" lon="6.91697">
        <ele>1189.6</ele>
        <time>2020-08-06T11:01:22Z</time>
      </trkpt>
      <trkpt lat="47.90122" lon="6.91713">
        <ele>1188.4</ele>
        <time>2020-08-06T11:01:24Z</time>
      </trkpt>
      <trkpt lat="47.90108" lon="6.91731">
        <ele>1187.2</ele>
        <time>2020-08-06T11:01:26Z</time>
      </trkpt>
      <trkpt lat="47.90102" lon="6.91739">
        <ele>1185.4</ele>
        <time>2020-08-06T11:01:27Z</time>
      </trkpt>
      <trkpt lat="47.90096" lon="6.91746">
        <ele>1184</ele>
        <time>2020-08-06T11:01:28Z</time>
      </trkpt>
      <trkpt lat="47.90089" lon="6.91752">
        <ele>1182.2</ele>
        <time>2020-08-06T11:01:29Z</time>
      </trkpt>
      <trkpt lat="47.90082" lon="6.91755">
        <ele>1181</ele>
        <time>2020-08-06T11:01:30Z</time>
      </trkpt>
      <trkpt lat="47.90075" lon="6.91757">
        <ele>1180</ele>
        <time>2020-08-06T11:01:31Z</time>
      </trkpt>
      <trkpt lat="47.9006" lon="6.91758">
        <ele>1178.4</ele>
        <time>2020-08-06T11:01:33Z</time>
      </trkpt>
      <trkpt lat="47.90026" lon="6.9176">
        <ele>1177.4</ele>
        <time>2020-08-06T11:01:37Z</time>
      </trkpt>
      <trkpt lat="47.90017" lon="6.91761">
        <ele>1177.2</ele>
        <time>2020-08-06T11:01:38Z</time>
      </trkpt>
      <trkpt lat="47.90009" lon="6.91762">
        <ele>1177.2</ele>
        <time>2020-08-06T11:01:39Z</time>
      </trkpt>
      <trkpt lat="47.89991" lon="6.91758">
        <ele>1175.4</ele>
        <time>2020-08-06T11:01:42Z</time>
      </trkpt>
      <trkpt lat="47.89983" lon="6.91754">
        <ele>1173.6</ele>
        <time>2020-08-06T11:01:44Z</time>
      </trkpt>
      <trkpt lat="47.89981" lon="6.9175">
        <ele>1172.6</ele>
        <time>2020-08-06T11:01:45Z</time>
      </trkpt>
      <trkpt lat="47.89982" lon="6.91746">
        <ele>1171.4</ele>
        <time>2020-08-06T11:01:46Z</time>
      </trkpt>
      <trkpt lat="47.89985" lon="6.91743">
        <ele>1170.4</ele>
        <time>2020-08-06T11:01:47Z</time>
      </trkpt>
      <trkpt lat="47.89988" lon="6.9174">
        <ele>1169.8</ele>
        <time>2020-08-06T11:01:48Z</time>
      </trkpt>
      <trkpt lat="47.89991" lon="6.91737">
        <ele>1169.2</ele>
        <time>2020-08-06T11:01:49Z</time>
      </trkpt>
      <trkpt lat="47.9" lon="6.91727">
        <ele>1167.8</ele>
        <time>2020-08-06T11:01:52Z</time>
      </trkpt>
      <trkpt lat="47.90013" lon="6.91714">
        <ele>1166.6</ele>
        <time>2020-08-06T11:01:56Z</time>
      </trkpt>
      <trkpt lat="47.90033" lon="6.91695">
        <ele>1166</ele>
        <time>2020-08-06T11:02:02Z</time>
      </trkpt>
      <trkpt lat="47.90051" lon="6.91674">
        <ele>1165.4</ele>
        <time>2020-08-06T11:02:07Z</time>
      </trkpt>
      <trkpt lat="47.90079" lon="6.91638">
        <ele>1164</ele>
        <time>2020-08-06T11:02:13Z</time>
      </trkpt>
      <trkpt lat="47.9009" lon="6.91626">
        <ele>1163.4</ele>
        <time>2020-08-06T11:02:15Z</time>
      </trkpt>
      <trkpt lat="47.90096" lon="6.91619">
        <ele>1163</ele>
        <time>2020-08-06T11:02:16Z</time>
      </trkpt>
      <trkpt lat="47.90106" lon="6.91605">
        <ele>1162.4</ele>
        <time>2020-08-06T11:02:18Z</time>
      </trkpt>
      <trkpt lat="47.90117" lon="6.91592">
        <ele>1161.6</ele>
        <time>2020-08-06T11:02:20Z</time>
      </trkpt>
      <trkpt lat="47.90128" lon="6.9158">
        <ele>1160.2</ele>
        <time>2020-08-06T11:02:22Z</time>
      </trkpt>
      <trkpt lat="47.90139" lon="6.91566">
        <ele>1159.2</ele>
        <time>2020-08-06T11:02:24Z</time>
      </trkpt>
      <trkpt lat="47.9015" lon="6.91554">
        <ele>1158.6</ele>
        <time>2020-08-06T11:02:26Z</time>
      </trkpt>
      <trkpt lat="47.90162" lon="6.9154">
        <ele>1157.8</ele>
        <time>2020-08-06T11:02:28Z</time>
      </trkpt>
      <trkpt lat="47.90172" lon="6.91528">
        <ele>1156.4</ele>
        <time>2020-08-06T11:02:30Z</time>
      </trkpt>
      <trkpt lat="47.90179" lon="6.91517">
        <ele>1155</ele>
        <time>2020-08-06T11:02:33Z</time>
      </trkpt>
      <trkpt lat="47.90183" lon="6.9151">
        <ele>1153.6</ele>
        <time>2020-08-06T11:02:35Z</time>
      </trkpt>
      <trkpt lat="47.90185" lon="6.91507">
        <ele>1152.2</ele>
        <time>2020-08-06T11:02:36Z</time>
      </trkpt>
      <trkpt lat="47.9019" lon="6.91501">
        <ele>1150.6</ele>
        <time>2020-08-06T11:02:38Z</time>
      </trkpt>
      <trkpt lat="47.90195" lon="6.91494">
        <ele>1149.4</ele>
        <time>2020-08-06T11:02:40Z</time>
      </trkpt>
      <trkpt lat="47.90211" lon="6.91471">
        <ele>1148.4</ele>
        <time>2020-08-06T11:02:47Z</time>
      </trkpt>
      <trkpt lat="47.90228" lon="6.91452">
        <ele>1148.2</ele>
        <time>2020-08-06T11:02:52Z</time>
      </trkpt>
      <trkpt lat="47.90237" lon="6.91427">
        <ele>1147.4</ele>
        <time>2020-08-06T11:02:58Z</time>
      </trkpt>
      <trkpt lat="47.90238" lon="6.91427">
        <ele>1147</ele>
        <time>2020-08-06T11:03:00Z</time>
      </trkpt>
      <trkpt lat="47.90238" lon="6.91426">
        <ele>1145.8</ele>
        <time>2020-08-06T11:03:02Z</time>
      </trkpt>
      <trkpt lat="47.90239" lon="6.91425">
        <ele>1144.8</ele>
        <time>2020-08-06T11:03:04Z</time>
      </trkpt>
      <trkpt lat="47.90239" lon="6.91425">
        <ele>1144</ele>
        <time>2020-08-06T11:03:06Z</time>
      </trkpt>
      <trkpt lat="47.90239" lon="6.91425">
        <ele>1142.8</ele>
        <time>2020-08-06T11:03:59Z</time>
      </trkpt>
      <trkpt lat="47.90239" lon="6.91426">
        <ele>1142.8</ele>
        <time>2020-08-06T11:04:07Z</time>
      </trkpt>
      <trkpt lat="47.90243" lon="6.91421">
        <ele>1142.6</ele>
        <time>2020-08-06T11:04:17Z</time>
      </trkpt>
      <trkpt lat="47.90242" lon="6.91405">
        <ele>1141.8</ele>
        <time>2020-08-06T11:04:28Z</time>
      </trkpt>
      <trkpt lat="47.9023" lon="6.91384">
        <ele>1140.8</ele>
        <time>2020-08-06T11:04:36Z</time>
      </trkpt>
      <trkpt lat="47.90223" lon="6.91401">
        <ele>1140.2</ele>
        <time>2020-08-06T11:04:40Z</time>
      </trkpt>
      <trkpt lat="47.90197" lon="6.91449">
        <ele>1141.8</ele>
        <time>2020-08-06T11:05:07Z</time>
      </trkpt>
      <trkpt lat="47.90197" lon="6.91449">
        <ele>1142</ele>
        <time>2020-08-06T11:06:17Z</time>
      </trkpt>
      <trkpt lat="47.90197" lon="6.91449">
        <ele>1142.2</ele>
        <time>2020-08-06T11:07:07Z</time>
      </trkpt>
      <trkpt lat="47.90197" lon="6.91449">
        <ele>1141.8</ele>
        <time>2020-08-06T11:07:54Z</time>
      </trkpt>
      <trkpt lat="47.90197" lon="6.91449">
        <ele>1141.8</ele>
        <time>2020-08-06T11:08:46Z</time>
      </trkpt>
      <trkpt lat="47.90197" lon="6.91449">
        <ele>1141.6</ele>
        <time>2020-08-06T11:09:58Z</time>
      </trkpt>
      <trkpt lat="47.90197" lon="6.91448">
        <ele>1141.4</ele>
        <time>2020-08-06T11:10:50Z</time>
      </trkpt>
      <trkpt lat="47.90197" lon="6.91448">
        <ele>1141.4</ele>
        <time>2020-08-06T11:11:27Z</time>
      </trkpt>
      <trkpt lat="47.90197" lon="6.91448">
        <ele>1141.8</ele>
        <time>2020-08-06T11:13:01Z</time>
      </trkpt>
      <trkpt lat="47.90197" lon="6.91448">
        <ele>1141.8</ele>
        <time>2020-08-06T11:14:14Z</time>
      </trkpt>
      <trkpt lat="47.90197" lon="6.91447">
        <ele>1141.4</ele>
        <time>2020-08-06T11:16:10Z</time>
      </trkpt>
      <trkpt lat="47.90197" lon="6.91447">
        <ele>1141.4</ele>
        <time>2020-08-06T11:18:19Z</time>
      </trkpt>
      <trkpt lat="47.90197" lon="6.91447">
        <ele>1141.2</ele>
        <time>2020-08-06T11:18:35Z</time>
      </trkpt>
      <trkpt lat="47.90196" lon="6.91448">
        <ele>1141</ele>
        <time>2020-08-06T11:19:43Z</time>
      </trkpt>
      <trkpt lat="47.90199" lon="6.91442">
        <ele>1141.2</ele>
        <time>2020-08-06T11:19:47Z</time>
      </trkpt>
      <trkpt lat="47.90218" lon="6.91412">
        <ele>1141.2</ele>
        <time>2020-08-06T11:20:00Z</time>
      </trkpt>
      <trkpt lat="47.90236" lon="6.91386">
        <ele>1140.4</ele>
        <time>2020-08-06T11:20:10Z</time>
      </trkpt>
      <trkpt lat="47.90244" lon="6.91375">
        <ele>1139.4</ele>
        <time>2020-08-06T11:20:15Z</time>
      </trkpt>
      <trkpt lat="47.90245" lon="6.9136">
        <ele>1138.8</ele>
        <time>2020-08-06T11:20:19Z</time>
      </trkpt>
      <trkpt lat="47.90245" lon="6.9135">
        <ele>1138.2</ele>
        <time>2020-08-06T11:20:22Z</time>
      </trkpt>
      <trkpt lat="47.90244" lon="6.91347">
        <ele>1138</ele>
        <time>2020-08-06T11:20:23Z</time>
      </trkpt>
      <trkpt lat="47.90239" lon="6.91344">
        <ele>1137.2</ele>
        <time>2020-08-06T11:20:26Z</time>
      </trkpt>
      <trkpt lat="47.90236" lon="6.91343">
        <ele>1136.6</ele>
        <time>2020-08-06T11:20:28Z</time>
      </trkpt>
      <trkpt lat="47.90228" lon="6.91345">
        <ele>1136.2</ele>
        <time>2020-08-06T11:20:32Z</time>
      </trkpt>
      <trkpt lat="47.90206" lon="6.91372">
        <ele>1135</ele>
        <time>2020-08-06T11:20:41Z</time>
      </trkpt>
      <trkpt lat="47.90193" lon="6.91394">
        <ele>1133.8</ele>
        <time>2020-08-06T11:20:46Z</time>
      </trkpt>
      <trkpt lat="47.90188" lon="6.91401">
        <ele>1133</ele>
        <time>2020-08-06T11:20:49Z</time>
      </trkpt>
      <trkpt lat="47.90186" lon="6.91401">
        <ele>1132.6</ele>
        <time>2020-08-06T11:20:50Z</time>
      </trkpt>
      <trkpt lat="47.90184" lon="6.91392">
        <ele>1131.4</ele>
        <time>2020-08-06T11:20:53Z</time>
      </trkpt>
      <trkpt lat="47.90185" lon="6.91386">
        <ele>1131.2</ele>
        <time>2020-08-06T11:20:54Z</time>
      </trkpt>
      <trkpt lat="47.90188" lon="6.91364">
        <ele>1130.4</ele>
        <time>2020-08-06T11:20:58Z</time>
      </trkpt>
      <trkpt lat="47.9019" lon="6.91347">
        <ele>1128.8</ele>
        <time>2020-08-06T11:21:01Z</time>
      </trkpt>
      <trkpt lat="47.90195" lon="6.91327">
        <ele>1127.6</ele>
        <time>2020-08-06T11:21:04Z</time>
      </trkpt>
      <trkpt lat="47.902" lon="6.91304">
        <ele>1126.2</ele>
        <time>2020-08-06T11:21:07Z</time>
      </trkpt>
      <trkpt lat="47.90204" lon="6.91289">
        <ele>1124.6</ele>
        <time>2020-08-06T11:21:09Z</time>
      </trkpt>
      <trkpt lat="47.90212" lon="6.91266">
        <ele>1123.2</ele>
        <time>2020-08-06T11:21:12Z</time>
      </trkpt>
      <trkpt lat="47.90219" lon="6.9125">
        <ele>1121.8</ele>
        <time>2020-08-06T11:21:14Z</time>
      </trkpt>
      <trkpt lat="47.90226" lon="6.91235">
        <ele>1120.8</ele>
        <time>2020-08-06T11:21:16Z</time>
      </trkpt>
      <trkpt lat="47.90238" lon="6.91217">
        <ele>1119.2</ele>
        <time>2020-08-06T11:21:19Z</time>
      </trkpt>
      <trkpt lat="47.90243" lon="6.91212">
        <ele>1118.6</ele>
        <time>2020-08-06T11:21:20Z</time>
      </trkpt>
      <trkpt lat="47.90248" lon="6.91209">
        <ele>1117.8</ele>
        <time>2020-08-06T11:21:21Z</time>
      </trkpt>
      <trkpt lat="47.90258" lon="6.91204">
        <ele>1116.4</ele>
        <time>2020-08-06T11:21:23Z</time>
      </trkpt>
      <trkpt lat="47.90269" lon="6.91199">
        <ele>1115</ele>
        <time>2020-08-06T11:21:25Z</time>
      </trkpt>
      <trkpt lat="47.90279" lon="6.91196">
        <ele>1114</ele>
        <time>2020-08-06T11:21:27Z</time>
      </trkpt>
      <trkpt lat="47.90291" lon="6.91192">
        <ele>1112.6</ele>
        <time>2020-08-06T11:21:29Z</time>
      </trkpt>
      <trkpt lat="47.90303" lon="6.91187">
        <ele>1111.4</ele>
        <time>2020-08-06T11:21:31Z</time>
      </trkpt>
      <trkpt lat="47.90314" lon="6.91182">
        <ele>1109.8</ele>
        <time>2020-08-06T11:21:33Z</time>
      </trkpt>
      <trkpt lat="47.9032" lon="6.91179">
        <ele>1109</ele>
        <time>2020-08-06T11:21:34Z</time>
      </trkpt>
      <trkpt lat="47.90325" lon="6.91175">
        <ele>1108</ele>
        <time>2020-08-06T11:21:35Z</time>
      </trkpt>
      <trkpt lat="47.90337" lon="6.91169">
        <ele>1106.6</ele>
        <time>2020-08-06T11:21:37Z</time>
      </trkpt>
      <trkpt lat="47.90344" lon="6.91166">
        <ele>1105.8</ele>
        <time>2020-08-06T11:21:38Z</time>
      </trkpt>
      <trkpt lat="47.90351" lon="6.91165">
        <ele>1105</ele>
        <time>2020-08-06T11:21:39Z</time>
      </trkpt>
      <trkpt lat="47.90361" lon="6.91163">
        <ele>1103.4</ele>
        <time>2020-08-06T11:21:41Z</time>
      </trkpt>
      <trkpt lat="47.90368" lon="6.91162">
        <ele>1102.2</ele>
        <time>2020-08-06T11:21:43Z</time>
      </trkpt>
      <trkpt lat="47.9037" lon="6.9116">
        <ele>1100.8</ele>
        <time>2020-08-06T11:21:44Z</time>
      </trkpt>
      <trkpt lat="47.90376" lon="6.9116">
        <ele>1099.8</ele>
        <time>2020-08-06T11:21:46Z</time>
      </trkpt>
      <trkpt lat="47.90382" lon="6.91158">
        <ele>1098.6</ele>
        <time>2020-08-06T11:21:49Z</time>
      </trkpt>
      <trkpt lat="47.90389" lon="6.9115">
        <ele>1097.6</ele>
        <time>2020-08-06T11:21:55Z</time>
      </trkpt>
      <trkpt lat="47.9039" lon="6.91148">
        <ele>1096.6</ele>
        <time>2020-08-06T11:22:01Z</time>
      </trkpt>
      <trkpt lat="47.90391" lon="6.91144">
        <ele>1096.4</ele>
        <time>2020-08-06T11:22:06Z</time>
      </trkpt>
      <trkpt lat="47.90393" lon="6.91135">
        <ele>1096.2</ele>
        <time>2020-08-06T11:22:08Z</time>
      </trkpt>
      <trkpt lat="47.90394" lon="6.91116">
        <ele>1096.2</ele>
        <time>2020-08-06T11:22:11Z</time>
      </trkpt>
      <trkpt lat="47.90392" lon="6.91102">
        <ele>1096.2</ele>
        <time>2020-08-06T11:22:13Z</time>
      </trkpt>
      <trkpt lat="47.90376" lon="6.91078">
        <ele>1095.2</ele>
        <time>2020-08-06T11:22:17Z</time>
      </trkpt>
      <trkpt lat="47.9037" lon="6.91074">
        <ele>1094.2</ele>
        <time>2020-08-06T11:22:18Z</time>
      </trkpt>
      <trkpt lat="47.90359" lon="6.91069">
        <ele>1093</ele>
        <time>2020-08-06T11:22:20Z</time>
      </trkpt>
      <trkpt lat="47.90347" lon="6.91067">
        <ele>1092</ele>
        <time>2020-08-06T11:22:22Z</time>
      </trkpt>
      <trkpt lat="47.90341" lon="6.91066">
        <ele>1091.4</ele>
        <time>2020-08-06T11:22:23Z</time>
      </trkpt>
      <trkpt lat="47.90329" lon="6.91067">
        <ele>1090.2</ele>
        <time>2020-08-06T11:22:25Z</time>
      </trkpt>
      <trkpt lat="47.90323" lon="6.91069">
        <ele>1089.6</ele>
        <time>2020-08-06T11:22:26Z</time>
      </trkpt>
      <trkpt lat="47.90317" lon="6.91071">
        <ele>1088.8</ele>
        <time>2020-08-06T11:22:27Z</time>
      </trkpt>
      <trkpt lat="47.90304" lon="6.91076">
        <ele>1087.4</ele>
        <time>2020-08-06T11:22:29Z</time>
      </trkpt>
      <trkpt lat="47.90292" lon="6.91082">
        <ele>1085.6</ele>
        <time>2020-08-06T11:22:31Z</time>
      </trkpt>
      <trkpt lat="47.90279" lon="6.91087">
        <ele>1084.2</ele>
        <time>2020-08-06T11:22:33Z</time>
      </trkpt>
      <trkpt lat="47.90273" lon="6.91089">
        <ele>1083.6</ele>
        <time>2020-08-06T11:22:34Z</time>
      </trkpt>
      <trkpt lat="47.90267" lon="6.9109">
        <ele>1082.8</ele>
        <time>2020-08-06T11:22:35Z</time>
      </trkpt>
      <trkpt lat="47.90257" lon="6.91091">
        <ele>1081.2</ele>
        <time>2020-08-06T11:22:37Z</time>
      </trkpt>
      <trkpt lat="47.90246" lon="6.91091">
        <ele>1079.6</ele>
        <time>2020-08-06T11:22:39Z</time>
      </trkpt>
      <trkpt lat="47.90241" lon="6.9109">
        <ele>1078.8</ele>
        <time>2020-08-06T11:22:40Z</time>
      </trkpt>
      <trkpt lat="47.90236" lon="6.9109">
        <ele>1078</ele>
        <time>2020-08-06T11:22:41Z</time>
      </trkpt>
      <trkpt lat="47.90223" lon="6.9109">
        <ele>1076.8</ele>
        <time>2020-08-06T11:22:43Z</time>
      </trkpt>
      <trkpt lat="47.9021" lon="6.91089">
        <ele>1075.4</ele>
        <time>2020-08-06T11:22:45Z</time>
      </trkpt>
      <trkpt lat="47.90203" lon="6.9109">
        <ele>1074.6</ele>
        <time>2020-08-06T11:22:46Z</time>
      </trkpt>
      <trkpt lat="47.90195" lon="6.91092">
        <ele>1073.8</ele>
        <time>2020-08-06T11:22:47Z</time>
      </trkpt>
      <trkpt lat="47.90179" lon="6.91097">
        <ele>1072.2</ele>
        <time>2020-08-06T11:22:49Z</time>
      </trkpt>
      <trkpt lat="47.90162" lon="6.91106">
        <ele>1070.8</ele>
        <time>2020-08-06T11:22:51Z</time>
      </trkpt>
      <trkpt lat="47.90146" lon="6.91117">
        <ele>1069.2</ele>
        <time>2020-08-06T11:22:53Z</time>
      </trkpt>
      <trkpt lat="47.90132" lon="6.91129">
        <ele>1067.8</ele>
        <time>2020-08-06T11:22:55Z</time>
      </trkpt>
      <trkpt lat="47.90118" lon="6.91147">
        <ele>1066.4</ele>
        <time>2020-08-06T11:22:57Z</time>
      </trkpt>
      <trkpt lat="47.90103" lon="6.91168">
        <ele>1065.2</ele>
        <time>2020-08-06T11:22:59Z</time>
      </trkpt>
      <trkpt lat="47.90087" lon="6.9119">
        <ele>1063.6</ele>
        <time>2020-08-06T11:23:01Z</time>
      </trkpt>
      <trkpt lat="47.90075" lon="6.91214">
        <ele>1062</ele>
        <time>2020-08-06T11:23:03Z</time>
      </trkpt>
      <trkpt lat="47.90063" lon="6.91238">
        <ele>1060.4</ele>
        <time>2020-08-06T11:23:05Z</time>
      </trkpt>
      <trkpt lat="47.90051" lon="6.91259">
        <ele>1058.4</ele>
        <time>2020-08-06T11:23:07Z</time>
      </trkpt>
      <trkpt lat="47.90039" lon="6.91279">
        <ele>1057</ele>
        <time>2020-08-06T11:23:09Z</time>
      </trkpt>
      <trkpt lat="47.90028" lon="6.91297">
        <ele>1055.2</ele>
        <time>2020-08-06T11:23:11Z</time>
      </trkpt>
      <trkpt lat="47.90023" lon="6.91306">
        <ele>1054.2</ele>
        <time>2020-08-06T11:23:12Z</time>
      </trkpt>
      <trkpt lat="47.90017" lon="6.91315">
        <ele>1053.4</ele>
        <time>2020-08-06T11:23:13Z</time>
      </trkpt>
      <trkpt lat="47.9001" lon="6.91322">
        <ele>1052.6</ele>
        <time>2020-08-06T11:23:14Z</time>
      </trkpt>
      <trkpt lat="47.89996" lon="6.91332">
        <ele>1051</ele>
        <time>2020-08-06T11:23:16Z</time>
      </trkpt>
      <trkpt lat="47.89981" lon="6.91337">
        <ele>1049.2</ele>
        <time>2020-08-06T11:23:18Z</time>
      </trkpt>
      <trkpt lat="47.89966" lon="6.91341">
        <ele>1047.6</ele>
        <time>2020-08-06T11:23:20Z</time>
      </trkpt>
      <trkpt lat="47.89953" lon="6.9135">
        <ele>1045.8</ele>
        <time>2020-08-06T11:23:22Z</time>
      </trkpt>
      <trkpt lat="47.89943" lon="6.91359">
        <ele>1044</ele>
        <time>2020-08-06T11:23:24Z</time>
      </trkpt>
      <trkpt lat="47.89941" lon="6.91358">
        <ele>1043.2</ele>
        <time>2020-08-06T11:23:25Z</time>
      </trkpt>
      <trkpt lat="47.89939" lon="6.91354">
        <ele>1042.6</ele>
        <time>2020-08-06T11:23:26Z</time>
      </trkpt>
      <trkpt lat="47.89941" lon="6.9135">
        <ele>1041</ele>
        <time>2020-08-06T11:23:27Z</time>
      </trkpt>
      <trkpt lat="47.89948" lon="6.91338">
        <ele>1039.6</ele>
        <time>2020-08-06T11:23:29Z</time>
      </trkpt>
      <trkpt lat="47.89957" lon="6.91324">
        <ele>1038</ele>
        <time>2020-08-06T11:23:31Z</time>
      </trkpt>
      <trkpt lat="47.89968" lon="6.9131">
        <ele>1036.2</ele>
        <time>2020-08-06T11:23:33Z</time>
      </trkpt>
      <trkpt lat="47.8998" lon="6.91295">
        <ele>1034.6</ele>
        <time>2020-08-06T11:23:35Z</time>
      </trkpt>
      <trkpt lat="47.89985" lon="6.91287">
        <ele>1034</ele>
        <time>2020-08-06T11:23:36Z</time>
      </trkpt>
      <trkpt lat="47.89989" lon="6.91278">
        <ele>1033.4</ele>
        <time>2020-08-06T11:23:37Z</time>
      </trkpt>
      <trkpt lat="47.89995" lon="6.91257">
        <ele>1032.2</ele>
        <time>2020-08-06T11:23:39Z</time>
      </trkpt>
      <trkpt lat="47.89999" lon="6.91236">
        <ele>1030.8</ele>
        <time>2020-08-06T11:23:41Z</time>
      </trkpt>
      <trkpt lat="47.90002" lon="6.91213">
        <ele>1029</ele>
        <time>2020-08-06T11:23:43Z</time>
      </trkpt>
      <trkpt lat="47.90003" lon="6.912">
        <ele>1028.4</ele>
        <time>2020-08-06T11:23:44Z</time>
      </trkpt>
      <trkpt lat="47.90004" lon="6.91188">
        <ele>1027.8</ele>
        <time>2020-08-06T11:23:45Z</time>
      </trkpt>
      <trkpt lat="47.90005" lon="6.91164">
        <ele>1026.4</ele>
        <time>2020-08-06T11:23:47Z</time>
      </trkpt>
      <trkpt lat="47.90006" lon="6.91153">
        <ele>1025.6</ele>
        <time>2020-08-06T11:23:48Z</time>
      </trkpt>
      <trkpt lat="47.90009" lon="6.91142">
        <ele>1024.6</ele>
        <time>2020-08-06T11:23:49Z</time>
      </trkpt>
      <trkpt lat="47.90015" lon="6.9112">
        <ele>1023</ele>
        <time>2020-08-06T11:23:51Z</time>
      </trkpt>
      <trkpt lat="47.90021" lon="6.91099">
        <ele>1021.6</ele>
        <time>2020-08-06T11:23:53Z</time>
      </trkpt>
      <trkpt lat="47.90028" lon="6.91077">
        <ele>1020</ele>
        <time>2020-08-06T11:23:55Z</time>
      </trkpt>
      <trkpt lat="47.90036" lon="6.91055">
        <ele>1018.4</ele>
        <time>2020-08-06T11:23:57Z</time>
      </trkpt>
      <trkpt lat="47.90045" lon="6.91034">
        <ele>1016.8</ele>
        <time>2020-08-06T11:23:59Z</time>
      </trkpt>
      <trkpt lat="47.90055" lon="6.91014">
        <ele>1015.2</ele>
        <time>2020-08-06T11:24:01Z</time>
      </trkpt>
      <trkpt lat="47.90061" lon="6.91004">
        <ele>1013.8</ele>
        <time>2020-08-06T11:24:02Z</time>
      </trkpt>
      <trkpt lat="47.90072" lon="6.90986">
        <ele>1012.4</ele>
        <time>2020-08-06T11:24:04Z</time>
      </trkpt>
      <trkpt lat="47.90085" lon="6.9097">
        <ele>1010.6</ele>
        <time>2020-08-06T11:24:06Z</time>
      </trkpt>
      <trkpt lat="47.90099" lon="6.90956">
        <ele>1009</ele>
        <time>2020-08-06T11:24:08Z</time>
      </trkpt>
      <trkpt lat="47.90113" lon="6.90944">
        <ele>1007.6</ele>
        <time>2020-08-06T11:24:10Z</time>
      </trkpt>
      <trkpt lat="47.90124" lon="6.9093">
        <ele>1006</ele>
        <time>2020-08-06T11:24:12Z</time>
      </trkpt>
      <trkpt lat="47.90132" lon="6.90912">
        <ele>1004.4</ele>
        <time>2020-08-06T11:24:14Z</time>
      </trkpt>
      <trkpt lat="47.90135" lon="6.90893">
        <ele>1003.2</ele>
        <time>2020-08-06T11:24:16Z</time>
      </trkpt>
      <trkpt lat="47.90137" lon="6.90882">
        <ele>1002.6</ele>
        <time>2020-08-06T11:24:17Z</time>
      </trkpt>
      <trkpt lat="47.9014" lon="6.90871">
        <ele>1001.8</ele>
        <time>2020-08-06T11:24:18Z</time>
      </trkpt>
      <trkpt lat="47.90149" lon="6.90849">
        <ele>1000.2</ele>
        <time>2020-08-06T11:24:20Z</time>
      </trkpt>
      <trkpt lat="47.90159" lon="6.90828">
        <ele>998.8</ele>
        <time>2020-08-06T11:24:22Z</time>
      </trkpt>
      <trkpt lat="47.90166" lon="6.90806">
        <ele>997.4</ele>
        <time>2020-08-06T11:24:24Z</time>
      </trkpt>
      <trkpt lat="47.90168" lon="6.90786">
        <ele>995.4</ele>
        <time>2020-08-06T11:24:26Z</time>
      </trkpt>
      <trkpt lat="47.90164" lon="6.90762">
        <ele>993.8</ele>
        <time>2020-08-06T11:24:28Z</time>
      </trkpt>
      <trkpt lat="47.90164" lon="6.90751">
        <ele>993.2</ele>
        <time>2020-08-06T11:24:29Z</time>
      </trkpt>
      <trkpt lat="47.90167" lon="6.90739">
        <ele>992.6</ele>
        <time>2020-08-06T11:24:30Z</time>
      </trkpt>
      <trkpt lat="47.90174" lon="6.90717">
        <ele>991</ele>
        <time>2020-08-06T11:24:32Z</time>
      </trkpt>
      <trkpt lat="47.90178" lon="6.90706">
        <ele>990.4</ele>
        <time>2020-08-06T11:24:33Z</time>
      </trkpt>
      <trkpt lat="47.90182" lon="6.90697">
        <ele>989.6</ele>
        <time>2020-08-06T11:24:34Z</time>
      </trkpt>
      <trkpt lat="47.90187" lon="6.9068">
        <ele>986.8</ele>
        <time>2020-08-06T11:24:36Z</time>
      </trkpt>
      <trkpt lat="47.90189" lon="6.90673">
        <ele>985.8</ele>
        <time>2020-08-06T11:24:37Z</time>
      </trkpt>
      <trkpt lat="47.90191" lon="6.90659">
        <ele>984.6</ele>
        <time>2020-08-06T11:24:39Z</time>
      </trkpt>
      <trkpt lat="47.90194" lon="6.90645">
        <ele>982.8</ele>
        <time>2020-08-06T11:24:41Z</time>
      </trkpt>
      <trkpt lat="47.90195" lon="6.90627">
        <ele>981.6</ele>
        <time>2020-08-06T11:24:43Z</time>
      </trkpt>
      <trkpt lat="47.90193" lon="6.90608">
        <ele>980.4</ele>
        <time>2020-08-06T11:24:45Z</time>
      </trkpt>
      <trkpt lat="47.9019" lon="6.90588">
        <ele>979.4</ele>
        <time>2020-08-06T11:24:47Z</time>
      </trkpt>
      <trkpt lat="47.90188" lon="6.90578">
        <ele>978.8</ele>
        <time>2020-08-06T11:24:48Z</time>
      </trkpt>
      <trkpt lat="47.90186" lon="6.90568">
        <ele>978</ele>
        <time>2020-08-06T11:24:49Z</time>
      </trkpt>
      <trkpt lat="47.90182" lon="6.9056">
        <ele>977.6</ele>
        <time>2020-08-06T11:24:50Z</time>
      </trkpt>
      <trkpt lat="47.9018" lon="6.90554">
        <ele>977</ele>
        <time>2020-08-06T11:24:51Z</time>
      </trkpt>
      <trkpt lat="47.90176" lon="6.90543">
        <ele>976</ele>
        <time>2020-08-06T11:24:53Z</time>
      </trkpt>
      <trkpt lat="47.90175" lon="6.90539">
        <ele>975.4</ele>
        <time>2020-08-06T11:24:54Z</time>
      </trkpt>
      <trkpt lat="47.90177" lon="6.90532">
        <ele>974.2</ele>
        <time>2020-08-06T11:24:56Z</time>
      </trkpt>
      <trkpt lat="47.90178" lon="6.9053">
        <ele>973</ele>
        <time>2020-08-06T11:24:58Z</time>
      </trkpt>
      <trkpt lat="47.9018" lon="6.90526">
        <ele>971.8</ele>
        <time>2020-08-06T11:26:00Z</time>
      </trkpt>
      <trkpt lat="47.90196" lon="6.90453">
        <ele>972.4</ele>
        <time>2020-08-06T11:26:18Z</time>
      </trkpt>
      <trkpt lat="47.90199" lon="6.90372">
        <ele>972.2</ele>
        <time>2020-08-06T11:26:29Z</time>
      </trkpt>
      <trkpt lat="47.902" lon="6.90336">
        <ele>971.8</ele>
        <time>2020-08-06T11:26:34Z</time>
      </trkpt>
      <trkpt lat="47.90197" lon="6.9031">
        <ele>971.6</ele>
        <time>2020-08-06T11:26:38Z</time>
      </trkpt>
      <trkpt lat="47.90183" lon="6.90227">
        <ele>971.2</ele>
        <time>2020-08-06T11:26:51Z</time>
      </trkpt>
      <trkpt lat="47.90182" lon="6.90212">
        <ele>971.6</ele>
        <time>2020-08-06T11:26:53Z</time>
      </trkpt>
      <trkpt lat="47.90191" lon="6.90142">
        <ele>971.8</ele>
        <time>2020-08-06T11:27:04Z</time>
      </trkpt>
      <trkpt lat="47.90197" lon="6.9012">
        <ele>971.6</ele>
        <time>2020-08-06T11:27:07Z</time>
      </trkpt>
      <trkpt lat="47.90203" lon="6.90093">
        <ele>970.4</ele>
        <time>2020-08-06T11:27:11Z</time>
      </trkpt>
      <trkpt lat="47.90205" lon="6.90086">
        <ele>969.8</ele>
        <time>2020-08-06T11:27:12Z</time>
      </trkpt>
      <trkpt lat="47.9021" lon="6.90074">
        <ele>969.4</ele>
        <time>2020-08-06T11:27:14Z</time>
      </trkpt>
      <trkpt lat="47.90221" lon="6.9005">
        <ele>969</ele>
        <time>2020-08-06T11:27:19Z</time>
      </trkpt>
      <trkpt lat="47.90237" lon="6.9001">
        <ele>968</ele>
        <time>2020-08-06T11:27:27Z</time>
      </trkpt>
      <trkpt lat="47.90238" lon="6.89988">
        <ele>967.4</ele>
        <time>2020-08-06T11:27:30Z</time>
      </trkpt>
      <trkpt lat="47.90238" lon="6.89973">
        <ele>966.8</ele>
        <time>2020-08-06T11:27:32Z</time>
      </trkpt>
      <trkpt lat="47.90238" lon="6.89965">
        <ele>966.6</ele>
        <time>2020-08-06T11:27:33Z</time>
      </trkpt>
      <trkpt lat="47.9024" lon="6.89935">
        <ele>965.8</ele>
        <time>2020-08-06T11:27:37Z</time>
      </trkpt>
      <trkpt lat="47.90241" lon="6.89895">
        <ele>964.6</ele>
        <time>2020-08-06T11:27:42Z</time>
      </trkpt>
      <trkpt lat="47.90239" lon="6.8988">
        <ele>964</ele>
        <time>2020-08-06T11:27:44Z</time>
      </trkpt>
      <trkpt lat="47.90238" lon="6.89873">
        <ele>963.4</ele>
        <time>2020-08-06T11:27:45Z</time>
      </trkpt>
      <trkpt lat="47.90236" lon="6.89859">
        <ele>962.4</ele>
        <time>2020-08-06T11:27:47Z</time>
      </trkpt>
      <trkpt lat="47.90234" lon="6.89844">
        <ele>961.4</ele>
        <time>2020-08-06T11:27:49Z</time>
      </trkpt>
      <trkpt lat="47.90228" lon="6.89819">
        <ele>960.6</ele>
        <time>2020-08-06T11:27:52Z</time>
      </trkpt>
      <trkpt lat="47.90225" lon="6.8981">
        <ele>960</ele>
        <time>2020-08-06T11:27:53Z</time>
      </trkpt>
      <trkpt lat="47.90221" lon="6.89794">
        <ele>959</ele>
        <time>2020-08-06T11:27:55Z</time>
      </trkpt>
      <trkpt lat="47.90216" lon="6.89769">
        <ele>958</ele>
        <time>2020-08-06T11:27:58Z</time>
      </trkpt>
      <trkpt lat="47.9021" lon="6.89752">
        <ele>956.4</ele>
        <time>2020-08-06T11:28:01Z</time>
      </trkpt>
      <trkpt lat="47.90206" lon="6.8974">
        <ele>955.8</ele>
        <time>2020-08-06T11:28:03Z</time>
      </trkpt>
      <trkpt lat="47.90203" lon="6.89734">
        <ele>955.4</ele>
        <time>2020-08-06T11:28:04Z</time>
      </trkpt>
      <trkpt lat="47.90189" lon="6.89709">
        <ele>954.4</ele>
        <time>2020-08-06T11:28:08Z</time>
      </trkpt>
      <trkpt lat="47.90176" lon="6.89679">
        <ele>953.2</ele>
        <time>2020-08-06T11:28:12Z</time>
      </trkpt>
      <trkpt lat="47.90173" lon="6.89673">
        <ele>952.8</ele>
        <time>2020-08-06T11:28:13Z</time>
      </trkpt>
      <trkpt lat="47.90168" lon="6.89667">
        <ele>952</ele>
        <time>2020-08-06T11:28:14Z</time>
      </trkpt>
      <trkpt lat="47.90164" lon="6.89661">
        <ele>951.8</ele>
        <time>2020-08-06T11:28:15Z</time>
      </trkpt>
      <trkpt lat="47.90155" lon="6.89648">
        <ele>950.8</ele>
        <time>2020-08-06T11:28:17Z</time>
      </trkpt>
      <trkpt lat="47.90147" lon="6.89636">
        <ele>949.6</ele>
        <time>2020-08-06T11:28:19Z</time>
      </trkpt>
      <trkpt lat="47.90132" lon="6.89613">
        <ele>948.4</ele>
        <time>2020-08-06T11:28:23Z</time>
      </trkpt>
      <trkpt lat="47.90125" lon="6.89603">
        <ele>948</ele>
        <time>2020-08-06T11:28:25Z</time>
      </trkpt>
      <trkpt lat="47.90113" lon="6.89586">
        <ele>947.2</ele>
        <time>2020-08-06T11:28:28Z</time>
      </trkpt>
      <trkpt lat="47.90101" lon="6.89566">
        <ele>946</ele>
        <time>2020-08-06T11:28:31Z</time>
      </trkpt>
      <trkpt lat="47.90086" lon="6.89542">
        <ele>945</ele>
        <time>2020-08-06T11:28:35Z</time>
      </trkpt>
      <trkpt lat="47.90078" lon="6.8953">
        <ele>943.8</ele>
        <time>2020-08-06T11:28:37Z</time>
      </trkpt>
      <trkpt lat="47.90072" lon="6.89519">
        <ele>942.8</ele>
        <time>2020-08-06T11:28:39Z</time>
      </trkpt>
      <trkpt lat="47.90066" lon="6.89513">
        <ele>941.6</ele>
        <time>2020-08-06T11:28:42Z</time>
      </trkpt>
      <trkpt lat="47.90064" lon="6.89511">
        <ele>940.4</ele>
        <time>2020-08-06T11:28:48Z</time>
      </trkpt>
      <trkpt lat="47.90064" lon="6.89511">
        <ele>940.2</ele>
        <time>2020-08-06T11:29:21Z</time>
      </trkpt>
      <trkpt lat="47.90039" lon="6.89461">
        <ele>939.4</ele>
        <time>2020-08-06T11:29:41Z</time>
      </trkpt>
      <trkpt lat="47.90021" lon="6.89433">
        <ele>937.8</ele>
        <time>2020-08-06T11:29:47Z</time>
      </trkpt>
      <trkpt lat="47.90006" lon="6.89409">
        <ele>936.6</ele>
        <time>2020-08-06T11:29:52Z</time>
      </trkpt>
      <trkpt lat="47.9" lon="6.89392">
        <ele>935.4</ele>
        <time>2020-08-06T11:29:55Z</time>
      </trkpt>
      <trkpt lat="47.89996" lon="6.89372">
        <ele>934.4</ele>
        <time>2020-08-06T11:29:59Z</time>
      </trkpt>
      <trkpt lat="47.89992" lon="6.89348">
        <ele>933.2</ele>
        <time>2020-08-06T11:30:03Z</time>
      </trkpt>
      <trkpt lat="47.89985" lon="6.89317">
        <ele>931.8</ele>
        <time>2020-08-06T11:30:08Z</time>
      </trkpt>
      <trkpt lat="47.89976" lon="6.89295">
        <ele>930.4</ele>
        <time>2020-08-06T11:30:11Z</time>
      </trkpt>
      <trkpt lat="47.8997" lon="6.89276">
        <ele>929.2</ele>
        <time>2020-08-06T11:30:14Z</time>
      </trkpt>
      <trkpt lat="47.89966" lon="6.89269">
        <ele>928.8</ele>
        <time>2020-08-06T11:30:15Z</time>
      </trkpt>
      <trkpt lat="47.89952" lon="6.89239">
        <ele>928</ele>
        <time>2020-08-06T11:30:20Z</time>
      </trkpt>
      <trkpt lat="47.89948" lon="6.89226">
        <ele>927</ele>
        <time>2020-08-06T11:30:22Z</time>
      </trkpt>
      <trkpt lat="47.89941" lon="6.89202">
        <ele>925.8</ele>
        <time>2020-08-06T11:30:26Z</time>
      </trkpt>
      <trkpt lat="47.8993" lon="6.89156">
        <ele>924.6</ele>
        <time>2020-08-06T11:30:33Z</time>
      </trkpt>
      <trkpt lat="47.89923" lon="6.89137">
        <ele>923.4</ele>
        <time>2020-08-06T11:30:36Z</time>
      </trkpt>
      <trkpt lat="47.8992" lon="6.89115">
        <ele>922.4</ele>
        <time>2020-08-06T11:30:40Z</time>
      </trkpt>
      <trkpt lat="47.89918" lon="6.89109">
        <ele>922</ele>
        <time>2020-08-06T11:30:41Z</time>
      </trkpt>
      <trkpt lat="47.89914" lon="6.89096">
        <ele>921</ele>
        <time>2020-08-06T11:30:43Z</time>
      </trkpt>
      <trkpt lat="47.89908" lon="6.8908">
        <ele>920</ele>
        <time>2020-08-06T11:30:46Z</time>
      </trkpt>
      <trkpt lat="47.89904" lon="6.89071">
        <ele>918.6</ele>
        <time>2020-08-06T11:30:48Z</time>
      </trkpt>
      <trkpt lat="47.89899" lon="6.8906">
        <ele>917.6</ele>
        <time>2020-08-06T11:30:50Z</time>
      </trkpt>
      <trkpt lat="47.89895" lon="6.89048">
        <ele>916.6</ele>
        <time>2020-08-06T11:30:52Z</time>
      </trkpt>
      <trkpt lat="47.89893" lon="6.89035">
        <ele>915.6</ele>
        <time>2020-08-06T11:30:54Z</time>
      </trkpt>
      <trkpt lat="47.89893" lon="6.89023">
        <ele>914.4</ele>
        <time>2020-08-06T11:30:56Z</time>
      </trkpt>
      <trkpt lat="47.8989" lon="6.89008">
        <ele>913</ele>
        <time>2020-08-06T11:30:58Z</time>
      </trkpt>
      <trkpt lat="47.89882" lon="6.88987">
        <ele>911</ele>
        <time>2020-08-06T11:31:01Z</time>
      </trkpt>
      <trkpt lat="47.8988" lon="6.88982">
        <ele>910.2</ele>
        <time>2020-08-06T11:31:02Z</time>
      </trkpt>
      <trkpt lat="47.89877" lon="6.88977">
        <ele>909.6</ele>
        <time>2020-08-06T11:31:03Z</time>
      </trkpt>
      <trkpt lat="47.89874" lon="6.88972">
        <ele>909</ele>
        <time>2020-08-06T11:31:04Z</time>
      </trkpt>
      <trkpt lat="47.89869" lon="6.88961">
        <ele>908</ele>
        <time>2020-08-06T11:31:06Z</time>
      </trkpt>
      <trkpt lat="47.89863" lon="6.88945">
        <ele>906.8</ele>
        <time>2020-08-06T11:31:09Z</time>
      </trkpt>
      <trkpt lat="47.89859" lon="6.88934">
        <ele>905.6</ele>
        <time>2020-08-06T11:31:11Z</time>
      </trkpt>
      <trkpt lat="47.89852" lon="6.88915">
        <ele>904.2</ele>
        <time>2020-08-06T11:31:14Z</time>
      </trkpt>
      <trkpt lat="47.89846" lon="6.88897">
        <ele>903</ele>
        <time>2020-08-06T11:31:17Z</time>
      </trkpt>
      <trkpt lat="47.89839" lon="6.88879">
        <ele>901.6</ele>
        <time>2020-08-06T11:31:20Z</time>
      </trkpt>
      <trkpt lat="47.89833" lon="6.88863">
        <ele>900.4</ele>
        <time>2020-08-06T11:31:23Z</time>
      </trkpt>
      <trkpt lat="47.89824" lon="6.88844">
        <ele>899.2</ele>
        <time>2020-08-06T11:31:26Z</time>
      </trkpt>
      <trkpt lat="47.8982" lon="6.8883">
        <ele>898</ele>
        <time>2020-08-06T11:31:28Z</time>
      </trkpt>
      <trkpt lat="47.89817" lon="6.88815">
        <ele>897.4</ele>
        <time>2020-08-06T11:31:30Z</time>
      </trkpt>
      <trkpt lat="47.89816" lon="6.88808">
        <ele>896.4</ele>
        <time>2020-08-06T11:31:31Z</time>
      </trkpt>
      <trkpt lat="47.89812" lon="6.88794">
        <ele>895.4</ele>
        <time>2020-08-06T11:31:33Z</time>
      </trkpt>
      <trkpt lat="47.89809" lon="6.8878">
        <ele>894</ele>
        <time>2020-08-06T11:31:35Z</time>
      </trkpt>
      <trkpt lat="47.89806" lon="6.88772">
        <ele>893.6</ele>
        <time>2020-08-06T11:31:36Z</time>
      </trkpt>
      <trkpt lat="47.898" lon="6.88758">
        <ele>893</ele>
        <time>2020-08-06T11:31:38Z</time>
      </trkpt>
      <trkpt lat="47.89795" lon="6.88745">
        <ele>892</ele>
        <time>2020-08-06T11:31:40Z</time>
      </trkpt>
      <trkpt lat="47.8979" lon="6.88734">
        <ele>890.8</ele>
        <time>2020-08-06T11:31:43Z</time>
      </trkpt>
      <trkpt lat="47.89786" lon="6.88728">
        <ele>889.6</ele>
        <time>2020-08-06T11:31:45Z</time>
      </trkpt>
      <trkpt lat="47.89779" lon="6.88716">
        <ele>888.4</ele>
        <time>2020-08-06T11:31:58Z</time>
      </trkpt>
      <trkpt lat="47.89779" lon="6.88712">
        <ele>888.4</ele>
        <time>2020-08-06T11:32:07Z</time>
      </trkpt>
      <trkpt lat="47.89776" lon="6.88695">
        <ele>888.4</ele>
        <time>2020-08-06T11:32:11Z</time>
      </trkpt>
      <trkpt lat="47.89765" lon="6.8865">
        <ele>887.4</ele>
        <time>2020-08-06T11:32:19Z</time>
      </trkpt>
      <trkpt lat="47.89761" lon="6.88635">
        <ele>887</ele>
        <time>2020-08-06T11:32:22Z</time>
      </trkpt>
      <trkpt lat="47.8976" lon="6.88624">
        <ele>886.2</ele>
        <time>2020-08-06T11:32:24Z</time>
      </trkpt>
      <trkpt lat="47.89753" lon="6.88597">
        <ele>885.4</ele>
        <time>2020-08-06T11:32:28Z</time>
      </trkpt>
      <trkpt lat="47.89746" lon="6.88571">
        <ele>884</ele>
        <time>2020-08-06T11:32:32Z</time>
      </trkpt>
      <trkpt lat="47.8974" lon="6.88545">
        <ele>882.8</ele>
        <time>2020-08-06T11:32:36Z</time>
      </trkpt>
      <trkpt lat="47.89731" lon="6.88522">
        <ele>881.6</ele>
        <time>2020-08-06T11:32:39Z</time>
      </trkpt>
      <trkpt lat="47.89727" lon="6.88509">
        <ele>880.2</ele>
        <time>2020-08-06T11:32:41Z</time>
      </trkpt>
      <trkpt lat="47.89717" lon="6.88472">
        <ele>879.2</ele>
        <time>2020-08-06T11:32:46Z</time>
      </trkpt>
      <trkpt lat="47.89697" lon="6.88396">
        <ele>878.4</ele>
        <time>2020-08-06T11:33:43Z</time>
      </trkpt>
      <trkpt lat="47.89694" lon="6.88378">
        <ele>877</ele>
        <time>2020-08-06T11:33:46Z</time>
      </trkpt>
      <trkpt lat="47.89686" lon="6.88356">
        <ele>875.2</ele>
        <time>2020-08-06T11:33:49Z</time>
      </trkpt>
      <trkpt lat="47.89675" lon="6.88333">
        <ele>874.2</ele>
        <time>2020-08-06T11:33:53Z</time>
      </trkpt>
      <trkpt lat="47.89666" lon="6.8831">
        <ele>873.2</ele>
        <time>2020-08-06T11:33:57Z</time>
      </trkpt>
      <trkpt lat="47.89654" lon="6.88284">
        <ele>872</ele>
        <time>2020-08-06T11:34:02Z</time>
      </trkpt>
      <trkpt lat="47.89649" lon="6.88277">
        <ele>871</ele>
        <time>2020-08-06T11:34:04Z</time>
      </trkpt>
      <trkpt lat="47.89645" lon="6.88268">
        <ele>869.6</ele>
        <time>2020-08-06T11:34:06Z</time>
      </trkpt>
      <trkpt lat="47.89638" lon="6.88259">
        <ele>868</ele>
        <time>2020-08-06T11:34:08Z</time>
      </trkpt>
      <trkpt lat="47.89625" lon="6.88248">
        <ele>867.2</ele>
        <time>2020-08-06T11:34:11Z</time>
      </trkpt>
      <trkpt lat="47.8962" lon="6.88245">
        <ele>866.8</ele>
        <time>2020-08-06T11:34:12Z</time>
      </trkpt>
      <trkpt lat="47.89607" lon="6.8824">
        <ele>865.8</ele>
        <time>2020-08-06T11:34:14Z</time>
      </trkpt>
      <trkpt lat="47.89595" lon="6.88235">
        <ele>864.8</ele>
        <time>2020-08-06T11:34:16Z</time>
      </trkpt>
      <trkpt lat="47.8959" lon="6.88234">
        <ele>864.4</ele>
        <time>2020-08-06T11:34:17Z</time>
      </trkpt>
      <trkpt lat="47.8958" lon="6.88233">
        <ele>863.2</ele>
        <time>2020-08-06T11:34:19Z</time>
      </trkpt>
      <trkpt lat="47.8957" lon="6.88233">
        <ele>862</ele>
        <time>2020-08-06T11:34:21Z</time>
      </trkpt>
      <trkpt lat="47.89566" lon="6.88229">
        <ele>861.4</ele>
        <time>2020-08-06T11:34:23Z</time>
      </trkpt>
      <trkpt lat="47.89565" lon="6.88229">
        <ele>861</ele>
        <time>2020-08-06T11:34:25Z</time>
      </trkpt>
      <trkpt lat="47.89565" lon="6.88226">
        <ele>860.4</ele>
        <time>2020-08-06T11:35:10Z</time>
      </trkpt>
      <trkpt lat="47.8957" lon="6.88228">
        <ele>860.4</ele>
        <time>2020-08-06T11:35:59Z</time>
      </trkpt>
      <trkpt lat="47.89594" lon="6.88211">
        <ele>859.6</ele>
        <time>2020-08-06T11:36:09Z</time>
      </trkpt>
      <trkpt lat="47.89597" lon="6.88211">
        <ele>859.4</ele>
        <time>2020-08-06T11:36:10Z</time>
      </trkpt>
      <trkpt lat="47.89612" lon="6.88214">
        <ele>858.6</ele>
        <time>2020-08-06T11:36:13Z</time>
      </trkpt>
      <trkpt lat="47.89638" lon="6.88224">
        <ele>857.4</ele>
        <time>2020-08-06T11:36:18Z</time>
      </trkpt>
      <trkpt lat="47.89649" lon="6.88229">
        <ele>856.4</ele>
        <time>2020-08-06T11:36:20Z</time>
      </trkpt>
      <trkpt lat="47.89658" lon="6.88236">
        <ele>855.2</ele>
        <time>2020-08-06T11:36:22Z</time>
      </trkpt>
      <trkpt lat="47.89669" lon="6.88245">
        <ele>853.6</ele>
        <time>2020-08-06T11:36:24Z</time>
      </trkpt>
      <trkpt lat="47.89675" lon="6.88251">
        <ele>853</ele>
        <time>2020-08-06T11:36:25Z</time>
      </trkpt>
      <trkpt lat="47.89681" lon="6.88257">
        <ele>852.4</ele>
        <time>2020-08-06T11:36:26Z</time>
      </trkpt>
      <trkpt lat="47.89692" lon="6.88271">
        <ele>851.4</ele>
        <time>2020-08-06T11:36:28Z</time>
      </trkpt>
      <trkpt lat="47.89704" lon="6.88287">
        <ele>850.4</ele>
        <time>2020-08-06T11:36:30Z</time>
      </trkpt>
      <trkpt lat="47.89713" lon="6.88303">
        <ele>849</ele>
        <time>2020-08-06T11:36:32Z</time>
      </trkpt>
      <trkpt lat="47.89722" lon="6.88318">
        <ele>848</ele>
        <time>2020-08-06T11:36:34Z</time>
      </trkpt>
      <trkpt lat="47.89738" lon="6.88339">
        <ele>846.8</ele>
        <time>2020-08-06T11:36:37Z</time>
      </trkpt>
      <trkpt lat="47.89749" lon="6.88352">
        <ele>845</ele>
        <time>2020-08-06T11:36:39Z</time>
      </trkpt>
      <trkpt lat="47.89754" lon="6.88359">
        <ele>844</ele>
        <time>2020-08-06T11:36:40Z</time>
      </trkpt>
      <trkpt lat="47.8976" lon="6.88366">
        <ele>842.4</ele>
        <time>2020-08-06T11:36:41Z</time>
      </trkpt>
      <trkpt lat="47.89771" lon="6.88379">
        <ele>841.6</ele>
        <time>2020-08-06T11:36:43Z</time>
      </trkpt>
      <trkpt lat="47.89788" lon="6.884">
        <ele>840.2</ele>
        <time>2020-08-06T11:36:46Z</time>
      </trkpt>
      <trkpt lat="47.89794" lon="6.88408">
        <ele>839.8</ele>
        <time>2020-08-06T11:36:47Z</time>
      </trkpt>
      <trkpt lat="47.89803" lon="6.88425">
        <ele>838.8</ele>
        <time>2020-08-06T11:36:49Z</time>
      </trkpt>
      <trkpt lat="47.89811" lon="6.88443">
        <ele>837.2</ele>
        <time>2020-08-06T11:36:51Z</time>
      </trkpt>
      <trkpt lat="47.89821" lon="6.88458">
        <ele>836</ele>
        <time>2020-08-06T11:36:53Z</time>
      </trkpt>
      <trkpt lat="47.89831" lon="6.88473">
        <ele>834.8</ele>
        <time>2020-08-06T11:36:55Z</time>
      </trkpt>
      <trkpt lat="47.8984" lon="6.88487">
        <ele>833.6</ele>
        <time>2020-08-06T11:36:57Z</time>
      </trkpt>
      <trkpt lat="47.89848" lon="6.88501">
        <ele>832.4</ele>
        <time>2020-08-06T11:36:59Z</time>
      </trkpt>
      <trkpt lat="47.8986" lon="6.88522">
        <ele>830.8</ele>
        <time>2020-08-06T11:37:02Z</time>
      </trkpt>
      <trkpt lat="47.89871" lon="6.88536">
        <ele>829.6</ele>
        <time>2020-08-06T11:37:04Z</time>
      </trkpt>
      <trkpt lat="47.8988" lon="6.88553">
        <ele>828.2</ele>
        <time>2020-08-06T11:37:06Z</time>
      </trkpt>
      <trkpt lat="47.89889" lon="6.88571">
        <ele>827.2</ele>
        <time>2020-08-06T11:37:08Z</time>
      </trkpt>
      <trkpt lat="47.89902" lon="6.886">
        <ele>825.8</ele>
        <time>2020-08-06T11:37:11Z</time>
      </trkpt>
      <trkpt lat="47.89911" lon="6.88619">
        <ele>824.2</ele>
        <time>2020-08-06T11:37:13Z</time>
      </trkpt>
      <trkpt lat="47.89915" lon="6.88629">
        <ele>823.4</ele>
        <time>2020-08-06T11:37:14Z</time>
      </trkpt>
      <trkpt lat="47.8992" lon="6.88638">
        <ele>822.8</ele>
        <time>2020-08-06T11:37:15Z</time>
      </trkpt>
      <trkpt lat="47.89926" lon="6.88646">
        <ele>821.4</ele>
        <time>2020-08-06T11:37:16Z</time>
      </trkpt>
      <trkpt lat="47.89935" lon="6.88665">
        <ele>820</ele>
        <time>2020-08-06T11:37:18Z</time>
      </trkpt>
      <trkpt lat="47.89944" lon="6.88682">
        <ele>818.4</ele>
        <time>2020-08-06T11:37:20Z</time>
      </trkpt>
      <trkpt lat="47.89951" lon="6.88699">
        <ele>816.8</ele>
        <time>2020-08-06T11:37:22Z</time>
      </trkpt>
      <trkpt lat="47.89959" lon="6.88716">
        <ele>815.8</ele>
        <time>2020-08-06T11:37:24Z</time>
      </trkpt>
      <trkpt lat="47.89968" lon="6.88742">
        <ele>814.2</ele>
        <time>2020-08-06T11:37:27Z</time>
      </trkpt>
      <trkpt lat="47.89973" lon="6.8875">
        <ele>813.8</ele>
        <time>2020-08-06T11:37:28Z</time>
      </trkpt>
      <trkpt lat="47.89978" lon="6.88756">
        <ele>813.2</ele>
        <time>2020-08-06T11:37:29Z</time>
      </trkpt>
      <trkpt lat="47.89988" lon="6.88767">
        <ele>811.8</ele>
        <time>2020-08-06T11:37:31Z</time>
      </trkpt>
      <trkpt lat="47.89998" lon="6.88777">
        <ele>810.4</ele>
        <time>2020-08-06T11:37:33Z</time>
      </trkpt>
      <trkpt lat="47.90003" lon="6.88784">
        <ele>810</ele>
        <time>2020-08-06T11:37:34Z</time>
      </trkpt>
      <trkpt lat="47.90012" lon="6.888">
        <ele>809</ele>
        <time>2020-08-06T11:37:36Z</time>
      </trkpt>
      <trkpt lat="47.90015" lon="6.8881">
        <ele>808.2</ele>
        <time>2020-08-06T11:37:37Z</time>
      </trkpt>
      <trkpt lat="47.90018" lon="6.88819">
        <ele>807.4</ele>
        <time>2020-08-06T11:37:38Z</time>
      </trkpt>
      <trkpt lat="47.90021" lon="6.88827">
        <ele>806.8</ele>
        <time>2020-08-06T11:37:39Z</time>
      </trkpt>
      <trkpt lat="47.90027" lon="6.88837">
        <ele>806</ele>
        <time>2020-08-06T11:37:41Z</time>
      </trkpt>
      <trkpt lat="47.90034" lon="6.88842">
        <ele>804.6</ele>
        <time>2020-08-06T11:37:43Z</time>
      </trkpt>
      <trkpt lat="47.90044" lon="6.88852">
        <ele>803.4</ele>
        <time>2020-08-06T11:37:45Z</time>
      </trkpt>
      <trkpt lat="47.90053" lon="6.88867">
        <ele>802.4</ele>
        <time>2020-08-06T11:37:47Z</time>
      </trkpt>
      <trkpt lat="47.90068" lon="6.88894">
        <ele>801.2</ele>
        <time>2020-08-06T11:37:50Z</time>
      </trkpt>
      <trkpt lat="47.90073" lon="6.88904">
        <ele>800.2</ele>
        <time>2020-08-06T11:37:51Z</time>
      </trkpt>
      <trkpt lat="47.90085" lon="6.88924">
        <ele>798.8</ele>
        <time>2020-08-06T11:37:53Z</time>
      </trkpt>
      <trkpt lat="47.90095" lon="6.88943">
        <ele>797</ele>
        <time>2020-08-06T11:37:55Z</time>
      </trkpt>
      <trkpt lat="47.90105" lon="6.88963">
        <ele>795.8</ele>
        <time>2020-08-06T11:37:57Z</time>
      </trkpt>
      <trkpt lat="47.90116" lon="6.88981">
        <ele>794.2</ele>
        <time>2020-08-06T11:37:59Z</time>
      </trkpt>
      <trkpt lat="47.90127" lon="6.88996">
        <ele>793</ele>
        <time>2020-08-06T11:38:01Z</time>
      </trkpt>
      <trkpt lat="47.90139" lon="6.89013">
        <ele>792.2</ele>
        <time>2020-08-06T11:38:03Z</time>
      </trkpt>
      <trkpt lat="47.90143" lon="6.89021">
        <ele>791.4</ele>
        <time>2020-08-06T11:38:04Z</time>
      </trkpt>
      <trkpt lat="47.90147" lon="6.8903">
        <ele>790.6</ele>
        <time>2020-08-06T11:38:05Z</time>
      </trkpt>
      <trkpt lat="47.90153" lon="6.89044">
        <ele>788.8</ele>
        <time>2020-08-06T11:38:07Z</time>
      </trkpt>
      <trkpt lat="47.90163" lon="6.89046">
        <ele>787.2</ele>
        <time>2020-08-06T11:38:10Z</time>
      </trkpt>
      <trkpt lat="47.90167" lon="6.89027">
        <ele>786.2</ele>
        <time>2020-08-06T11:38:13Z</time>
      </trkpt>
      <trkpt lat="47.90162" lon="6.89009">
        <ele>785.8</ele>
        <time>2020-08-06T11:38:16Z</time>
      </trkpt>
      <trkpt lat="47.90155" lon="6.88991">
        <ele>785.4</ele>
        <time>2020-08-06T11:38:19Z</time>
      </trkpt>
      <trkpt lat="47.90146" lon="6.88966">
        <ele>784</ele>
        <time>2020-08-06T11:38:23Z</time>
      </trkpt>
      <trkpt lat="47.90143" lon="6.88952">
        <ele>782.6</ele>
        <time>2020-08-06T11:38:25Z</time>
      </trkpt>
      <trkpt lat="47.9014" lon="6.88937">
        <ele>781.2</ele>
        <time>2020-08-06T11:38:27Z</time>
      </trkpt>
      <trkpt lat="47.9014" lon="6.88924">
        <ele>779.8</ele>
        <time>2020-08-06T11:38:29Z</time>
      </trkpt>
      <trkpt lat="47.90143" lon="6.88915">
        <ele>778.8</ele>
        <time>2020-08-06T11:38:31Z</time>
      </trkpt>
      <trkpt lat="47.90143" lon="6.88912">
        <ele>778.4</ele>
        <time>2020-08-06T11:38:32Z</time>
      </trkpt>
      <trkpt lat="47.90143" lon="6.8891">
        <ele>777.8</ele>
        <time>2020-08-06T11:38:33Z</time>
      </trkpt>
      <trkpt lat="47.90143" lon="6.8891">
        <ele>777.2</ele>
        <time>2020-08-06T11:38:34Z</time>
      </trkpt>
      <trkpt lat="47.90142" lon="6.88908">
        <ele>776.2</ele>
        <time>2020-08-06T11:38:36Z</time>
      </trkpt>
      <trkpt lat="47.90143" lon="6.88909">
        <ele>775</ele>
        <time>2020-08-06T11:38:39Z</time>
      </trkpt>
      <trkpt lat="47.90149" lon="6.88918">
        <ele>774.6</ele>
        <time>2020-08-06T11:38:43Z</time>
      </trkpt>
      <trkpt lat="47.90178" lon="6.88974">
        <ele>774</ele>
        <time>2020-08-06T11:38:51Z</time>
      </trkpt>
      <trkpt lat="47.9019" lon="6.88997">
        <ele>772.6</ele>
        <time>2020-08-06T11:38:54Z</time>
      </trkpt>
      <trkpt lat="47.90198" lon="6.8901">
        <ele>771.2</ele>
        <time>2020-08-06T11:38:56Z</time>
      </trkpt>
      <trkpt lat="47.90206" lon="6.89021">
        <ele>770.2</ele>
        <time>2020-08-06T11:38:58Z</time>
      </trkpt>
      <trkpt lat="47.90213" lon="6.89031">
        <ele>769</ele>
        <time>2020-08-06T11:39:00Z</time>
      </trkpt>
      <trkpt lat="47.90223" lon="6.89035">
        <ele>768</ele>
        <time>2020-08-06T11:39:02Z</time>
      </trkpt>
      <trkpt lat="47.90233" lon="6.8904">
        <ele>767</ele>
        <time>2020-08-06T11:39:04Z</time>
      </trkpt>
      <trkpt lat="47.90245" lon="6.8905">
        <ele>765.2</ele>
        <time>2020-08-06T11:39:06Z</time>
      </trkpt>
      <trkpt lat="47.90256" lon="6.89064">
        <ele>764.4</ele>
        <time>2020-08-06T11:39:08Z</time>
      </trkpt>
      <trkpt lat="47.90266" lon="6.89077">
        <ele>763</ele>
        <time>2020-08-06T11:39:10Z</time>
      </trkpt>
      <trkpt lat="47.90277" lon="6.89088">
        <ele>761.4</ele>
        <time>2020-08-06T11:39:12Z</time>
      </trkpt>
      <trkpt lat="47.90288" lon="6.89099">
        <ele>759.8</ele>
        <time>2020-08-06T11:39:14Z</time>
      </trkpt>
      <trkpt lat="47.903" lon="6.8911">
        <ele>758.4</ele>
        <time>2020-08-06T11:39:16Z</time>
      </trkpt>
      <trkpt lat="47.90311" lon="6.89123">
        <ele>757.2</ele>
        <time>2020-08-06T11:39:18Z</time>
      </trkpt>
      <trkpt lat="47.90316" lon="6.89128">
        <ele>756.4</ele>
        <time>2020-08-06T11:39:19Z</time>
      </trkpt>
      <trkpt lat="47.90322" lon="6.89133">
        <ele>755.8</ele>
        <time>2020-08-06T11:39:20Z</time>
      </trkpt>
      <trkpt lat="47.90333" lon="6.89144">
        <ele>754</ele>
        <time>2020-08-06T11:39:22Z</time>
      </trkpt>
      <trkpt lat="47.90337" lon="6.89152">
        <ele>753.2</ele>
        <time>2020-08-06T11:39:23Z</time>
      </trkpt>
      <trkpt lat="47.90341" lon="6.89159">
        <ele>752.4</ele>
        <time>2020-08-06T11:39:24Z</time>
      </trkpt>
      <trkpt lat="47.9035" lon="6.89172">
        <ele>751</ele>
        <time>2020-08-06T11:39:26Z</time>
      </trkpt>
      <trkpt lat="47.9036" lon="6.89184">
        <ele>749.8</ele>
        <time>2020-08-06T11:39:28Z</time>
      </trkpt>
      <trkpt lat="47.90365" lon="6.8919">
        <ele>749</ele>
        <time>2020-08-06T11:39:29Z</time>
      </trkpt>
      <trkpt lat="47.9037" lon="6.89194">
        <ele>748.2</ele>
        <time>2020-08-06T11:39:30Z</time>
      </trkpt>
      <trkpt lat="47.9038" lon="6.89202">
        <ele>747</ele>
        <time>2020-08-06T11:39:32Z</time>
      </trkpt>
      <trkpt lat="47.90385" lon="6.89206">
        <ele>746.2</ele>
        <time>2020-08-06T11:39:33Z</time>
      </trkpt>
      <trkpt lat="47.9039" lon="6.89209">
        <ele>745</ele>
        <time>2020-08-06T11:39:34Z</time>
      </trkpt>
      <trkpt lat="47.90401" lon="6.89213">
        <ele>743.4</ele>
        <time>2020-08-06T11:39:36Z</time>
      </trkpt>
      <trkpt lat="47.90411" lon="6.89217">
        <ele>741.8</ele>
        <time>2020-08-06T11:39:38Z</time>
      </trkpt>
      <trkpt lat="47.90419" lon="6.89223">
        <ele>740</ele>
        <time>2020-08-06T11:39:40Z</time>
      </trkpt>
      <trkpt lat="47.90424" lon="6.89232">
        <ele>738.8</ele>
        <time>2020-08-06T11:39:42Z</time>
      </trkpt>
      <trkpt lat="47.90428" lon="6.89237">
        <ele>738.2</ele>
        <time>2020-08-06T11:39:43Z</time>
      </trkpt>
      <trkpt lat="47.90432" lon="6.89241">
        <ele>737.6</ele>
        <time>2020-08-06T11:39:44Z</time>
      </trkpt>
      <trkpt lat="47.90442" lon="6.89249">
        <ele>736</ele>
        <time>2020-08-06T11:39:46Z</time>
      </trkpt>
      <trkpt lat="47.90452" lon="6.89254">
        <ele>735</ele>
        <time>2020-08-06T11:39:48Z</time>
      </trkpt>
      <trkpt lat="47.90461" lon="6.89261">
        <ele>734</ele>
        <time>2020-08-06T11:39:50Z</time>
      </trkpt>
      <trkpt lat="47.9047" lon="6.8927">
        <ele>732.6</ele>
        <time>2020-08-06T11:39:52Z</time>
      </trkpt>
      <trkpt lat="47.90485" lon="6.89283">
        <ele>731</ele>
        <time>2020-08-06T11:39:55Z</time>
      </trkpt>
      <trkpt lat="47.90496" lon="6.8929">
        <ele>729.8</ele>
        <time>2020-08-06T11:39:57Z</time>
      </trkpt>
      <trkpt lat="47.90507" lon="6.89297">
        <ele>728.4</ele>
        <time>2020-08-06T11:39:59Z</time>
      </trkpt>
      <trkpt lat="47.90517" lon="6.89303">
        <ele>726.6</ele>
        <time>2020-08-06T11:40:01Z</time>
      </trkpt>
      <trkpt lat="47.90531" lon="6.89314">
        <ele>725</ele>
        <time>2020-08-06T11:40:04Z</time>
      </trkpt>
      <trkpt lat="47.9054" lon="6.89321">
        <ele>723.6</ele>
        <time>2020-08-06T11:40:06Z</time>
      </trkpt>
      <trkpt lat="47.90549" lon="6.89329">
        <ele>721.6</ele>
        <time>2020-08-06T11:40:08Z</time>
      </trkpt>
      <trkpt lat="47.90554" lon="6.89336">
        <ele>720.4</ele>
        <time>2020-08-06T11:40:09Z</time>
      </trkpt>
      <trkpt lat="47.90563" lon="6.89351">
        <ele>719</ele>
        <time>2020-08-06T11:40:11Z</time>
      </trkpt>
      <trkpt lat="47.90568" lon="6.89358">
        <ele>718.4</ele>
        <time>2020-08-06T11:40:12Z</time>
      </trkpt>
      <trkpt lat="47.90572" lon="6.89366">
        <ele>718</ele>
        <time>2020-08-06T11:40:13Z</time>
      </trkpt>
      <trkpt lat="47.90576" lon="6.89373">
        <ele>717</ele>
        <time>2020-08-06T11:40:14Z</time>
      </trkpt>
      <trkpt lat="47.9058" lon="6.89379">
        <ele>716.4</ele>
        <time>2020-08-06T11:40:15Z</time>
      </trkpt>
      <trkpt lat="47.90597" lon="6.8939">
        <ele>715</ele>
        <time>2020-08-06T11:40:18Z</time>
      </trkpt>
      <trkpt lat="47.90615" lon="6.89392">
        <ele>713.4</ele>
        <time>2020-08-06T11:40:21Z</time>
      </trkpt>
      <trkpt lat="47.90625" lon="6.89384">
        <ele>712</ele>
        <time>2020-08-06T11:40:23Z</time>
      </trkpt>
      <trkpt lat="47.90633" lon="6.89372">
        <ele>710.8</ele>
        <time>2020-08-06T11:40:25Z</time>
      </trkpt>
      <trkpt lat="47.9064" lon="6.89358">
        <ele>709.6</ele>
        <time>2020-08-06T11:40:28Z</time>
      </trkpt>
      <trkpt lat="47.90639" lon="6.8935">
        <ele>708.2</ele>
        <time>2020-08-06T11:40:30Z</time>
      </trkpt>
      <trkpt lat="47.90636" lon="6.8934">
        <ele>707.4</ele>
        <time>2020-08-06T11:40:32Z</time>
      </trkpt>
      <trkpt lat="47.90632" lon="6.89329">
        <ele>706.2</ele>
        <time>2020-08-06T11:40:34Z</time>
      </trkpt>
      <trkpt lat="47.90624" lon="6.8931">
        <ele>705.2</ele>
        <time>2020-08-06T11:40:37Z</time>
      </trkpt>
      <trkpt lat="47.90621" lon="6.89304">
        <ele>704.8</ele>
        <time>2020-08-06T11:40:38Z</time>
      </trkpt>
      <trkpt lat="47.90611" lon="6.89282">
        <ele>704.2</ele>
        <time>2020-08-06T11:40:41Z</time>
      </trkpt>
      <trkpt lat="47.90604" lon="6.89266">
        <ele>703.2</ele>
        <time>2020-08-06T11:40:43Z</time>
      </trkpt>
      <trkpt lat="47.90584" lon="6.89227">
        <ele>702</ele>
        <time>2020-08-06T11:40:48Z</time>
      </trkpt>
      <trkpt lat="47.90565" lon="6.89201">
        <ele>700.8</ele>
        <time>2020-08-06T11:40:52Z</time>
      </trkpt>
      <trkpt lat="47.90544" lon="6.8918">
        <ele>700</ele>
        <time>2020-08-06T11:40:56Z</time>
      </trkpt>
      <trkpt lat="47.9054" lon="6.89174">
        <ele>699.8</ele>
        <time>2020-08-06T11:40:57Z</time>
      </trkpt>
      <trkpt lat="47.90537" lon="6.89143">
        <ele>698.6</ele>
        <time>2020-08-06T11:41:01Z</time>
      </trkpt>
      <trkpt lat="47.90545" lon="6.89124">
        <ele>697.8</ele>
        <time>2020-08-06T11:41:04Z</time>
      </trkpt>
      <trkpt lat="47.90548" lon="6.89117">
        <ele>697.6</ele>
        <time>2020-08-06T11:41:05Z</time>
      </trkpt>
      <trkpt lat="47.90563" lon="6.89089">
        <ele>696.8</ele>
        <time>2020-08-06T11:41:10Z</time>
      </trkpt>
      <trkpt lat="47.90564" lon="6.89083">
        <ele>696.6</ele>
        <time>2020-08-06T11:41:11Z</time>
      </trkpt>
      <trkpt lat="47.90561" lon="6.89072">
        <ele>696.2</ele>
        <time>2020-08-06T11:41:14Z</time>
      </trkpt>
      <trkpt lat="47.9056" lon="6.8907">
        <ele>695.8</ele>
        <time>2020-08-06T11:41:31Z</time>
      </trkpt>
      <trkpt lat="47.90556" lon="6.8906">
        <ele>696</ele>
        <time>2020-08-06T11:42:13Z</time>
      </trkpt>
      <trkpt lat="47.90531" lon="6.89002">
        <ele>695.6</ele>
        <time>2020-08-06T11:42:23Z</time>
      </trkpt>
      <trkpt lat="47.90515" lon="6.88967">
        <ele>694.6</ele>
        <time>2020-08-06T11:42:28Z</time>
      </trkpt>
      <trkpt lat="47.90496" lon="6.88921">
        <ele>693.8</ele>
        <time>2020-08-06T11:42:34Z</time>
      </trkpt>
      <trkpt lat="47.90481" lon="6.8888">
        <ele>693</ele>
        <time>2020-08-06T11:42:39Z</time>
      </trkpt>
      <trkpt lat="47.90479" lon="6.88871">
        <ele>692.8</ele>
        <time>2020-08-06T11:42:40Z</time>
      </trkpt>
      <trkpt lat="47.90465" lon="6.88831">
        <ele>691.6</ele>
        <time>2020-08-06T11:42:45Z</time>
      </trkpt>
      <trkpt lat="47.90439" lon="6.88769">
        <ele>690.6</ele>
        <time>2020-08-06T11:42:53Z</time>
      </trkpt>
      <trkpt lat="47.90419" lon="6.88718">
        <ele>690</ele>
        <time>2020-08-06T11:42:59Z</time>
      </trkpt>
      <trkpt lat="47.90416" lon="6.88709">
        <ele>689.8</ele>
        <time>2020-08-06T11:43:00Z</time>
      </trkpt>
      <trkpt lat="47.90397" lon="6.88661">
        <ele>688.6</ele>
        <time>2020-08-06T11:43:05Z</time>
      </trkpt>
      <trkpt lat="47.90385" lon="6.88631">
        <ele>687.2</ele>
        <time>2020-08-06T11:43:08Z</time>
      </trkpt>
      <trkpt lat="47.90373" lon="6.886">
        <ele>686</ele>
        <time>2020-08-06T11:43:11Z</time>
      </trkpt>
      <trkpt lat="47.90364" lon="6.8858">
        <ele>685.2</ele>
        <time>2020-08-06T11:43:13Z</time>
      </trkpt>
      <trkpt lat="47.90352" lon="6.8855">
        <ele>684</ele>
        <time>2020-08-06T11:43:16Z</time>
      </trkpt>
      <trkpt lat="47.9034" lon="6.88519">
        <ele>682.8</ele>
        <time>2020-08-06T11:43:19Z</time>
      </trkpt>
      <trkpt lat="47.90327" lon="6.88488">
        <ele>681.6</ele>
        <time>2020-08-06T11:43:22Z</time>
      </trkpt>
      <trkpt lat="47.9031" lon="6.88448">
        <ele>680.6</ele>
        <time>2020-08-06T11:43:26Z</time>
      </trkpt>
      <trkpt lat="47.90293" lon="6.88406">
        <ele>679.6</ele>
        <time>2020-08-06T11:43:30Z</time>
      </trkpt>
      <trkpt lat="47.90279" lon="6.88377">
        <ele>678.6</ele>
        <time>2020-08-06T11:43:33Z</time>
      </trkpt>
      <trkpt lat="47.90269" lon="6.88349">
        <ele>677</ele>
        <time>2020-08-06T11:43:36Z</time>
      </trkpt>
      <trkpt lat="47.90261" lon="6.88324">
        <ele>676</ele>
        <time>2020-08-06T11:43:40Z</time>
      </trkpt>
      <trkpt lat="47.90256" lon="6.88307">
        <ele>675.2</ele>
        <time>2020-08-06T11:43:43Z</time>
      </trkpt>
      <trkpt lat="47.90253" lon="6.88301">
        <ele>675</ele>
        <time>2020-08-06T11:43:44Z</time>
      </trkpt>
      <trkpt lat="47.90251" lon="6.88295">
        <ele>674.8</ele>
        <time>2020-08-06T11:43:45Z</time>
      </trkpt>
      <trkpt lat="47.90234" lon="6.88254">
        <ele>674.2</ele>
        <time>2020-08-06T11:43:52Z</time>
      </trkpt>
      <trkpt lat="47.90223" lon="6.88238">
        <ele>673.6</ele>
        <time>2020-08-06T11:43:55Z</time>
      </trkpt>
      <trkpt lat="47.90208" lon="6.88225">
        <ele>673</ele>
        <time>2020-08-06T11:43:58Z</time>
      </trkpt>
      <trkpt lat="47.90161" lon="6.88176">
        <ele>672.4</ele>
        <time>2020-08-06T11:44:08Z</time>
      </trkpt>
      <trkpt lat="47.9015" lon="6.88159">
        <ele>672.2</ele>
        <time>2020-08-06T11:44:11Z</time>
      </trkpt>
      <trkpt lat="47.9011" lon="6.88101">
        <ele>672</ele>
        <time>2020-08-06T11:44:21Z</time>
      </trkpt>
      <trkpt lat="47.90071" lon="6.88044">
        <ele>671.8</ele>
        <time>2020-08-06T11:44:31Z</time>
      </trkpt>
      <trkpt lat="47.90034" lon="6.87985">
        <ele>671.6</ele>
        <time>2020-08-06T11:44:41Z</time>
      </trkpt>
      <trkpt lat="47.90028" lon="6.87972">
        <ele>671.6</ele>
        <time>2020-08-06T11:44:43Z</time>
      </trkpt>
      <trkpt lat="47.90012" lon="6.87942">
        <ele>671.4</ele>
        <time>2020-08-06T11:44:48Z</time>
      </trkpt>
      <trkpt lat="47.89965" lon="6.87892">
        <ele>670.8</ele>
        <time>2020-08-06T11:45:00Z</time>
      </trkpt>
      <trkpt lat="47.89922" lon="6.87841">
        <ele>671</ele>
        <time>2020-08-06T11:45:11Z</time>
      </trkpt>
      <trkpt lat="47.89896" lon="6.87816">
        <ele>671</ele>
        <time>2020-08-06T11:45:17Z</time>
      </trkpt>
      <trkpt lat="47.89887" lon="6.87809">
        <ele>671</ele>
        <time>2020-08-06T11:45:19Z</time>
      </trkpt>
      <trkpt lat="47.89834" lon="6.87777">
        <ele>670.6</ele>
        <time>2020-08-06T11:45:30Z</time>
      </trkpt>
      <trkpt lat="47.89796" lon="6.87763">
        <ele>670</ele>
        <time>2020-08-06T11:45:37Z</time>
      </trkpt>
      <trkpt lat="47.89744" lon="6.87738">
        <ele>669.6</ele>
        <time>2020-08-06T11:45:47Z</time>
      </trkpt>
      <trkpt lat="47.89719" lon="6.87721">
        <ele>669.4</ele>
        <time>2020-08-06T11:45:52Z</time>
      </trkpt>
      <trkpt lat="47.89708" lon="6.87715">
        <ele>669.4</ele>
        <time>2020-08-06T11:45:54Z</time>
      </trkpt>
      <trkpt lat="47.89686" lon="6.87699">
        <ele>669.2</ele>
        <time>2020-08-06T11:45:58Z</time>
      </trkpt>
      <trkpt lat="47.89652" lon="6.8766">
        <ele>668.4</ele>
        <time>2020-08-06T11:46:05Z</time>
      </trkpt>
      <trkpt lat="47.89606" lon="6.87618">
        <ele>667.6</ele>
        <time>2020-08-06T11:46:14Z</time>
      </trkpt>
      <trkpt lat="47.89572" lon="6.8759">
        <ele>666.6</ele>
        <time>2020-08-06T11:46:20Z</time>
      </trkpt>
      <trkpt lat="47.89549" lon="6.87551">
        <ele>665.4</ele>
        <time>2020-08-06T11:46:25Z</time>
      </trkpt>
      <trkpt lat="47.89544" lon="6.87544">
        <ele>665.2</ele>
        <time>2020-08-06T11:46:26Z</time>
      </trkpt>
      <trkpt lat="47.89527" lon="6.87524">
        <ele>663.8</ele>
        <time>2020-08-06T11:46:29Z</time>
      </trkpt>
      <trkpt lat="47.89499" lon="6.87491">
        <ele>662.6</ele>
        <time>2020-08-06T11:46:34Z</time>
      </trkpt>
      <trkpt lat="47.89494" lon="6.87483">
        <ele>662.2</ele>
        <time>2020-08-06T11:46:35Z</time>
      </trkpt>
      <trkpt lat="47.89485" lon="6.87464">
        <ele>661.8</ele>
        <time>2020-08-06T11:46:37Z</time>
      </trkpt>
      <trkpt lat="47.89468" lon="6.8743">
        <ele>660.4</ele>
        <time>2020-08-06T11:46:41Z</time>
      </trkpt>
      <trkpt lat="47.89463" lon="6.87422">
        <ele>660.2</ele>
        <time>2020-08-06T11:46:42Z</time>
      </trkpt>
      <trkpt lat="47.89445" lon="6.87403">
        <ele>659.2</ele>
        <time>2020-08-06T11:46:45Z</time>
      </trkpt>
      <trkpt lat="47.89439" lon="6.87399">
        <ele>659</ele>
        <time>2020-08-06T11:46:46Z</time>
      </trkpt>
      <trkpt lat="47.89419" lon="6.87385">
        <ele>658</ele>
        <time>2020-08-06T11:46:49Z</time>
      </trkpt>
      <trkpt lat="47.894" lon="6.87372">
        <ele>657</ele>
        <time>2020-08-06T11:46:52Z</time>
      </trkpt>
      <trkpt lat="47.89379" lon="6.8736">
        <ele>655.8</ele>
        <time>2020-08-06T11:46:55Z</time>
      </trkpt>
      <trkpt lat="47.89358" lon="6.87348">
        <ele>654.8</ele>
        <time>2020-08-06T11:46:58Z</time>
      </trkpt>
      <trkpt lat="47.89351" lon="6.87344">
        <ele>654.4</ele>
        <time>2020-08-06T11:46:59Z</time>
      </trkpt>
      <trkpt lat="47.89336" lon="6.87339">
        <ele>653.6</ele>
        <time>2020-08-06T11:47:01Z</time>
      </trkpt>
      <trkpt lat="47.89312" lon="6.87331">
        <ele>652.4</ele>
        <time>2020-08-06T11:47:04Z</time>
      </trkpt>
      <trkpt lat="47.89305" lon="6.87326">
        <ele>652.2</ele>
        <time>2020-08-06T11:47:05Z</time>
      </trkpt>
      <trkpt lat="47.89293" lon="6.87312">
        <ele>651.4</ele>
        <time>2020-08-06T11:47:07Z</time>
      </trkpt>
      <trkpt lat="47.89282" lon="6.87289">
        <ele>650.4</ele>
        <time>2020-08-06T11:47:10Z</time>
      </trkpt>
      <trkpt lat="47.89279" lon="6.87282">
        <ele>649.8</ele>
        <time>2020-08-06T11:47:11Z</time>
      </trkpt>
      <trkpt lat="47.89276" lon="6.87277">
        <ele>649.2</ele>
        <time>2020-08-06T11:47:12Z</time>
      </trkpt>
      <trkpt lat="47.8928" lon="6.87266">
        <ele>648</ele>
        <time>2020-08-06T11:47:15Z</time>
      </trkpt>
      <trkpt lat="47.89291" lon="6.87271">
        <ele>647.6</ele>
        <time>2020-08-06T11:47:17Z</time>
      </trkpt>
      <trkpt lat="47.89314" lon="6.8728">
        <ele>647.2</ele>
        <time>2020-08-06T11:47:20Z</time>
      </trkpt>
      <trkpt lat="47.8933" lon="6.87277">
        <ele>646.8</ele>
        <time>2020-08-06T11:47:22Z</time>
      </trkpt>
      <trkpt lat="47.89345" lon="6.87268">
        <ele>645.8</ele>
        <time>2020-08-06T11:47:24Z</time>
      </trkpt>
      <trkpt lat="47.89359" lon="6.87257">
        <ele>644.8</ele>
        <time>2020-08-06T11:47:26Z</time>
      </trkpt>
      <trkpt lat="47.89381" lon="6.87241">
        <ele>643.4</ele>
        <time>2020-08-06T11:47:29Z</time>
      </trkpt>
      <trkpt lat="47.89397" lon="6.87233">
        <ele>643</ele>
        <time>2020-08-06T11:47:31Z</time>
      </trkpt>
      <trkpt lat="47.89421" lon="6.87224">
        <ele>642.4</ele>
        <time>2020-08-06T11:47:34Z</time>
      </trkpt>
      <trkpt lat="47.89451" lon="6.87212">
        <ele>640.6</ele>
        <time>2020-08-06T11:47:38Z</time>
      </trkpt>
      <trkpt lat="47.89457" lon="6.87208">
        <ele>640.2</ele>
        <time>2020-08-06T11:47:39Z</time>
      </trkpt>
      <trkpt lat="47.89466" lon="6.87193">
        <ele>639.6</ele>
        <time>2020-08-06T11:47:41Z</time>
      </trkpt>
      <trkpt lat="47.89454" lon="6.87161">
        <ele>639</ele>
        <time>2020-08-06T11:47:45Z</time>
      </trkpt>
      <trkpt lat="47.89431" lon="6.87123">
        <ele>638.6</ele>
        <time>2020-08-06T11:47:50Z</time>
      </trkpt>
      <trkpt lat="47.89427" lon="6.87113">
        <ele>638.4</ele>
        <time>2020-08-06T11:47:51Z</time>
      </trkpt>
      <trkpt lat="47.89416" lon="6.87062">
        <ele>637.8</ele>
        <time>2020-08-06T11:47:56Z</time>
      </trkpt>
      <trkpt lat="47.89414" lon="6.87052">
        <ele>637.8</ele>
        <time>2020-08-06T11:47:57Z</time>
      </trkpt>
      <trkpt lat="47.89404" lon="6.87024">
        <ele>637.6</ele>
        <time>2020-08-06T11:48:00Z</time>
      </trkpt>
      <trkpt lat="47.89397" lon="6.87005">
        <ele>637</ele>
        <time>2020-08-06T11:48:02Z</time>
      </trkpt>
      <trkpt lat="47.89393" lon="6.86996">
        <ele>637</ele>
        <time>2020-08-06T11:48:03Z</time>
      </trkpt>
      <trkpt lat="47.89387" lon="6.86976">
        <ele>636.8</ele>
        <time>2020-08-06T11:48:05Z</time>
      </trkpt>
      <trkpt lat="47.89384" lon="6.86944">
        <ele>636.4</ele>
        <time>2020-08-06T11:48:08Z</time>
      </trkpt>
      <trkpt lat="47.89381" lon="6.86914">
        <ele>635.8</ele>
        <time>2020-08-06T11:48:11Z</time>
      </trkpt>
      <trkpt lat="47.89379" lon="6.86895">
        <ele>635.4</ele>
        <time>2020-08-06T11:48:13Z</time>
      </trkpt>
      <trkpt lat="47.89358" lon="6.86869">
        <ele>635</ele>
        <time>2020-08-06T11:48:18Z</time>
      </trkpt>
      <trkpt lat="47.89354" lon="6.86865">
        <ele>635</ele>
        <time>2020-08-06T11:48:19Z</time>
      </trkpt>
      <trkpt lat="47.89313" lon="6.8683">
        <ele>634.8</ele>
        <time>2020-08-06T11:48:28Z</time>
      </trkpt>
      <trkpt lat="47.89296" lon="6.86797">
        <ele>634.6</ele>
        <time>2020-08-06T11:48:33Z</time>
      </trkpt>
      <trkpt lat="47.89281" lon="6.86736">
        <ele>634</ele>
        <time>2020-08-06T11:48:41Z</time>
      </trkpt>
      <trkpt lat="47.89273" lon="6.86684">
        <ele>633.6</ele>
        <time>2020-08-06T11:48:47Z</time>
      </trkpt>
      <trkpt lat="47.89257" lon="6.86618">
        <ele>632.8</ele>
        <time>2020-08-06T11:48:55Z</time>
      </trkpt>
      <trkpt lat="47.89254" lon="6.86611">
        <ele>632.8</ele>
        <time>2020-08-06T11:48:56Z</time>
      </trkpt>
      <trkpt lat="47.89239" lon="6.86575">
        <ele>632.6</ele>
        <time>2020-08-06T11:49:01Z</time>
      </trkpt>
      <trkpt lat="47.89222" lon="6.86541">
        <ele>632.6</ele>
        <time>2020-08-06T11:49:06Z</time>
      </trkpt>
      <trkpt lat="47.89187" lon="6.86479">
        <ele>632.2</ele>
        <time>2020-08-06T11:49:15Z</time>
      </trkpt>
      <trkpt lat="47.89179" lon="6.86467">
        <ele>632</ele>
        <time>2020-08-06T11:49:17Z</time>
      </trkpt>
      <trkpt lat="47.8915" lon="6.86417">
        <ele>631.4</ele>
        <time>2020-08-06T11:49:25Z</time>
      </trkpt>
      <trkpt lat="47.89166" lon="6.86354">
        <ele>630.8</ele>
        <time>2020-08-06T11:49:33Z</time>
      </trkpt>
      <trkpt lat="47.89184" lon="6.8633">
        <ele>630</ele>
        <time>2020-08-06T11:49:37Z</time>
      </trkpt>
      <trkpt lat="47.89169" lon="6.86263">
        <ele>629.2</ele>
        <time>2020-08-06T11:49:46Z</time>
      </trkpt>
      <trkpt lat="47.8916" lon="6.8625">
        <ele>629</ele>
        <time>2020-08-06T11:49:48Z</time>
      </trkpt>
      <trkpt lat="47.89144" lon="6.86225">
        <ele>629.2</ele>
        <time>2020-08-06T11:49:52Z</time>
      </trkpt>
      <trkpt lat="47.8914" lon="6.86218">
        <ele>629</ele>
        <time>2020-08-06T11:49:53Z</time>
      </trkpt>
      <trkpt lat="47.89119" lon="6.86187">
        <ele>628.6</ele>
        <time>2020-08-06T11:49:58Z</time>
      </trkpt>
      <trkpt lat="47.89092" lon="6.86128">
        <ele>628.2</ele>
        <time>2020-08-06T11:50:06Z</time>
      </trkpt>
      <trkpt lat="47.89082" lon="6.86096">
        <ele>628.2</ele>
        <time>2020-08-06T11:50:10Z</time>
      </trkpt>
      <trkpt lat="47.89073" lon="6.86073">
        <ele>628</ele>
        <time>2020-08-06T11:50:13Z</time>
      </trkpt>
      <trkpt lat="47.8907" lon="6.86065">
        <ele>628.2</ele>
        <time>2020-08-06T11:50:14Z</time>
      </trkpt>
      <trkpt lat="47.89059" lon="6.86044">
        <ele>628.2</ele>
        <time>2020-08-06T11:50:17Z</time>
      </trkpt>
      <trkpt lat="47.89051" lon="6.8603">
        <ele>628</ele>
        <time>2020-08-06T11:50:19Z</time>
      </trkpt>
      <trkpt lat="47.89025" lon="6.8598">
        <ele>627.6</ele>
        <time>2020-08-06T11:50:26Z</time>
      </trkpt>
      <trkpt lat="47.89016" lon="6.85959">
        <ele>627.4</ele>
        <time>2020-08-06T11:50:29Z</time>
      </trkpt>
      <trkpt lat="47.89009" lon="6.85946">
        <ele>627.4</ele>
        <time>2020-08-06T11:50:31Z</time>
      </trkpt>
      <trkpt lat="47.8898" lon="6.85876">
        <ele>626.8</ele>
        <time>2020-08-06T11:50:42Z</time>
      </trkpt>
      <trkpt lat="47.88942" lon="6.85821">
        <ele>626.6</ele>
        <time>2020-08-06T11:50:52Z</time>
      </trkpt>
      <trkpt lat="47.88938" lon="6.85816">
        <ele>626.4</ele>
        <time>2020-08-06T11:50:53Z</time>
      </trkpt>
      <trkpt lat="47.88924" lon="6.85793">
        <ele>626.2</ele>
        <time>2020-08-06T11:50:57Z</time>
      </trkpt>
      <trkpt lat="47.88899" lon="6.85754">
        <ele>625.8</ele>
        <time>2020-08-06T11:51:04Z</time>
      </trkpt>
      <trkpt lat="47.88872" lon="6.85719">
        <ele>624.8</ele>
        <time>2020-08-06T11:51:11Z</time>
      </trkpt>
      <trkpt lat="47.88869" lon="6.85715">
        <ele>624.8</ele>
        <time>2020-08-06T11:51:12Z</time>
      </trkpt>
      <trkpt lat="47.88865" lon="6.8571">
        <ele>624.6</ele>
        <time>2020-08-06T11:51:13Z</time>
      </trkpt>
      <trkpt lat="47.88847" lon="6.85687">
        <ele>624</ele>
        <time>2020-08-06T11:51:18Z</time>
      </trkpt>
      <trkpt lat="47.88838" lon="6.85672">
        <ele>624</ele>
        <time>2020-08-06T11:51:21Z</time>
      </trkpt>
      <trkpt lat="47.88828" lon="6.85651">
        <ele>623.8</ele>
        <time>2020-08-06T11:51:25Z</time>
      </trkpt>
      <trkpt lat="47.88812" lon="6.85623">
        <ele>623.6</ele>
        <time>2020-08-06T11:51:30Z</time>
      </trkpt>
      <trkpt lat="47.88784" lon="6.85568">
        <ele>623.8</ele>
        <time>2020-08-06T11:51:39Z</time>
      </trkpt>
      <trkpt lat="47.88744" lon="6.85506">
        <ele>624.2</ele>
        <time>2020-08-06T11:51:49Z</time>
      </trkpt>
      <trkpt lat="47.88707" lon="6.85456">
        <ele>623.2</ele>
        <time>2020-08-06T11:51:57Z</time>
      </trkpt>
      <trkpt lat="47.8867" lon="6.85419">
        <ele>622.4</ele>
        <time>2020-08-06T11:52:05Z</time>
      </trkpt>
      <trkpt lat="47.88665" lon="6.85417">
        <ele>622.2</ele>
        <time>2020-08-06T11:52:06Z</time>
      </trkpt>
      <trkpt lat="47.88659" lon="6.85415">
        <ele>622.2</ele>
        <time>2020-08-06T11:52:07Z</time>
      </trkpt>
      <trkpt lat="47.88641" lon="6.85397">
        <ele>621.6</ele>
        <time>2020-08-06T11:52:11Z</time>
      </trkpt>
      <trkpt lat="47.88633" lon="6.85386">
        <ele>621.6</ele>
        <time>2020-08-06T11:52:13Z</time>
      </trkpt>
      <trkpt lat="47.8861" lon="6.85367">
        <ele>621.4</ele>
        <time>2020-08-06T11:52:18Z</time>
      </trkpt>
      <trkpt lat="47.88606" lon="6.85363">
        <ele>621.2</ele>
        <time>2020-08-06T11:52:19Z</time>
      </trkpt>
      <trkpt lat="47.88569" lon="6.8533">
        <ele>620.6</ele>
        <time>2020-08-06T11:52:30Z</time>
      </trkpt>
      <trkpt lat="47.88572" lon="6.8533">
        <ele>620.6</ele>
        <time>2020-08-06T11:53:10Z</time>
      </trkpt>
      <trkpt lat="47.88572" lon="6.8533">
        <ele>620.8</ele>
        <time>2020-08-06T11:53:35Z</time>
      </trkpt>
    </trkseg>
  </trk>
</gpx>